ECMWFNIL_850_spd_000.txt.gz
Wind_Speed
9 10 9 6 6 7 7 9 10 12 12 12 12 12 12 12 12 11 11 12 13 14 16 17 17 17 16 16 17 17 17 17 18 19 20 22 24 26 28 29 29 31
9 8 7 6 6 6 7 9 11 11 11 10 11 12 12 11 11 10 10 11 12 13 15 16 17 17 16 14 14 15 15 14 15 16 17 19 22 24 27 29 31 31
10 8 6 5 5 6 7 9 10 10 10 10 10 10 10 11 10 10 10 11 12 13 14 15 17 17 15 14 14 14 14 14 16 16 18 19 21 22 24 26 29 30
11 9 6 5 5 6 7 9 9 10 10 9 9 10 10 10 10 10 10 11 12 13 14 16 17 17 16 15 14 15 14 16 17 17 19 22 23 24 24 25 27 29
11 9 7 6 6 6 7 8 9 10 10 10 9 10 10 10 10 10 11 11 13 14 15 16 17 16 16 15 15 16 16 16 17 18 20 22 24 25 26 26 28 30
10 8 7 6 6 6 6 8 9 10 11 11 11 10 11 11 12 11 12 12 13 14 15 15 16 16 16 15 15 16 16 17 20 21 22 24 26 27 28 29 29 30
9 7 7 6 6 7 7 8 9 11 12 12 12 12 12 12 12 12 12 13 14 14 14 16 17 16 16 16 15 16 17 19 21 22 23 26 29 29 30 32 31 31
8 7 7 7 7 7 8 9 9 11 13 14 13 14 14 13 13 13 13 14 15 15 16 17 19 18 16 16 16 17 18 18 20 24 26 28 30 31 32 33 33 33
8 8 8 8 8 8 8 8 9 10 13 15 15 15 15 15 14 14 15 15 16 17 17 18 19 18 17 16 17 19 19 19 21 25 27 28 30 33 34 33 33 34
8 8 8 8 8 8 8 8 9 10 11 14 16 16 16 16 15 15 16 16 17 17 18 18 17 18 18 17 17 19 20 22 24 26 28 28 30 34 33 31 32 34
9 8 8 9 8 8 8 9 10 11 12 13 15 17 17 17 17 17 17 17 17 17 18 18 17 18 20 19 19 20 22 23 25 26 27 26 30 35 32 28 29 32
9 9 9 9 9 9 9 10 11 12 12 13 14 16 17 17 18 19 19 17 17 18 18 18 19 20 21 21 21 22 22 23 25 26 24 25 30 35 30 26 27 29
9 9 9 9 9 10 10 11 13 13 13 14 15 16 17 17 17 19 20 18 17 17 18 19 20 21 22 22 22 21 21 22 25 25 23 25 31 31 27 25 27 28
10 10 10 9 10 10 11 13 14 15 16 16 16 17 18 18 18 18 19 19 18 17 18 19 19 18 20 21 21 21 20 22 24 23 22 26 29 26 24 27 30 30
11 10 10 10 10 10 12 14 16 17 16 15 16 17 18 18 18 18 18 18 18 17 16 17 16 16 18 20 20 20 20 22 23 21 21 24 27 25 26 32 33 31
12 11 11 11 11 12 13 15 17 17 15 15 17 17 17 18 17 17 16 16 17 16 15 15 14 16 18 20 19 19 19 21 22 21 20 20 23 26 30 34 34 32
12 12 12 12 13 14 15 16 18 17 15 16 18 17 16 16 16 15 15 15 15 14 13 13 14 16 19 19 19 19 19 20 21 20 18 18 20 24 28 32 34 33
13 13 13 14 14 15 16 17 18 17 16 17 17 16 15 14 14 14 14 14 13 12 12 12 13 16 19 19 19 19 19 20 20 19 17 18 20 22 24 29 33 34
13 13 14 15 15 16 16 17 18 16 16 17 15 14 15 14 14 14 14 13 13 12 13 12 12 15 18 18 18 18 18 19 20 18 17 18 21 21 22 26 31 33
13 13 15 15 16 16 16 17 17 15 15 15 13 13 15 15 14 14 14 13 12 12 13 13 13 15 16 17 17 18 18 20 20 18 16 17 20 20 21 24 27 30
13 14 15 15 15 15 15 15 15 14 14 14 13 13 14 14 15 15 14 14 13 13 14 13 13 15 17 17 18 18 18 20 21 19 16 16 19 20 20 21 24 28
13 13 14 15 15 15 15 14 14 13 13 14 14 14 14 14 15 14 14 15 14 14 15 14 13 16 18 18 19 19 19 20 20 19 17 16 18 19 20 20 21 25
13 13 14 15 15 14 14 14 13 13 13 13 13 14 15 14 14 15 15 15 16 17 17 16 14 16 19 20 20 19 19 19 19 18 17 17 18 19 19 18 19 21
12 13 14 14 13 14 14 13 13 12 13 14 15 16 15 13 14 17 18 17 17 19 19 19 19 17 17 19 19 19 19 19 18 19 19 18 19 21 20 18 19 21
12 13 13 13 13 13 13 13 14 14 13 14 15 15 14 14 15 18 19 19 20 22 21 22 21 17 15 17 19 18 18 19 19 19 20 20 21 22 21 20 21 22
12 13 13 12 12 12 13 15 17 17 16 15 16 16 16 17 18 18 18 19 21 23 23 22 20 16 15 17 18 17 16 17 18 19 19 20 21 22 22 21 22 23

ECMWFNIL_850_spd_003.txt.gz
Wind_Speed
4 5 5 4 4 6 5 5 6 7 8 8 9 9 11 12 12 13 13 12 12 13 13 14 14 15 16 15 13 13 14 13 13 13 13 15 16 18 19 20 21 22
4 5 6 4 4 5 5 5 6 7 8 9 9 10 10 10 11 12 12 12 12 12 12 13 14 14 16 15 14 13 13 13 13 13 13 15 16 17 18 20 21 22
5 5 5 5 5 5 5 6 6 7 8 9 9 10 10 10 10 11 12 12 12 12 13 13 14 14 14 15 15 14 13 13 14 13 14 15 17 18 19 20 22 23
5 5 5 5 6 6 6 6 6 7 7 8 9 9 10 11 11 11 11 12 13 14 14 14 15 14 13 15 16 15 14 14 13 13 15 17 19 21 21 21 22 24
6 6 6 6 6 6 6 6 6 7 8 8 9 10 11 12 12 11 11 12 13 13 14 14 14 15 14 14 16 15 14 14 14 14 17 19 21 22 23 22 22 24
6 7 6 6 6 6 6 6 7 9 9 9 10 11 11 12 13 12 12 12 13 13 15 15 15 15 15 14 15 15 14 15 16 16 18 21 22 22 22 22 23 27
6 6 6 7 7 7 7 7 8 10 10 11 13 13 13 13 14 13 13 14 14 15 16 16 15 15 15 15 15 15 15 16 16 17 19 22 22 21 20 22 26 30
7 7 8 7 7 8 8 8 10 10 11 12 13 14 14 14 15 15 15 15 15 16 16 16 16 16 16 16 15 15 16 16 17 18 20 22 23 21 20 23 28 30
8 8 8 8 8 8 8 9 10 11 11 11 12 13 14 16 17 18 18 17 17 17 17 17 17 16 16 16 15 16 17 17 18 19 20 22 22 21 21 24 27 27
8 8 8 8 9 8 9 10 11 12 11 11 12 13 14 16 17 18 19 20 20 19 19 19 18 17 16 16 16 16 17 18 19 19 19 20 21 21 22 24 24 25
9 9 9 9 9 9 10 11 11 12 12 12 13 14 14 16 17 17 17 19 21 22 22 21 20 19 17 16 17 17 18 19 20 19 18 20 21 21 22 21 20 24
10 10 10 10 10 10 11 12 12 12 13 14 14 14 15 16 16 17 17 18 19 22 23 23 22 19 16 16 17 17 19 20 19 19 18 19 21 21 21 19 19 24
10 10 10 10 10 11 12 12 12 12 14 16 15 15 15 16 16 17 18 19 19 20 21 22 22 20 18 18 18 17 18 19 19 19 19 20 21 21 19 18 18 23
10 10 11 11 11 11 12 12 12 13 15 16 15 15 15 16 17 17 18 19 19 19 19 19 21 22 21 20 18 15 16 19 20 20 20 20 21 21 19 17 18 22
11 11 11 11 11 12 13 13 12 13 14 14 14 15 15 16 17 17 18 18 18 18 18 18 20 21 19 17 16 15 16 19 21 20 20 21 22 21 19 17 18 22
11 12 11 12 12 12 13 13 13 14 14 14 14 15 16 17 18 17 17 17 17 17 17 17 18 18 16 15 16 17 18 20 21 20 20 22 23 22 20 18 19 21
11 12 12 13 13 13 13 13 13 14 15 15 15 15 16 16 16 17 16 16 16 16 16 15 15 16 16 16 17 19 19 20 21 21 22 23 23 22 20 19 21 22
12 12 13 13 13 13 13 13 14 14 15 15 14 14 15 15 15 16 16 16 16 15 15 14 14 16 17 17 18 18 18 20 21 22 23 23 22 22 20 19 21 23
13 13 13 13 14 14 14 14 14 14 14 14 13 14 14 14 15 16 16 15 15 15 15 14 15 16 16 16 18 18 18 20 21 22 23 21 20 21 21 20 21 24
13 13 13 13 13 14 14 14 14 14 14 13 13 13 13 14 15 15 16 17 17 16 17 16 15 16 16 17 19 20 20 21 23 23 22 21 20 20 20 22 23 24
14 14 14 13 13 14 14 14 14 14 13 13 13 13 13 13 14 13 14 16 16 16 17 16 16 18 19 19 19 19 20 22 24 24 22 20 20 21 21 22 24 25
15 14 14 13 13 14 14 14 14 13 14 14 13 14 13 13 13 14 13 13 15 17 18 18 18 19 18 18 18 19 20 21 24 25 22 20 21 22 21 22 23 25
15 14 14 14 14 14 14 14 13 13 14 14 13 14 14 13 15 16 15 15 18 20 20 20 19 19 18 18 19 19 18 20 22 24 23 21 21 21 21 22 24 24
15 14 14 14 14 14 14 12 12 14 14 14 14 15 15 14 16 17 15 15 18 19 19 21 19 18 18 18 18 18 18 19 21 21 23 24 21 18 19 22 26 23
14 14 14 14 14 14 13 13 13 14 15 15 15 16 16 16 15 15 14 14 15 15 18 20 18 17 18 17 15 15 16 17 20 21 23 25 22 19 19 22 25 24
15 14 13 13 13 13 13 13 14 13 14 15 16 18 19 18 16 15 14 15 15 16 17 16 14 16 19 17 16 16 15 16 18 20 23 24 23 22 22 22 23 23

ECMWFNIL_850_spd_006.txt.gz
Wind_Speed
7 6 5 4 4 4 4 5 5 6 6 6 6 7 8 9 9 10 11 12 12 12 12 13 14 15 15 14 14 13 12 10 10 12 13 12 12 12 14 15 16 16
7 7 8 5 2 3 4 3 4 6 6 5 6 8 9 9 9 9 11 11 12 12 12 13 14 14 14 14 14 14 14 12 11 12 14 13 12 13 15 17 17 17
9 8 8 5 2 3 5 6 6 5 4 5 7 8 9 9 9 10 11 11 12 12 13 14 14 14 15 15 15 15 15 14 12 12 11 12 13 14 16 17 17 17
11 9 8 7 6 6 7 7 5 3 4 6 8 9 9 10 11 12 12 12 12 13 14 14 14 15 17 17 16 15 15 14 13 12 11 11 12 14 16 17 17 16
12 11 9 7 7 7 7 5 3 3 5 7 9 9 10 11 13 14 14 13 13 13 13 13 14 15 16 17 16 16 16 15 13 13 13 12 13 15 16 17 17 17
12 12 10 7 7 7 6 5 4 3 5 7 8 9 11 12 13 14 15 14 14 14 14 14 15 16 16 16 16 16 16 16 15 14 14 14 15 16 16 16 17 18
11 11 9 6 5 5 5 5 3 3 7 8 7 9 12 13 14 16 16 16 16 16 16 16 17 16 16 15 16 16 15 15 16 15 15 16 17 17 17 18 19 19
11 11 9 7 6 6 7 6 4 6 9 9 8 9 11 13 15 17 17 18 18 18 17 17 16 17 17 16 15 16 15 15 15 15 16 17 18 18 18 19 20 20
11 12 12 10 8 8 8 7 6 8 10 10 9 9 11 12 14 16 17 19 20 20 19 19 19 19 18 17 17 18 17 16 16 15 17 18 18 18 19 20 21 21
11 12 13 11 10 9 8 7 5 7 8 8 9 11 12 12 13 14 16 18 19 19 19 20 21 22 21 19 19 19 18 18 19 19 18 18 18 19 20 20 20 20
11 12 13 11 10 9 8 8 8 9 9 7 9 12 12 12 13 15 16 17 18 19 20 20 20 22 24 22 19 18 18 19 21 21 20 19 18 19 21 21 20 19
12 12 13 12 11 10 9 9 10 9 8 8 10 13 14 15 15 15 15 16 17 18 20 20 18 20 23 23 20 18 18 19 20 20 20 19 19 19 20 20 20 19
13 13 13 13 12 11 10 10 10 9 11 13 15 15 16 16 14 13 14 16 17 18 19 20 18 18 21 23 21 18 18 17 17 18 19 19 19 19 20 21 21 20
13 14 14 13 13 12 12 11 11 12 14 15 14 13 13 12 12 13 15 17 18 18 17 18 17 17 19 21 20 17 16 17 17 18 19 20 20 21 22 23 23 22
15 15 15 15 14 13 13 12 11 12 14 14 13 12 12 12 13 15 16 17 17 17 16 16 17 17 18 19 19 17 17 17 17 18 19 20 22 22 23 24 24 23
16 17 17 16 15 14 13 12 11 12 13 14 14 14 13 12 13 14 15 15 16 17 16 16 17 17 17 17 16 16 17 17 17 17 18 20 21 22 23 23 23 23
16 18 18 17 15 14 12 12 11 12 13 14 16 16 14 13 13 13 14 16 17 17 16 15 17 20 19 19 17 16 16 16 16 17 19 20 22 22 22 22 23 25
18 19 18 17 15 14 12 11 11 12 13 15 16 16 15 13 13 14 14 16 17 18 17 17 20 22 21 21 20 18 17 16 17 19 20 21 22 23 23 22 23 25
21 20 19 17 16 15 13 12 12 13 14 15 16 16 16 15 15 15 15 15 17 18 19 20 22 23 22 21 21 20 19 18 20 21 20 21 23 23 22 22 23 24
21 21 19 17 16 15 13 13 13 14 14 16 16 16 16 16 16 16 16 16 17 19 21 22 22 21 21 21 22 22 22 21 21 21 21 21 22 22 21 21 24 26
21 20 20 17 15 14 14 14 14 15 15 16 17 18 18 17 17 17 17 17 18 20 22 23 21 19 19 21 23 23 22 21 21 22 22 21 21 21 21 21 24 27
21 20 19 17 15 15 15 14 14 15 16 17 19 20 20 18 17 18 18 18 19 20 21 22 22 20 20 22 22 22 21 21 22 23 23 22 21 21 20 22 24 24
20 18 17 17 16 16 15 14 14 16 17 18 19 19 19 19 18 18 19 20 22 21 20 22 22 20 19 21 21 21 21 21 21 20 20 20 21 21 20 22 23 22
18 17 16 16 16 16 15 14 14 15 16 17 17 17 18 19 19 19 20 22 24 22 20 21 21 20 19 19 20 20 21 20 19 19 20 21 21 21 20 21 22 22
18 16 16 17 17 17 16 15 14 13 13 15 17 18 18 20 21 22 22 24 24 23 21 22 22 19 18 17 18 21 22 20 20 20 21 22 22 22 21 21 22 22
17 17 17 18 18 17 17 16 15 15 16 17 16 16 18 19 21 24 27 27 26 24 23 22 20 19 20 19 20 22 22 19 19 19 20 22 23 23 23 23 23 23

ECMWFNIL_850_spd_009.txt.gz
Wind_Speed
6 5 5 4 4 5 6 5 5 5 5 6 6 6 6 6 7 7 7 6 7 8 8 8 9 10 10 10 10 10 10 8 7 7 8 8 7 7 8 9 10 11
7 6 5 3 3 5 6 6 5 4 4 5 5 4 5 5 6 7 6 6 7 8 9 9 9 9 9 10 12 12 12 10 9 8 8 8 7 7 8 9 11 12
8 7 4 3 4 5 5 5 4 4 5 4 2 3 5 6 8 8 8 8 8 9 9 10 9 9 10 12 13 14 14 13 12 10 9 8 9 9 9 10 12 12
9 7 5 4 5 5 4 5 7 7 5 3 3 6 7 8 9 8 8 8 9 9 10 10 9 9 10 12 13 14 14 13 12 11 10 10 10 11 11 12 13 13
9 7 6 5 6 6 7 9 9 6 2 1 3 5 7 7 7 6 8 10 9 9 10 10 10 10 11 12 13 14 14 13 12 11 11 11 11 12 12 13 13 13
9 7 6 7 7 8 8 9 7 3 1 0 2 3 4 5 5 7 11 11 9 11 13 12 10 10 11 13 14 14 14 14 12 12 12 12 12 12 13 14 15 15
10 8 7 8 8 8 9 8 6 4 2 1 3 4 5 6 6 9 13 13 12 14 16 14 13 12 12 13 13 14 15 14 14 14 14 13 13 14 14 16 17 17
10 9 7 8 8 9 8 7 7 6 3 5 5 6 8 9 9 11 13 13 13 15 16 16 16 15 15 16 15 15 15 15 16 16 16 15 15 16 16 17 18 18
11 10 8 8 9 10 8 6 6 5 4 7 8 9 10 10 10 12 12 12 14 16 16 16 17 18 18 18 17 17 16 16 15 15 15 16 17 17 17 17 19 19
11 10 7 7 9 10 7 6 5 4 5 8 9 9 10 10 10 11 12 13 15 16 16 16 17 17 17 17 17 18 18 16 15 15 15 17 17 17 18 18 19 20
12 10 6 7 10 10 9 8 6 5 6 8 8 8 9 11 13 14 15 16 15 14 14 13 13 14 16 17 18 19 18 16 16 16 16 16 16 15 16 17 18 20
12 10 7 8 11 12 11 11 9 9 10 11 11 12 12 14 16 17 17 16 13 13 14 14 14 15 17 19 18 17 16 16 16 16 16 15 15 15 16 17 18 20
12 9 8 9 12 12 11 11 11 12 14 14 14 15 16 18 18 17 16 14 13 16 17 17 16 16 16 17 16 16 16 16 15 15 15 15 15 15 15 16 17 19
11 9 10 10 12 12 11 10 11 12 14 14 15 16 17 18 17 15 14 13 14 16 15 14 15 15 15 16 17 17 17 17 15 15 15 15 14 14 15 16 17 18
10 11 12 12 13 13 12 13 13 14 14 14 13 13 14 13 12 12 12 12 13 13 12 14 17 17 16 15 15 16 18 18 17 16 16 15 15 15 16 16 17 18
11 14 16 16 16 16 14 15 15 15 13 12 11 11 11 11 11 11 12 12 12 12 13 17 18 17 15 15 16 17 19 20 20 19 17 17 17 18 18 18 19 19
13 17 19 19 19 19 17 16 15 13 12 11 11 12 12 12 13 12 13 13 13 14 16 18 18 18 17 17 18 19 19 20 20 20 19 19 20 19 19 19 20 20
15 20 23 23 23 22 19 17 14 12 12 12 12 12 13 14 14 14 14 14 15 16 17 18 19 19 19 20 20 19 18 19 20 20 21 22 22 21 20 20 19 19
19 24 26 25 24 22 19 16 15 13 13 13 13 13 14 15 15 16 15 15 16 17 19 20 20 20 21 22 21 18 17 19 20 21 22 23 24 23 22 20 18 18
23 25 25 23 21 19 17 15 15 14 14 14 14 14 15 16 17 17 16 15 17 18 20 21 21 21 23 23 22 19 19 20 21 22 23 23 24 24 23 22 20 19
27 25 23 21 19 18 16 15 15 15 15 15 15 16 16 17 17 18 18 17 17 18 20 22 22 21 22 23 23 22 20 21 22 22 23 23 24 24 23 21 20 19
29 25 23 22 20 18 18 17 17 17 16 15 17 17 17 17 18 20 20 18 17 18 20 20 20 20 21 21 21 20 20 21 23 22 23 24 24 22 21 19 18 18
29 25 23 22 21 20 20 20 20 19 18 17 17 18 17 17 17 18 18 17 16 17 18 19 22 24 25 23 22 20 19 20 21 21 22 24 25 23 21 19 19 19
30 25 23 22 22 22 22 22 22 22 20 18 17 17 17 16 16 15 14 15 16 17 20 22 25 27 27 26 26 24 19 18 20 21 23 25 24 21 20 20 19 20
31 27 25 24 24 25 24 24 24 23 20 17 14 15 16 15 14 13 13 14 17 19 22 24 26 27 26 26 26 23 19 19 20 21 22 23 21 19 19 19 19 20
32 29 27 26 27 28 27 26 25 23 19 16 14 15 15 15 14 14 16 17 19 21 23 24 25 26 24 22 22 22 20 19 19 19 20 20 19 18 19 19 18 18

ECMWFNIL_850_spd_012.txt.gz
Wind_Speed
13 11 10 10 10 10 10 10 10 9 9 9 8 8 9 9 8 8 8 8 7 6 6 6 7 6 5 5 5 5 5 5 4 5 5 5 6 6 6 7 7 7
14 12 12 11 10 10 10 10 9 8 8 8 7 7 8 8 7 7 6 6 5 6 7 8 8 7 6 6 7 8 8 7 7 6 6 6 6 6 8 8 8 9
15 14 12 11 10 10 10 9 8 7 7 6 5 6 6 5 5 4 4 4 5 7 8 9 9 9 9 8 9 10 10 10 9 9 9 8 8 8 9 10 10 11
16 14 12 11 10 10 10 9 9 7 6 5 4 4 3 2 2 2 1 3 4 5 6 8 9 10 11 11 11 11 12 12 11 11 11 10 9 10 10 11 11 12
17 15 13 12 12 10 10 10 8 7 6 5 4 3 2 1 2 3 1 4 4 4 6 8 9 9 9 10 11 12 12 13 12 12 13 12 11 11 11 12 12 13
18 16 14 14 12 11 10 9 8 7 7 7 5 5 3 2 2 3 3 5 6 6 8 10 11 10 10 11 12 12 11 11 12 13 14 14 13 13 13 14 14 15
19 17 16 15 13 12 11 10 8 9 9 7 6 5 4 3 3 4 5 6 7 9 10 12 12 11 11 13 13 13 12 12 12 13 14 15 15 14 14 15 16 17
20 18 16 15 14 13 12 11 10 11 10 7 5 4 4 5 6 6 6 7 8 10 12 13 14 13 12 13 15 15 15 14 14 14 15 15 15 15 16 16 17 18
21 19 17 16 15 14 13 12 12 13 11 8 6 5 6 7 8 8 8 9 11 13 14 15 16 15 13 14 15 16 16 16 16 16 16 15 15 16 16 16 18 19
22 20 18 17 16 15 14 13 13 14 11 8 7 6 7 8 9 9 9 10 13 15 16 17 17 16 14 14 15 17 18 19 18 16 16 16 17 17 16 16 17 18
24 21 19 17 15 14 13 12 13 14 12 9 9 8 8 10 11 12 12 13 15 16 17 17 16 16 17 17 18 19 21 20 18 16 16 17 17 17 16 16 16 18
25 22 19 16 14 13 12 12 14 14 12 11 9 8 9 11 13 14 15 16 16 17 17 17 16 17 19 19 20 20 20 19 17 17 17 18 17 17 16 16 16 16
26 22 18 14 13 11 11 14 16 15 13 12 10 9 12 14 13 14 15 16 17 18 18 18 18 18 18 18 18 18 18 18 17 18 18 18 18 18 17 17 16 15
25 20 16 13 12 11 12 14 16 15 14 13 11 12 15 15 15 15 17 18 18 18 18 18 17 16 15 15 17 17 17 17 17 18 19 19 20 19 18 17 16 16
23 19 16 12 12 12 13 15 14 14 15 14 13 14 16 16 16 17 18 17 15 15 15 14 14 14 14 15 17 16 16 16 18 19 20 20 20 20 19 19 19 19
22 20 17 12 12 13 14 14 14 15 16 15 14 14 15 16 16 16 15 14 12 12 12 13 13 13 14 16 17 16 17 18 20 20 19 19 19 19 20 21 21 21
25 25 19 11 11 14 13 14 14 15 16 15 14 15 15 15 14 14 13 12 11 11 12 14 15 14 15 16 17 18 18 20 20 21 19 18 18 19 20 21 22 23
30 28 19 12 12 15 14 15 16 16 16 16 15 15 15 15 14 14 13 12 12 12 14 15 16 17 17 18 19 19 20 20 21 21 20 19 19 19 20 21 22 23
32 26 18 14 15 15 15 17 18 18 19 18 16 16 16 16 16 15 14 13 13 15 16 17 18 19 19 21 21 21 20 21 21 21 20 20 20 20 20 20 21 22
32 20 14 13 15 15 17 20 20 20 20 19 18 17 17 18 17 15 14 14 15 17 19 20 20 20 21 22 23 23 22 22 22 22 21 21 21 22 22 21 22 22
26 17 16 15 16 17 21 23 22 22 22 21 20 19 18 18 17 16 15 15 17 19 21 21 20 20 22 23 24 25 23 23 24 24 23 22 22 23 23 22 23 23
21 19 18 18 19 21 24 24 23 23 23 22 21 19 18 18 18 17 17 16 17 19 20 21 20 21 23 24 24 24 23 24 24 25 25 25 24 24 24 24 24 22
22 20 21 22 23 26 27 26 25 24 23 22 21 20 19 18 18 18 17 17 17 18 19 20 21 22 22 23 24 24 25 25 23 22 23 24 24 24 24 24 23 20
26 23 23 25 27 28 28 27 26 23 22 22 22 22 21 20 18 17 17 18 19 19 20 20 20 20 21 22 24 25 26 24 21 19 20 22 22 23 23 22 20 18
29 25 25 27 29 29 28 28 25 23 22 23 23 24 23 21 19 18 19 20 19 20 20 19 19 20 22 24 24 24 23 21 20 19 20 21 21 21 21 19 18 17
32 27 25 28 29 29 29 27 26 25 25 24 25 26 25 22 20 18 18 19 20 20 20 20 21 22 24 24 22 21 20 19 19 19 19 19 19 20 20 18 17 17

ECMWFNIL_850_spd_015.txt.gz
Wind_Speed
19 17 16 16 17 18 18 17 17 17 17 16 15 14 13 13 12 12 11 10 8 7 8 8 7 7 7 7 7 7 7 7 7 7 8 8 8 9 9 9 10 10
21 19 17 18 19 19 17 17 17 17 17 15 14 14 13 13 12 11 10 9 8 8 8 7 6 7 8 8 8 9 9 8 7 7 8 8 9 10 10 11 11 12
24 21 20 20 20 19 17 17 17 17 16 14 13 13 12 12 12 11 9 8 8 8 7 5 5 6 8 9 10 10 11 10 9 8 9 9 9 10 11 12 13 14
26 24 22 21 20 18 17 17 17 17 15 14 12 11 11 11 11 10 9 8 7 6 5 4 4 5 6 7 8 9 10 11 11 10 11 10 10 11 11 12 14 14
27 25 24 22 20 18 18 18 17 16 14 12 11 11 11 11 11 11 9 6 4 4 4 4 4 5 5 6 6 7 8 9 10 10 12 12 11 12 12 13 14 15
28 27 26 23 21 20 19 18 16 15 13 12 11 11 11 11 12 12 9 6 4 4 4 4 5 5 6 7 8 9 9 10 10 10 12 12 12 12 13 15 16 16
29 29 27 24 21 20 19 17 16 15 14 13 13 12 11 11 11 11 9 7 6 5 4 5 6 7 8 8 10 11 12 12 12 11 12 13 13 13 13 14 16 17
30 30 28 24 21 20 19 17 17 16 15 15 14 13 12 10 9 9 8 8 7 5 5 6 8 9 9 10 11 12 14 14 14 13 14 14 14 14 14 15 16 18
32 30 28 25 22 21 19 18 17 16 17 16 14 13 12 10 9 9 9 9 8 7 7 8 10 11 11 12 13 14 15 15 15 15 16 16 15 14 14 15 17 19
32 28 26 24 22 21 20 18 17 16 17 16 14 14 13 11 10 10 10 11 10 9 9 10 12 14 15 15 15 15 16 16 16 17 16 16 15 14 15 16 18 19
31 27 27 25 23 22 21 18 17 17 19 16 14 15 14 12 12 12 12 12 11 11 11 12 14 16 17 17 16 16 17 17 16 16 16 15 14 14 15 16 18 20
34 31 30 26 25 23 21 19 18 19 19 17 15 16 15 14 14 13 13 13 12 12 12 13 15 17 18 18 18 17 16 15 14 14 14 14 14 14 15 16 18 20
33 31 29 25 24 23 20 19 19 19 19 17 18 19 18 17 15 14 13 13 13 13 13 14 16 18 19 19 18 16 14 13 13 13 13 14 14 15 16 17 18 19
34 29 28 25 23 21 20 20 19 19 17 17 21 23 20 18 16 14 14 14 14 14 15 16 17 18 19 18 16 14 12 12 13 13 14 15 16 17 17 18 18 19
37 29 27 26 22 22 22 22 22 21 17 18 25 26 21 18 16 15 16 16 16 16 17 17 17 17 17 15 13 12 11 12 13 14 15 16 17 18 19 19 19 19
37 28 27 28 27 25 26 25 23 21 19 23 28 26 22 19 17 17 18 18 18 18 18 17 16 15 13 12 12 12 12 13 15 16 17 18 18 19 20 20 20 19
34 28 29 32 30 27 27 26 24 23 23 27 29 26 22 20 18 19 19 18 18 19 18 17 15 13 11 11 12 13 14 16 17 18 19 20 21 21 22 22 21 20
35 31 31 35 34 31 31 28 24 26 29 29 28 26 23 21 20 20 20 19 19 20 19 18 16 13 12 13 14 14 16 18 19 20 22 22 23 23 23 24 24 23
39 35 34 37 37 36 34 29 26 29 31 29 28 26 24 23 22 21 20 20 20 20 19 17 16 15 15 15 16 16 17 19 21 23 24 25 24 24 25 26 26 26
40 37 37 39 39 38 34 27 26 30 31 29 28 27 26 24 23 21 21 21 21 19 18 17 16 16 16 17 18 19 19 20 23 25 26 26 26 26 26 27 27 28
37 36 38 41 41 39 33 26 26 29 29 28 29 28 27 25 23 22 22 21 20 19 18 18 17 17 18 19 20 20 21 22 24 25 26 26 27 27 26 25 27 28
38 37 38 41 40 35 29 25 26 29 28 27 28 28 27 25 23 23 22 20 19 18 18 19 19 19 20 21 21 22 23 24 25 25 26 27 27 25 23 22 24 28
40 37 37 39 38 30 24 25 28 28 27 27 27 28 27 26 24 23 22 20 18 18 18 19 20 21 22 23 23 24 24 24 24 25 27 27 25 23 22 22 23 27
40 38 36 38 35 26 23 27 29 26 25 25 26 26 26 25 24 22 21 19 17 17 18 20 22 23 24 24 24 24 24 24 24 25 25 23 22 22 22 22 22 24
39 39 35 35 31 23 21 26 27 24 23 24 25 26 25 25 25 24 23 21 19 18 19 21 23 24 24 25 24 23 24 24 24 23 21 21 21 22 21 20 20 21
40 40 35 34 31 23 20 24 25 24 25 26 27 26 26 27 29 29 27 25 23 22 22 23 24 24 24 24 23 24 25 24 22 21 20 20 21 20 19 18 19 20

ECMWFNIL_850_spd_018.txt.gz
Wind_Speed
25 23 22 20 18 16 16 16 15 16 17 17 17 17 16 15 14 13 11 10 9 9 9 8 7 7 7 8 8 9 9 8 8 8 8 8 8 8 8 8 9 10
27 25 23 22 19 18 16 15 16 16 17 18 18 17 16 16 14 13 11 10 10 9 9 9 8 8 8 8 9 10 10 10 9 9 9 9 9 9 9 9 10 11
29 27 25 23 21 19 17 16 16 18 18 19 18 17 17 16 15 13 12 12 11 10 10 10 9 9 7 7 8 9 9 10 9 10 10 10 10 10 9 9 10 11
32 29 27 24 21 19 17 16 18 19 20 20 18 17 17 16 16 14 13 13 12 11 11 10 9 7 5 5 5 5 6 7 7 8 10 10 10 10 10 10 11 11
33 30 28 25 23 20 18 18 19 20 20 19 17 17 17 16 16 14 13 13 12 12 12 11 9 6 4 4 4 4 4 5 5 7 9 9 9 10 10 11 12 13
35 33 30 26 24 21 19 19 19 20 20 18 17 18 17 16 15 14 14 13 12 12 12 11 9 7 6 5 5 5 6 6 7 8 10 10 10 10 11 12 13 13
38 35 31 27 24 22 20 18 18 18 18 17 17 18 17 15 15 15 15 14 13 12 11 10 9 8 7 8 8 8 9 9 10 11 13 13 13 13 13 13 14 15
40 37 33 28 26 24 21 19 18 17 17 18 18 17 16 15 16 17 17 15 13 12 11 11 10 9 9 10 10 11 11 12 13 14 15 16 16 15 15 14 15 16
42 38 34 30 28 27 24 21 19 17 17 18 18 18 16 16 16 17 18 16 15 14 13 13 12 11 11 12 12 13 14 14 15 15 16 17 17 16 15 15 16 17
45 41 37 34 32 30 27 26 24 20 18 18 18 19 17 16 16 16 17 17 16 15 15 14 13 12 12 13 13 14 16 16 16 16 16 16 16 16 15 15 16 17
46 43 40 37 35 32 30 28 26 25 21 18 19 20 19 18 17 16 17 18 17 16 15 15 14 14 14 14 15 16 17 17 17 16 15 14 14 14 15 15 16 17
47 46 44 41 38 35 33 30 27 27 25 21 21 21 21 21 20 19 20 20 19 17 17 16 16 15 16 15 16 17 18 18 17 15 13 12 13 14 14 15 16 17
51 50 48 44 41 38 36 33 30 30 28 25 24 23 23 24 23 22 21 21 20 19 18 17 16 16 16 16 16 17 18 18 17 15 13 12 13 14 14 16 17 18
52 52 50 47 43 40 38 35 34 35 32 28 27 26 25 26 25 22 21 22 22 21 19 18 17 16 16 16 17 17 17 17 16 15 13 12 13 14 15 16 17 18
51 51 50 47 45 42 39 37 36 35 32 30 30 27 26 28 26 23 23 24 23 22 20 18 17 17 16 16 16 16 16 16 15 14 13 13 14 15 17 18 18 19
49 50 49 49 50 46 39 36 34 32 31 32 32 30 29 30 28 25 26 26 25 23 20 18 18 17 17 17 16 15 15 14 14 14 14 15 17 18 19 20 21 21
48 50 48 51 55 49 40 37 37 35 34 33 34 33 30 29 28 27 28 27 26 24 20 18 18 18 17 17 16 14 13 13 14 15 17 18 19 20 22 23 23 23
48 48 47 51 55 52 44 43 43 40 36 35 36 33 27 25 28 30 29 27 26 24 21 19 18 18 18 18 16 14 13 14 16 17 19 20 21 22 24 25 25 25
46 46 46 49 54 53 48 45 43 40 37 37 37 32 25 25 30 31 29 27 26 25 22 20 19 18 18 18 17 15 14 15 17 18 20 21 22 23 25 25 26 27
44 43 44 49 52 51 46 41 39 37 37 37 37 32 27 27 30 31 29 28 27 25 23 21 19 18 18 18 16 15 15 16 18 19 21 22 23 24 24 25 27 28
42 41 44 48 49 45 39 35 35 36 37 38 37 33 29 28 30 30 30 29 27 25 23 22 20 18 18 17 16 15 16 18 18 20 22 23 23 23 23 25 28 28
40 40 44 47 44 38 32 32 34 36 38 37 35 32 30 30 31 31 31 30 27 25 24 22 20 19 19 18 16 17 18 18 19 21 22 22 22 22 24 26 26 25
39 41 44 46 44 34 28 29 32 36 37 35 33 32 32 31 32 32 31 29 26 25 25 23 21 20 19 19 18 19 19 19 20 21 21 21 22 23 24 23 23 23
38 40 43 44 42 31 25 27 31 33 34 33 31 31 30 30 31 31 30 28 25 24 25 24 23 22 21 21 20 20 20 20 20 20 21 22 22 23 23 22 23 24
37 39 40 40 37 26 21 24 30 32 32 32 30 28 28 29 30 30 29 28 26 26 26 26 26 24 24 22 20 19 19 19 20 21 21 22 22 23 23 23 23 22
35 36 37 36 32 24 18 22 29 30 28 28 26 25 27 28 29 29 29 29 29 29 29 29 29 27 26 23 20 19 20 20 21 21 21 21 22 23 23 22 21 20

ECMWFNIL_850_spd_021.txt.gz
Wind_Speed
31 30 28 27 26 25 23 21 19 17 16 15 14 14 13 12 11 11 11 9 8 8 9 9 8 7 6 6 6 7 7 8 8 8 8 8 8 8 8 8 8 8
33 32 30 29 29 27 24 21 18 16 15 14 13 13 12 12 11 12 11 10 9 9 9 9 9 8 7 7 7 8 8 9 9 9 8 8 8 8 9 8 8 9
35 34 33 32 30 28 25 21 18 17 16 14 14 13 13 12 12 12 12 11 10 10 10 10 10 9 9 8 8 8 8 8 8 8 8 8 8 9 9 9 9 10
37 35 34 33 31 28 25 21 19 18 17 16 15 14 14 13 12 13 12 12 10 11 12 11 11 11 9 9 9 8 8 8 7 7 7 7 7 8 9 9 10 10
38 37 36 34 32 29 26 23 21 20 19 17 16 15 14 13 13 13 13 12 12 12 13 13 13 11 11 10 8 7 7 7 7 6 7 6 6 7 8 8 10 10
40 39 38 35 33 31 28 25 23 21 20 18 16 15 14 13 13 13 13 13 12 13 15 14 14 13 12 11 9 8 8 8 7 8 8 8 8 9 9 10 11 11
42 42 40 38 35 33 30 28 25 24 22 19 17 16 15 14 12 11 12 13 13 15 15 15 14 14 14 12 10 10 9 10 10 10 10 11 11 11 12 12 13 13
44 44 42 40 38 36 33 30 27 25 23 20 18 17 15 14 12 11 12 14 15 15 15 15 16 16 15 14 12 12 12 12 12 12 13 13 13 13 14 14 15 15
45 45 44 42 40 38 36 33 29 27 25 22 19 17 14 12 12 12 13 14 15 16 16 16 17 17 16 15 14 13 13 13 14 14 15 14 14 15 15 15 16 16
47 47 46 45 43 41 39 35 31 28 26 23 20 18 16 14 13 13 13 15 17 18 18 19 19 18 17 16 15 14 14 15 15 15 15 15 15 15 15 14 15 15
48 49 49 48 46 44 41 38 34 31 29 27 25 25 22 18 18 18 18 19 19 17 19 21 20 19 18 16 15 15 16 16 16 16 16 16 16 15 14 13 13 13
48 50 51 51 49 46 43 40 36 33 32 32 30 29 27 23 22 23 22 22 20 17 18 21 21 20 18 17 17 17 17 18 17 17 17 16 16 14 12 11 11 11
49 50 51 53 51 47 43 41 39 36 35 35 32 31 29 25 24 25 24 23 20 17 18 21 21 20 19 18 18 18 18 18 18 18 17 16 15 14 11 10 10 10
49 50 51 52 49 44 42 41 40 38 38 37 34 32 29 26 25 26 25 22 20 19 20 22 22 21 20 19 19 19 18 18 19 18 17 16 15 14 12 11 12 12
48 50 50 49 46 44 44 43 40 39 40 39 36 33 31 29 27 27 26 23 20 21 23 23 23 22 20 19 19 18 17 18 18 17 16 15 15 14 13 13 14 15
45 46 47 47 45 44 45 45 43 42 43 42 39 38 36 32 29 28 28 25 23 23 23 23 23 22 19 19 18 17 16 17 17 16 16 16 16 16 16 16 17 18
41 42 44 44 45 44 44 46 47 48 48 45 41 41 40 35 31 30 29 28 28 25 23 24 24 22 20 19 18 17 16 16 17 17 18 18 18 18 18 18 19 20
38 40 42 42 43 44 43 46 49 50 51 50 46 45 42 37 33 30 28 30 33 29 25 25 25 22 20 19 18 17 16 16 18 19 19 19 19 19 19 20 20 21
36 38 40 40 41 41 41 45 48 46 47 50 52 51 45 38 34 30 29 33 36 32 28 26 26 23 20 19 19 18 17 17 19 20 20 20 20 20 21 22 22 22
34 36 37 38 38 38 38 42 45 43 42 46 51 52 46 38 34 32 31 35 36 32 29 28 27 24 21 20 20 19 18 18 19 20 20 20 21 22 23 23 22 21
32 33 35 35 35 35 37 40 42 42 43 44 46 48 43 37 35 34 34 36 34 30 30 29 27 25 22 20 20 20 19 19 20 20 21 22 22 22 22 21 20 21
29 30 32 32 32 33 35 38 40 42 42 40 41 43 41 38 36 36 36 35 30 27 29 30 28 25 23 22 21 21 21 20 21 22 22 23 22 20 19 19 20 21
26 28 28 28 29 31 34 36 39 41 38 35 36 38 37 36 36 36 37 33 27 25 26 29 29 26 25 23 22 22 23 23 23 23 24 24 21 18 18 19 21 22
23 24 24 24 25 29 32 34 37 37 35 34 35 32 29 32 35 36 35 31 27 25 25 27 28 27 25 24 24 24 25 25 26 26 25 23 20 18 18 20 20 20
20 20 20 20 22 26 29 31 31 30 30 33 34 30 28 30 34 35 33 30 28 27 26 26 27 27 26 25 26 26 26 27 30 29 25 21 19 18 18 18 19 19
17 16 16 18 20 22 25 27 27 26 27 31 31 28 27 28 31 32 30 28 27 27 26 25 26 26 26 27 28 27 27 30 30 25 19 17 17 17 16 16 17 19

ECMWFNIL_850_spd_024.txt.gz
Wind_Speed
30 30 29 28 26 24 23 22 21 19 18 17 16 14 14 15 14 14 14 12 9 8 10 12 13 13 11 9 8 7 6 6 5 5 5 5 5 5 6 6 7 7
32 31 30 29 27 26 25 24 22 20 19 19 17 16 17 16 15 15 14 12 9 8 9 12 13 12 9 7 6 6 6 5 5 5 5 5 5 5 6 6 7 8
33 32 32 31 29 28 28 26 23 22 21 20 18 18 18 16 16 15 13 11 9 8 9 11 12 11 9 7 7 7 6 6 5 6 6 5 5 6 6 7 8 9
34 33 33 32 31 31 29 27 26 24 23 21 20 19 18 16 16 15 13 11 9 8 9 11 12 12 10 9 8 8 7 7 7 6 6 6 6 6 7 7 8 9
35 34 34 33 32 32 31 29 27 26 24 23 21 20 18 17 17 16 13 10 8 8 9 11 13 13 12 10 10 9 8 8 7 7 6 6 6 7 7 7 8 9
36 35 35 34 34 33 32 30 29 28 26 24 22 21 19 18 18 17 13 9 8 8 8 10 14 14 13 12 12 11 10 9 8 8 7 7 7 8 9 10 10 10
37 36 35 35 35 34 33 32 31 29 27 26 25 23 21 19 19 17 14 12 11 9 9 12 15 16 14 14 15 14 12 11 9 9 9 8 8 9 10 11 11 11
38 37 36 36 36 35 35 34 31 31 30 28 26 24 22 20 20 19 17 15 14 12 11 13 16 17 16 16 17 16 15 13 11 10 10 9 10 11 10 12 12 13
39 38 37 37 37 38 38 34 32 33 32 30 28 25 24 22 21 22 20 18 16 14 14 15 16 17 17 17 19 19 17 15 12 11 11 11 12 12 12 12 13 13
40 39 38 38 38 40 39 35 34 36 34 31 30 28 27 25 24 24 22 20 19 17 17 18 19 17 16 18 21 21 19 16 14 12 12 12 13 13 13 14 14 14
40 40 39 39 40 41 41 38 37 38 37 34 33 32 29 28 27 27 25 23 22 20 20 21 20 17 14 17 22 23 20 17 15 13 13 13 14 14 14 14 15 15
40 40 40 40 40 41 42 39 37 39 40 37 35 34 32 31 30 29 29 27 23 20 21 22 21 17 14 16 21 23 21 18 16 15 14 15 15 15 15 15 16 15
40 40 40 40 41 41 42 40 38 40 41 39 37 36 35 34 33 32 31 29 25 22 21 22 22 19 16 17 20 22 21 19 17 16 16 16 17 16 16 16 16 16
39 39 40 41 41 41 42 40 39 40 40 38 37 37 39 39 37 36 35 32 29 25 23 24 24 20 18 19 21 22 22 20 18 17 17 18 18 17 17 17 17 16
39 39 39 37 35 39 42 39 39 40 37 36 38 40 42 41 39 38 37 36 33 28 26 26 25 21 20 21 22 22 21 20 19 18 18 19 19 18 18 18 17 17
36 36 36 32 29 33 38 39 39 38 34 35 41 44 43 42 40 39 39 40 36 29 27 27 26 23 22 23 24 23 21 20 19 18 18 19 19 19 18 18 17 17
31 30 31 31 29 30 33 36 38 36 33 35 41 45 45 43 40 39 41 41 35 28 26 27 27 24 21 24 26 24 21 20 19 18 18 19 20 19 19 18 17 17
25 26 27 27 27 29 31 33 35 34 32 35 40 44 46 45 41 41 44 42 34 28 27 28 29 25 22 24 28 25 21 20 18 18 18 18 19 19 18 18 18 18
22 23 22 21 22 25 28 30 32 31 31 35 40 44 46 46 45 44 45 41 34 30 28 29 30 27 23 24 27 24 20 19 19 19 18 17 17 17 17 18 20 21
19 20 18 16 18 21 24 27 28 29 30 33 39 44 46 47 47 46 44 39 33 30 28 28 30 28 25 23 24 23 21 19 20 20 19 19 18 18 19 20 22 23
16 17 14 16 19 21 22 24 24 25 28 31 36 43 46 47 48 47 43 37 33 29 27 28 30 31 28 26 23 23 22 21 21 21 20 21 20 21 22 22 23 24
14 14 14 16 19 18 19 22 23 23 26 30 35 40 43 45 46 45 40 36 33 30 28 30 31 30 29 27 23 23 24 22 22 22 22 22 22 23 24 23 23 23
11 12 14 15 16 16 18 21 21 21 25 29 32 35 39 43 46 44 39 34 33 32 30 31 30 27 26 25 22 24 25 24 22 23 23 23 24 25 25 26 25 22
10 11 12 14 15 15 16 16 17 20 24 26 28 31 35 38 41 42 39 35 34 33 31 29 28 25 24 21 20 23 26 24 23 23 23 24 25 27 28 29 26 22
10 9 10 11 12 13 14 13 14 18 21 23 24 27 31 32 33 35 33 29 28 29 28 26 25 24 22 21 19 22 25 25 23 23 24 25 26 27 29 28 25 22
9 8 9 10 11 12 13 12 12 15 18 20 20 21 25 27 27 26 24 22 21 21 22 23 24 23 23 21 19 20 23 24 23 24 26 28 28 28 28 27 25 25

ECMWFNIL_850_spd_027.txt.gz
Wind_Speed
29 28 27 26 24 22 22 22 21 21 19 17 16 16 15 14 13 14 14 13 12 12 12 11 12 12 11 11 11 10 10 9 7 7 7 6 5 5 6 6 6 7
30 29 28 28 25 24 23 23 23 22 21 19 18 16 16 15 15 15 16 16 14 13 13 13 13 13 14 13 12 12 12 11 9 8 8 8 7 6 6 6 6 7
31 31 30 29 28 26 24 24 24 24 22 21 20 18 17 17 18 17 18 18 16 15 14 14 14 15 16 16 14 13 13 11 9 9 9 9 7 6 6 7 7 7
32 31 31 30 29 28 26 25 25 24 23 22 21 19 18 18 19 19 19 19 18 16 15 14 15 17 17 18 16 14 12 11 9 9 11 12 9 7 7 7 7 7
33 32 31 31 30 29 29 28 28 26 24 23 22 21 20 20 20 20 20 20 18 17 16 14 15 18 18 19 18 15 12 11 9 8 10 12 9 7 7 7 7 8
35 33 32 31 31 30 30 31 30 29 27 26 25 24 24 23 22 21 22 21 19 18 18 16 15 17 19 19 18 16 14 12 10 9 11 11 10 9 8 8 8 8
36 35 33 32 32 32 32 32 31 30 29 29 28 27 27 26 24 24 24 23 20 20 19 18 16 16 18 19 18 17 16 13 12 12 12 12 12 11 11 10 9 8
38 36 34 33 33 33 33 33 32 32 32 31 31 30 30 29 27 27 27 25 23 23 21 20 18 17 18 20 19 19 18 15 14 15 13 13 13 13 13 12 11 10
38 38 36 35 35 34 34 33 33 35 35 33 33 33 33 31 29 29 29 27 26 25 23 22 20 18 19 21 20 20 18 16 16 17 15 14 14 14 13 12 12 11
39 39 38 37 36 35 35 34 35 37 37 35 34 35 34 33 32 32 31 28 28 28 26 24 22 20 20 21 21 21 19 17 18 18 15 15 15 14 13 13 13 13
39 39 39 38 37 36 35 35 36 37 37 36 36 35 35 35 34 35 34 32 30 30 28 26 25 23 21 22 23 22 20 18 19 18 16 15 15 15 14 14 15 15
38 38 39 39 38 37 34 35 37 37 35 36 37 37 37 38 38 38 37 35 32 31 29 29 28 25 22 23 24 23 20 19 19 19 17 17 17 16 16 15 16 16
37 37 37 37 38 37 35 35 38 37 35 36 38 38 39 40 41 41 39 38 35 33 31 31 31 28 24 24 24 23 20 19 19 19 19 19 18 17 17 16 16 18
35 35 35 35 36 36 36 37 40 37 35 36 38 38 39 42 43 43 42 40 38 35 33 33 32 30 26 25 25 23 21 19 19 21 21 20 19 18 18 18 17 18
31 27 27 27 27 29 31 33 38 39 35 36 40 40 39 41 43 44 44 42 39 36 35 35 34 31 27 26 26 24 22 20 20 21 22 20 19 18 19 19 19 18
27 20 19 21 22 24 25 25 30 36 35 33 35 38 40 39 40 41 41 40 39 38 37 37 36 33 27 25 26 25 22 21 20 22 22 21 20 20 19 19 19 19
25 19 18 21 22 22 25 23 22 26 29 27 27 32 37 38 37 37 36 35 38 40 39 37 36 34 27 25 27 25 23 22 20 20 21 21 20 20 20 19 18 18
23 20 18 20 21 21 25 26 22 21 26 29 30 31 33 36 38 37 33 33 36 39 39 36 36 33 27 25 28 25 22 22 21 21 22 22 20 19 19 19 18 18
20 19 17 18 21 23 25 24 21 23 27 30 31 29 28 32 37 37 36 35 37 38 38 36 35 32 26 25 28 25 21 21 21 24 25 23 21 19 18 18 18 18
18 18 17 17 19 23 24 21 19 22 24 23 22 23 25 27 29 33 38 39 39 38 37 35 34 32 27 25 28 28 23 19 21 24 25 24 22 20 18 19 19 18
18 18 18 17 18 20 21 19 18 19 20 16 15 20 24 23 24 31 37 39 39 39 37 36 36 33 29 27 30 31 25 21 22 24 25 24 23 22 21 21 19 18
20 20 19 17 16 18 18 18 18 18 19 17 16 19 22 22 27 34 36 36 38 38 37 37 36 34 30 27 30 30 24 21 22 24 24 25 24 23 23 21 20 21
21 21 20 18 17 18 17 16 16 16 16 18 18 19 20 21 26 31 33 35 38 38 38 36 33 31 29 28 29 28 24 23 24 24 24 25 25 24 24 22 22 23
20 20 20 18 17 18 16 14 14 14 15 17 17 15 15 16 20 25 28 31 33 35 36 34 30 29 29 29 29 28 24 23 24 24 25 27 27 26 24 23 23 25
19 19 19 17 15 15 14 13 14 16 16 16 14 12 13 14 15 17 19 21 25 29 31 32 31 29 30 31 30 28 23 19 20 23 24 27 29 26 22 23 25 26
18 18 18 16 14 13 13 13 14 15 14 13 12 11 11 12 13 12 13 17 23 24 25 28 27 27 30 31 27 23 19 17 19 22 23 25 26 24 22 24 26 27

ECMWFNIL_850_spd_030.txt.gz
Wind_Speed
30 29 29 27 26 25 23 23 23 22 21 20 20 20 19 19 18 18 18 17 18 19 19 16 13 13 17 19 21 19 15 12 11 11 11 11 11 11 11 9 9 10
31 30 29 28 27 26 25 24 23 23 23 22 21 21 20 20 21 21 20 19 19 19 17 13 12 14 17 18 19 20 18 14 13 13 13 11 10 11 10 10 9 10
33 32 31 30 29 27 26 25 25 24 24 24 24 23 22 22 23 22 21 21 22 21 18 13 12 14 17 18 18 18 18 16 15 15 14 11 9 9 10 10 9 7
35 34 33 31 30 28 27 26 26 26 26 26 26 25 24 24 24 23 23 24 24 22 19 16 14 15 17 19 18 17 18 17 16 17 15 12 9 10 11 11 12 11
37 35 34 32 31 29 28 27 28 28 28 28 28 27 26 26 25 24 24 25 25 23 21 18 16 16 17 19 19 18 18 18 17 18 16 13 10 10 11 12 13 14
38 36 35 33 32 31 30 30 30 30 30 30 30 28 28 28 27 26 26 26 25 24 23 21 19 18 18 19 20 20 19 18 17 18 17 14 12 11 11 12 12 12
38 38 36 34 33 32 32 32 32 32 32 32 31 30 30 30 29 29 28 27 26 25 24 23 21 21 20 19 21 22 21 20 19 18 17 15 13 13 13 13 12 12
39 38 37 36 34 34 34 34 34 34 33 33 32 32 31 31 31 31 30 29 27 26 26 25 24 23 22 21 21 21 22 22 21 20 18 16 16 15 15 14 13 13
39 38 38 37 36 36 36 35 35 34 34 34 33 33 33 33 33 33 32 31 30 29 28 27 26 25 24 23 21 21 22 23 22 21 20 18 18 18 16 15 15 15
39 38 37 37 37 38 37 36 35 35 35 34 34 34 35 36 36 36 35 34 33 32 31 30 28 27 26 26 23 21 22 22 22 22 21 19 18 18 18 17 16 16
39 39 38 38 38 38 38 37 35 34 34 34 34 36 37 38 37 37 37 37 36 35 34 33 31 29 28 28 26 23 22 23 23 23 22 20 19 19 19 18 18 17
40 40 40 39 38 38 37 37 35 33 33 33 34 35 36 38 39 38 38 38 38 37 37 35 33 31 29 29 28 25 23 24 24 24 23 21 20 20 20 20 19 18
41 41 40 39 38 37 37 35 34 34 33 34 34 32 32 36 39 39 38 39 39 39 38 37 36 34 31 30 30 28 25 25 26 25 23 22 22 22 22 22 20 19
40 40 39 38 37 37 37 36 34 34 33 35 35 33 32 35 37 38 38 38 40 40 39 39 38 36 33 32 32 29 26 26 27 26 24 23 23 23 23 23 21 20
39 38 37 37 37 37 37 36 35 34 34 34 35 34 33 34 34 34 36 37 39 40 39 39 40 38 35 34 33 30 28 28 28 28 25 24 23 24 25 23 22 21
37 37 36 36 37 37 36 36 36 34 34 34 34 33 33 32 30 30 33 35 37 38 39 39 39 38 37 35 32 30 30 30 30 29 26 24 23 25 25 23 22 21
35 35 36 36 37 36 36 36 35 35 34 33 33 32 33 32 30 30 32 32 33 34 36 39 39 38 40 39 33 30 31 32 31 30 27 24 23 24 24 22 21 21
36 36 35 35 35 35 35 35 34 34 34 33 33 32 32 31 30 30 32 32 30 29 30 35 37 38 41 40 33 30 32 33 32 30 27 24 23 23 23 22 23 22
37 36 34 33 32 31 32 32 32 32 32 32 31 30 31 31 30 29 30 31 31 29 28 30 32 35 39 39 33 30 31 33 32 29 26 25 23 23 22 22 23 22
37 36 33 31 30 29 29 29 29 29 30 29 27 27 29 31 31 31 30 30 31 31 30 30 30 31 35 35 31 30 32 33 31 27 27 26 23 21 21 21 21 21
36 34 31 29 29 28 27 28 29 29 29 28 27 26 27 30 31 32 31 31 31 32 33 33 33 32 32 30 28 29 33 32 29 27 27 25 23 22 21 21 21 21
36 33 30 29 29 27 27 28 29 28 28 27 26 25 25 27 29 30 30 30 30 32 33 34 34 32 30 27 25 28 31 28 27 28 27 24 22 24 22 20 22 24
35 32 30 30 29 27 27 27 26 27 27 25 23 22 24 27 28 28 28 27 27 29 30 32 33 31 30 27 25 28 29 26 26 29 29 25 22 22 21 20 23 24
32 31 30 29 28 27 26 24 22 23 23 22 20 18 20 24 26 25 26 25 24 23 25 29 31 30 29 28 27 31 33 29 28 30 31 26 22 20 20 21 23 24
29 30 29 27 25 24 23 21 21 20 20 21 21 20 20 22 23 23 25 27 24 21 23 27 30 29 30 29 28 31 33 30 27 29 29 25 23 21 21 23 25 26
28 30 29 25 23 22 22 21 19 19 20 21 21 22 23 23 22 21 22 22 20 18 20 23 25 27 29 28 27 29 29 25 24 25 26 24 22 21 22 24 26 27

ECMWFNIL_850_spd_033.txt.gz
Wind_Speed
33 33 32 31 31 31 30 28 27 27 27 26 25 23 22 21 20 20 18 17 18 18 18 16 13 13 14 14 14 13 11 10 12 14 14 14 14 14 14 14 15 16
34 33 33 32 32 32 31 30 28 28 27 26 24 23 21 21 21 21 20 19 19 18 18 17 14 14 16 17 16 15 13 13 13 15 15 15 15 16 16 15 16 18
35 34 34 33 33 33 32 31 30 29 28 26 25 24 22 22 22 23 22 21 20 19 18 18 15 15 17 18 17 16 16 15 14 15 16 15 15 16 16 16 16 17
37 36 35 34 34 33 32 32 31 30 29 28 26 25 23 23 23 24 23 23 22 20 20 19 16 16 19 18 18 18 18 17 16 17 17 16 15 16 16 17 16 15
39 37 37 35 34 34 33 33 33 32 31 30 28 26 25 25 26 26 26 25 24 23 22 22 19 19 19 18 18 20 20 19 19 20 19 16 16 16 17 17 18 17
41 39 38 37 36 35 35 34 33 33 32 31 30 29 28 27 28 28 28 27 27 26 25 24 23 22 21 19 18 19 21 21 21 22 21 19 17 17 18 18 18 18
43 41 40 38 37 36 36 35 34 34 33 32 31 31 30 30 30 30 30 29 28 28 27 26 25 24 22 21 20 20 21 21 21 22 22 21 19 19 19 19 19 18
44 43 41 40 39 38 37 36 35 34 34 33 33 33 33 32 32 32 32 31 30 30 29 27 26 25 24 23 23 22 22 22 22 23 24 23 22 21 21 20 19 19
45 44 43 42 41 40 39 37 36 35 35 35 34 34 35 34 34 33 33 33 32 32 31 30 29 27 26 25 25 25 24 24 23 23 25 24 22 22 21 21 20 20
45 45 44 43 42 41 40 39 37 36 36 36 36 36 36 36 35 35 34 34 34 34 33 33 32 31 29 27 27 26 26 26 24 24 25 25 24 22 22 22 22 21
46 46 45 44 43 42 41 40 39 37 37 37 37 38 37 37 37 36 36 36 36 36 36 35 35 34 32 30 29 28 28 28 26 24 25 26 25 24 23 23 22 21
47 47 46 45 44 43 42 41 40 39 39 38 38 39 39 39 38 38 38 38 38 38 37 37 37 36 35 33 30 29 29 30 28 26 25 27 27 26 24 24 23 22
48 48 47 45 44 43 42 42 41 41 40 40 39 39 40 40 39 40 40 40 39 39 39 38 38 38 37 35 31 30 30 31 30 28 27 28 29 27 26 25 23 22
48 47 46 45 44 43 42 42 42 42 41 40 40 39 40 40 40 39 39 39 40 39 39 39 39 39 39 37 33 32 32 32 30 29 29 30 30 29 27 26 24 23
48 47 46 46 45 44 43 42 42 43 42 41 41 40 39 39 39 39 39 39 39 39 39 39 40 40 40 38 35 34 34 33 31 30 30 30 31 30 29 26 25 24
48 48 47 46 45 44 43 42 42 42 42 42 41 40 38 38 38 38 39 39 39 39 39 39 40 41 41 38 36 35 35 34 32 31 31 31 31 32 31 27 25 25
48 48 48 47 46 44 43 42 42 42 41 40 40 39 38 37 37 37 38 38 38 37 37 38 39 40 39 37 35 36 37 37 34 32 32 32 33 33 32 28 26 26
47 48 48 48 46 45 43 42 42 41 41 39 39 39 37 37 37 37 37 36 35 35 35 35 37 39 38 35 32 34 37 39 36 33 32 34 34 33 32 29 26 26
47 47 48 48 47 45 44 43 42 41 41 40 39 39 38 37 37 36 36 35 35 34 33 33 35 36 35 31 29 29 33 37 37 35 33 34 34 33 32 29 27 25
48 47 47 46 46 45 44 43 43 41 41 41 40 38 38 37 36 35 34 34 34 34 32 32 33 33 31 28 25 25 30 34 35 35 34 34 34 32 31 29 27 24
49 48 46 45 44 44 44 44 42 41 41 40 39 38 36 35 34 32 32 33 34 34 33 33 33 31 28 26 24 24 27 31 33 35 35 35 34 31 30 29 26 23
50 48 46 44 43 43 43 43 42 41 40 39 38 36 35 33 32 30 30 31 32 33 33 32 31 29 28 27 27 25 26 28 31 34 36 35 33 30 30 29 26 22
51 49 47 45 43 43 42 41 40 39 38 37 37 36 35 34 33 31 30 30 31 33 33 32 31 29 27 28 28 26 25 26 30 32 34 34 32 30 29 27 26 24
50 49 47 45 43 42 40 39 39 38 37 36 36 36 35 34 33 32 31 31 31 32 32 31 30 28 28 28 28 27 25 26 28 30 33 33 32 30 29 26 27 26
49 48 47 45 42 40 38 38 38 37 35 34 33 33 32 32 32 32 31 30 30 30 30 29 29 28 27 28 27 27 25 25 25 27 31 34 33 31 29 27 27 24
48 47 46 44 41 38 37 37 36 35 34 33 32 31 31 31 30 29 28 27 27 28 28 28 27 26 25 25 25 25 25 24 23 24 27 31 31 31 29 28 26 24

ECMWFNIL_850_spd_036.txt.gz
Wind_Speed
41 41 40 39 38 37 35 34 33 33 31 30 29 29 28 26 23 23 22 21 21 20 19 17 16 15 14 13 13 14 14 15 15 17 18 18 18 18 18 18 18 18
42 41 41 40 39 38 37 35 34 34 32 31 30 29 29 27 25 23 22 22 22 21 20 19 18 17 16 15 14 15 15 16 17 19 20 19 19 19 18 19 19 20
43 42 42 42 41 39 37 36 35 35 33 31 30 30 30 28 26 25 23 22 24 23 21 20 19 18 18 16 15 16 16 17 18 20 20 20 20 20 19 20 20 20
43 43 43 42 41 40 37 36 36 36 34 33 32 31 30 29 28 27 25 24 25 24 22 22 21 20 19 18 17 17 18 18 18 20 20 20 20 20 20 20 20 20
43 43 43 42 41 40 39 37 37 36 36 35 33 32 31 30 30 29 27 27 27 26 24 23 22 21 20 19 19 19 19 19 20 21 21 20 20 20 20 20 21 21
43 43 43 43 41 41 40 39 37 36 36 36 34 33 32 32 31 31 30 29 29 28 26 25 24 24 23 21 20 21 21 21 21 22 22 21 21 21 21 22 22 22
43 43 43 43 42 42 41 40 38 37 37 37 36 35 34 33 33 32 31 31 30 30 29 28 27 26 25 24 23 23 23 23 23 23 23 23 23 23 23 23 22 22
42 42 42 43 43 43 42 41 40 39 38 38 38 37 35 35 34 34 33 32 32 32 31 30 29 27 27 26 26 26 25 25 26 25 24 24 25 25 25 24 23 22
42 42 42 43 44 44 44 43 41 40 39 39 39 38 37 36 36 35 34 33 33 34 33 32 31 30 29 28 28 28 28 27 27 27 26 26 26 26 26 26 25 24
42 42 42 43 44 45 45 44 43 41 40 40 40 39 39 38 37 36 35 35 35 35 35 34 33 32 31 30 29 29 29 29 29 29 28 27 27 27 27 27 26 25
43 42 43 44 44 46 46 46 45 43 42 41 41 41 40 39 38 38 37 37 37 37 37 36 36 34 33 32 30 29 29 30 30 30 30 29 28 28 29 29 27 26
44 43 43 44 44 45 47 47 47 45 43 42 42 42 41 40 39 39 39 39 39 38 38 38 37 36 35 34 33 31 30 31 31 30 30 30 30 30 30 30 29 27
45 44 42 43 44 45 46 48 48 47 46 44 43 42 42 41 40 40 40 40 39 39 38 38 38 38 37 36 35 33 32 31 31 31 30 30 31 31 30 30 29 27
46 44 42 42 43 44 46 48 49 49 48 46 45 44 43 42 41 41 40 40 40 39 39 39 39 40 39 38 37 35 33 32 32 32 31 30 31 32 31 30 30 28
47 45 43 42 43 45 47 48 49 50 49 48 47 46 45 43 42 41 41 41 40 40 40 40 40 41 40 39 38 35 33 33 33 33 33 32 31 32 32 31 31 29
48 46 45 44 45 46 47 48 49 49 50 49 48 47 46 44 43 42 42 42 41 41 41 41 41 41 41 40 37 34 32 32 32 33 35 34 32 32 33 33 31 30
49 48 47 47 47 47 47 48 48 49 50 49 48 47 46 45 44 44 43 42 42 42 41 41 41 41 41 39 36 32 30 30 30 32 36 36 33 32 34 33 32 30
50 49 48 48 48 48 48 48 48 49 50 50 49 48 46 46 45 44 43 42 42 41 41 41 40 40 40 38 33 28 29 30 30 32 36 37 35 33 33 33 33 32
51 50 49 49 49 48 48 48 49 50 51 50 49 47 46 46 45 44 43 43 42 41 41 40 40 39 39 36 31 27 28 30 31 32 35 36 34 33 32 32 32 32
51 51 50 49 49 48 48 49 50 51 50 49 48 47 47 47 45 44 43 42 41 41 40 39 39 38 37 34 29 27 27 28 29 31 34 34 33 31 31 32 33 33
51 51 50 49 49 49 49 49 50 50 50 49 48 48 47 46 45 44 43 42 41 40 39 38 38 37 36 32 28 25 25 25 27 30 32 33 32 30 30 32 34 34
51 50 50 49 49 49 49 49 50 50 49 49 48 47 47 46 45 44 42 41 40 39 38 38 37 36 34 30 27 24 24 25 28 31 33 33 31 30 30 30 32 33
50 50 50 50 49 49 49 49 49 49 49 48 48 47 46 45 44 43 42 41 39 38 38 38 37 35 33 29 26 24 24 25 27 30 33 33 30 28 29 29 31 31
52 50 50 50 50 49 48 48 47 47 48 48 48 47 45 44 43 42 41 40 38 38 37 37 36 34 32 29 26 25 24 24 27 30 32 31 28 26 27 28 29 29
52 51 51 50 50 49 48 47 46 46 47 47 47 46 44 43 42 41 40 39 38 37 36 35 35 33 31 29 27 26 25 23 25 29 31 29 27 25 25 27 28 27
53 52 51 51 50 49 48 47 46 46 46 46 45 44 42 41 41 40 39 39 38 37 35 34 33 31 29 28 26 26 24 23 24 27 29 28 25 24 25 27 27 25

ECMWFNIL_850_spd_039.txt.gz
Wind_Speed
41 39 39 40 40 39 38 38 37 36 34 33 32 30 28 27 27 26 25 24 24 24 22 21 20 19 18 15 14 14 13 14 14 15 17 18 16 16 17 17 17 17
43 41 39 39 40 39 38 38 38 37 35 33 32 30 29 28 27 26 26 24 24 24 23 21 21 20 19 16 15 15 14 15 15 16 19 19 17 17 17 17 18 18
45 43 42 40 39 39 39 39 39 38 36 34 33 32 30 29 28 27 26 25 25 25 23 22 22 21 20 18 17 16 15 15 16 17 19 19 18 18 18 18 18 19
47 45 43 41 38 38 39 39 40 40 39 37 35 33 32 31 30 28 27 27 27 26 24 24 23 22 21 20 19 18 17 16 16 17 19 19 19 19 19 19 19 20
47 46 44 42 40 38 39 41 41 41 40 40 38 35 34 33 31 30 29 28 28 27 26 26 25 24 23 22 21 20 19 18 18 19 20 20 20 21 21 20 20 21
48 47 45 43 41 39 40 41 41 41 41 41 39 38 36 35 33 32 30 30 29 29 28 28 28 27 25 24 23 23 22 20 19 20 21 22 21 22 22 23 22 22
49 48 46 44 42 41 40 41 41 42 42 41 40 39 38 37 36 34 32 31 31 30 30 29 29 28 27 27 26 25 24 23 21 21 22 23 23 24 24 24 24 24
50 48 46 44 43 42 41 40 42 42 42 41 41 40 40 39 38 36 34 33 33 33 32 31 31 30 29 29 28 27 25 24 24 23 23 24 25 26 26 25 25 25
51 49 47 45 43 42 41 41 41 42 41 42 42 41 40 40 39 37 36 35 34 34 33 32 32 31 31 31 30 28 27 26 25 25 24 25 26 28 27 27 26 25
52 50 49 47 45 43 42 41 41 41 42 41 41 41 41 40 40 39 38 37 36 35 35 33 33 32 33 32 31 30 29 28 27 26 26 26 27 28 28 28 28 27
53 51 50 48 46 44 42 41 40 41 41 41 41 41 41 41 40 40 39 38 38 37 36 35 34 33 34 34 33 32 31 30 29 28 27 27 28 29 29 30 29 28
53 52 51 49 47 44 43 41 41 41 41 42 42 42 41 41 40 41 40 40 39 38 37 36 35 34 34 34 34 33 32 32 31 30 30 29 29 30 30 31 31 30
53 52 51 49 47 45 43 42 41 41 41 42 42 42 41 41 41 41 41 40 40 39 38 38 36 35 35 35 35 35 34 34 33 32 32 31 30 30 31 31 31 31
52 51 50 48 46 45 44 43 42 41 41 42 42 42 42 41 41 41 40 40 41 40 40 39 38 37 36 36 36 36 36 35 34 34 33 33 32 31 31 32 32 32
52 50 49 48 47 46 45 44 43 42 41 42 43 43 42 41 41 41 40 41 42 41 41 40 39 39 38 37 36 36 36 35 34 34 34 34 34 33 32 32 32 32
52 51 49 48 48 47 46 45 44 43 42 42 43 43 43 42 42 42 42 42 43 42 42 41 41 40 39 38 37 36 35 34 34 34 34 34 34 34 34 33 33 32
52 51 50 49 48 48 47 46 45 44 43 42 42 43 43 43 43 43 43 43 43 43 43 43 42 41 40 39 37 35 34 33 33 33 33 34 34 34 33 32 33 32
53 52 51 50 49 48 48 47 45 44 44 43 43 43 43 44 44 44 45 44 44 45 44 44 43 41 40 39 37 35 32 32 32 31 32 34 34 32 30 29 31 31
53 52 51 51 50 49 48 47 46 45 45 44 44 43 43 44 44 44 45 45 45 45 45 44 43 42 41 39 37 33 30 30 30 31 34 35 33 32 30 28 30 30
53 53 52 51 51 50 49 48 47 46 45 45 45 44 44 44 44 45 45 45 46 45 44 44 43 42 41 39 36 31 28 28 30 32 35 36 34 31 31 31 31 30
54 53 52 51 51 51 50 49 49 47 46 46 46 46 45 45 45 44 44 45 45 44 44 44 43 42 41 39 35 30 26 27 30 33 36 37 34 31 31 31 32 30
55 54 52 51 51 51 51 51 50 49 48 47 47 46 46 46 45 45 44 44 43 43 44 44 42 41 40 38 34 28 26 29 33 34 36 37 34 30 29 30 31 29
54 54 52 52 52 53 53 52 51 51 50 49 48 47 47 47 47 45 45 44 42 43 43 42 41 40 39 37 33 28 28 33 35 34 35 34 31 28 28 29 30 27
54 53 52 52 53 54 54 53 52 51 51 50 49 48 47 47 46 45 44 43 42 42 41 40 39 38 37 36 31 27 30 33 32 31 33 31 28 27 26 26 28 25
53 53 52 52 53 54 54 53 52 52 52 51 49 49 48 47 46 45 45 44 42 41 39 39 39 38 36 34 29 27 31 32 30 30 32 30 27 26 26 25 25 24
52 52 52 53 53 54 53 53 52 51 51 51 50 50 48 46 46 46 45 44 42 40 39 39 38 37 34 31 27 28 30 31 30 30 30 28 25 25 25 24 23 23

ECMWFNIL_850_spd_042.txt.gz
Wind_Speed
39 37 36 37 38 37 36 34 33 33 33 33 33 31 30 28 27 26 26 26 26 25 24 22 19 19 19 18 18 17 16 15 14 14 15 15 15 14 14 14 14 14
41 39 38 37 37 36 35 34 33 32 32 32 32 31 30 29 28 27 26 26 27 26 24 22 20 20 20 20 19 18 17 16 15 15 16 16 16 15 15 15 15 15
44 42 40 39 37 35 34 33 33 32 32 31 31 32 31 30 29 28 27 27 27 27 25 22 20 20 21 21 21 20 18 17 16 15 16 16 16 16 15 15 16 16
46 44 42 40 38 36 34 33 34 33 32 32 32 32 32 31 29 29 28 28 28 27 25 23 21 21 22 22 22 22 20 19 17 16 17 17 16 16 16 16 17 17
47 45 44 42 40 38 36 35 34 33 32 33 32 32 32 31 30 29 29 28 28 28 26 24 22 22 23 23 24 24 22 21 19 18 18 17 17 17 17 17 17 17
48 47 45 44 42 40 39 37 35 33 33 32 32 33 33 32 31 30 29 29 29 28 27 26 24 23 24 25 25 25 24 23 21 20 20 19 18 17 18 18 18 18
50 48 47 45 44 42 41 39 37 35 33 32 32 33 34 33 32 31 30 30 30 30 29 28 26 24 25 26 26 26 26 25 24 23 22 21 19 19 19 19 19 19
50 49 48 47 45 44 43 41 39 36 34 33 33 33 34 34 33 32 32 32 31 31 30 29 28 26 26 27 28 28 27 27 26 25 24 23 22 21 21 21 21 20
50 49 48 48 47 46 45 43 40 38 36 35 34 33 34 35 35 34 33 33 33 32 31 31 30 28 28 28 28 29 29 28 28 27 26 25 24 23 23 22 22 21
51 50 49 49 48 47 46 44 41 39 37 36 35 34 34 35 35 35 35 35 35 34 33 33 32 30 30 30 29 30 30 29 29 28 27 27 26 25 24 24 23 23
52 51 51 50 49 47 46 44 42 40 38 37 36 35 35 36 36 37 36 36 36 35 35 34 34 32 32 31 30 30 30 30 30 29 29 28 27 27 26 26 25 24
52 52 51 50 49 47 46 44 43 41 40 38 37 36 36 37 37 38 38 38 37 36 35 35 35 34 34 32 31 30 30 30 30 30 29 29 29 28 28 27 26 26
53 53 52 51 49 47 45 44 43 42 41 39 37 37 37 38 39 39 39 38 38 37 36 36 35 36 35 33 32 31 31 30 30 30 30 29 30 30 29 28 27 26
53 53 51 50 48 46 45 44 43 43 41 39 38 38 38 39 39 40 39 39 39 38 37 37 36 37 36 35 33 32 31 30 29 29 29 30 31 31 30 30 28 27
53 53 52 50 49 47 45 44 44 42 41 40 39 39 39 39 40 40 40 40 40 39 39 38 38 38 37 35 33 32 31 30 29 29 30 30 31 31 31 31 29 29
53 53 52 51 50 48 46 45 44 43 41 40 40 40 40 40 40 40 41 42 41 40 40 40 40 39 37 35 33 32 31 30 29 29 30 30 31 31 31 30 29 30
53 53 53 52 51 49 47 46 45 43 42 41 41 41 41 41 41 42 42 43 43 42 41 41 41 39 36 34 33 32 31 29 29 29 29 30 30 30 29 28 28 29
53 53 53 52 51 49 48 46 46 44 43 42 42 42 42 43 43 43 43 44 44 43 43 43 42 39 36 34 33 32 30 29 28 28 29 29 29 27 26 26 26 27
53 53 53 53 52 50 49 48 47 46 45 44 44 43 43 44 44 44 44 45 45 45 45 44 43 40 37 35 34 31 30 29 28 28 28 29 27 24 23 23 25 28
52 53 53 53 52 51 50 50 49 48 47 45 44 44 45 46 46 45 45 45 46 45 45 45 43 40 38 37 34 32 30 29 27 28 29 27 25 23 23 24 28 30
52 53 53 53 52 51 51 51 51 50 49 47 47 47 47 46 46 46 46 46 46 45 46 46 44 41 39 37 35 33 31 29 28 29 28 26 26 27 26 27 30 29
52 52 52 52 51 51 51 51 51 51 50 49 48 48 48 48 47 47 47 47 46 46 46 46 44 42 40 38 35 34 32 30 29 28 25 25 28 30 28 28 29 27
51 51 51 51 51 51 51 51 51 51 50 49 49 49 50 50 50 49 48 48 47 47 47 46 44 42 40 38 36 36 34 31 29 26 24 26 29 30 29 28 26 25
50 50 51 51 51 51 51 50 50 50 50 49 49 49 50 50 50 49 49 49 49 48 47 46 44 42 40 38 37 37 35 31 27 25 25 27 29 29 28 27 25 24
48 49 49 50 51 51 50 49 49 49 49 48 48 49 49 49 49 50 51 51 50 50 48 47 45 42 40 39 39 38 34 30 27 27 28 28 28 28 27 25 24 22
47 48 49 49 49 48 48 48 49 49 49 48 47 48 48 48 49 50 51 52 52 51 50 48 46 44 42 41 40 37 33 29 27 28 28 28 27 26 24 24 22 20

ECMWFNIL_850_spd_045.txt.gz
Wind_Speed
37 36 35 34 34 34 34 34 34 33 33 31 30 28 27 26 24 23 23 23 22 22 22 22 21 20 18 17 16 15 16 16 15 13 13 13 12 12 11 11 11 11
39 38 37 36 35 33 32 33 33 34 34 32 31 30 29 28 26 25 25 24 24 23 23 23 22 21 20 18 17 16 17 17 16 15 14 14 14 13 13 12 12 12
40 39 38 37 36 34 33 32 32 32 32 32 32 31 30 29 28 27 26 26 25 25 25 24 23 23 21 20 18 18 18 18 17 16 15 14 15 14 14 13 13 13
41 40 39 38 37 35 34 33 32 30 30 31 31 31 30 30 29 27 27 27 26 26 26 25 24 24 23 21 20 19 19 19 19 18 17 16 16 16 15 15 15 14
42 41 40 39 38 37 36 35 33 31 30 29 29 30 30 29 29 28 28 28 27 27 27 26 25 25 24 22 21 20 20 20 20 20 19 18 17 17 17 16 16 15
44 43 42 41 40 39 38 37 35 33 31 29 29 30 30 30 29 29 29 29 28 28 29 27 26 26 25 24 23 22 21 21 21 21 21 20 18 18 18 17 17 17
45 44 43 43 42 41 40 39 37 35 33 30 30 29 30 30 31 30 30 30 30 30 30 28 27 27 26 25 24 23 22 22 22 22 22 22 21 19 19 18 18 17
44 44 43 43 43 43 42 41 39 37 34 33 32 31 30 30 31 32 32 31 31 32 31 29 29 28 27 27 26 25 23 23 23 23 24 23 23 22 21 20 19 18
44 44 43 43 43 43 43 42 41 38 36 35 34 33 32 31 31 32 33 33 33 33 33 31 30 29 29 29 28 26 25 25 24 24 24 24 24 23 22 21 20 18
46 45 44 44 44 44 43 42 41 39 38 37 35 35 34 33 32 32 33 34 35 35 35 33 32 31 31 30 29 28 27 26 25 25 25 25 25 24 23 22 21 20
48 47 46 46 46 45 44 43 42 41 39 38 37 37 36 34 33 33 34 36 37 37 36 35 34 33 33 32 31 30 29 28 27 26 25 25 25 25 24 23 22 21
50 49 48 47 46 45 44 43 43 42 40 39 38 38 37 36 36 35 36 37 38 38 38 36 35 35 34 34 33 32 31 30 29 28 27 26 25 25 25 24 23 22
51 49 48 48 47 45 45 44 43 42 41 40 39 39 39 38 37 37 37 37 38 39 39 38 37 36 36 35 35 34 33 32 30 29 28 27 27 26 25 24 24 23
50 49 49 48 47 46 45 45 44 43 42 41 40 40 40 39 38 38 38 38 38 39 40 39 39 38 38 37 37 36 35 33 32 31 30 29 28 27 25 25 24 24
49 49 50 49 49 47 46 46 45 44 43 42 41 41 40 40 39 39 39 39 39 39 40 41 41 40 40 40 38 37 36 35 33 33 31 30 29 28 27 25 25 24
50 50 50 50 49 48 47 46 46 45 44 43 42 41 41 41 40 40 41 41 40 40 41 42 43 43 42 41 40 38 36 35 34 34 32 32 31 30 28 26 25 24
50 50 50 50 49 48 47 47 46 46 45 44 43 43 42 42 42 42 41 41 41 41 42 44 45 44 43 42 40 38 37 35 34 34 33 33 33 31 29 27 25 24
50 50 50 49 49 48 48 47 46 46 46 45 45 44 43 44 43 42 42 42 42 43 43 45 46 44 43 42 40 39 37 36 34 34 34 35 34 32 29 27 25 25
50 50 50 49 49 49 48 47 47 47 47 47 46 44 44 45 44 43 43 43 44 44 44 45 46 45 44 43 41 39 38 36 34 34 35 35 34 31 29 27 27 26
50 50 49 49 49 49 49 48 48 48 48 48 47 46 46 46 45 44 45 45 45 45 45 45 46 46 45 44 42 41 38 36 35 34 35 36 34 30 28 28 28 27
50 50 50 50 50 50 49 49 49 49 48 49 49 48 48 47 46 45 45 45 45 46 46 46 46 47 47 45 43 41 39 37 36 35 36 36 34 30 29 29 29 28
49 49 49 49 49 49 49 49 49 49 49 49 49 48 49 48 47 46 46 46 46 47 47 47 47 47 48 46 44 42 40 38 37 37 37 38 35 31 29 30 30 29
46 47 47 48 48 49 50 49 49 49 49 49 48 48 49 49 48 48 47 46 47 47 47 48 47 47 48 47 44 41 40 40 39 38 39 39 36 32 30 30 31 31
42 44 45 46 48 48 49 49 49 49 49 49 48 48 49 49 48 49 48 47 47 47 47 48 47 46 47 47 44 42 41 41 40 39 40 41 38 34 32 31 32 32
40 43 44 45 45 46 48 48 48 48 48 49 49 49 49 49 49 49 48 46 46 47 47 47 47 47 48 47 45 43 42 41 41 40 41 41 39 36 34 33 34 33
41 43 43 42 43 44 45 46 46 47 47 48 49 49 50 51 51 52 51 49 48 47 48 49 48 47 48 48 46 43 41 40 40 41 41 41 40 37 35 35 36 34

ECMWFNIL_850_spd_048.txt.gz
Wind_Speed
41 40 40 39 39 37 36 35 34 33 32 31 30 29 27 26 26 25 25 24 22 21 21 22 20 19 18 16 14 14 14 14 13 11 11 12 12 12 12 11 11 11
43 41 41 40 40 39 37 37 36 34 33 32 31 29 28 27 27 27 27 26 23 22 22 22 21 20 19 17 16 16 16 16 15 12 12 13 14 14 14 13 13 13
44 42 42 42 40 38 37 36 36 35 33 33 32 31 30 29 29 29 28 28 26 24 24 23 22 21 20 19 18 18 17 17 15 13 12 14 15 15 15 15 15 14
45 43 43 42 39 38 37 36 35 34 33 33 32 32 32 31 30 30 30 30 29 28 27 26 24 23 22 21 20 20 19 18 17 16 13 14 17 16 16 16 16 16
46 45 45 43 40 39 38 37 36 35 33 33 32 32 32 32 32 32 32 32 31 31 30 29 27 25 24 23 22 22 21 20 20 19 16 15 17 18 17 18 18 18
48 48 46 44 42 40 40 39 38 37 35 34 32 32 32 32 33 33 33 33 33 33 32 32 30 27 26 25 24 24 23 21 21 22 20 18 18 19 19 19 19 20
49 48 46 45 43 42 42 40 39 38 37 35 34 33 32 31 32 33 34 34 34 34 34 33 32 29 28 27 26 25 25 23 23 24 22 21 21 21 21 21 20 21
48 48 46 45 44 44 43 41 40 39 38 37 36 35 33 32 32 33 34 34 34 35 35 34 33 31 29 29 28 27 26 25 25 25 23 23 24 24 23 23 22 22
48 48 47 46 46 45 44 42 41 40 39 38 37 36 35 34 33 33 34 35 35 35 36 35 34 33 31 30 30 29 28 27 27 26 24 24 26 25 24 24 24 24
48 48 48 47 47 47 46 44 42 42 40 39 38 38 38 37 35 34 34 35 36 37 37 37 36 34 33 32 32 31 29 29 29 27 26 26 26 26 25 25 25 25
47 47 47 47 47 47 46 45 44 44 43 41 40 40 40 39 37 36 36 36 37 37 38 38 38 36 35 34 34 33 31 30 30 29 28 27 27 27 26 26 26 26
47 46 46 45 45 45 45 44 44 44 44 43 41 40 41 41 40 38 38 38 37 37 38 38 39 38 37 36 35 34 33 32 32 31 29 28 28 28 28 27 28 28
48 47 45 45 44 44 43 43 42 43 44 43 41 40 41 41 41 40 40 39 38 38 38 38 38 39 38 37 36 36 35 34 34 33 31 30 30 29 29 29 29 29
49 47 46 46 46 45 44 44 43 43 43 43 42 41 40 41 41 41 40 39 39 39 39 38 38 39 39 39 39 39 38 37 36 35 33 32 32 31 31 30 30 30
49 47 47 47 47 47 46 45 45 45 44 44 44 43 41 41 41 41 40 40 40 40 40 40 40 41 41 41 40 41 41 39 38 37 35 34 34 33 33 32 31 31
49 47 46 47 48 48 48 46 46 46 46 46 45 44 43 42 41 41 41 41 41 41 41 41 42 42 43 42 42 42 41 41 40 39 37 36 36 35 35 34 33 32
49 47 47 47 47 48 47 47 46 46 46 46 46 45 44 43 42 42 42 42 43 43 43 43 43 44 44 43 43 42 41 41 41 40 38 37 37 38 37 36 35 33
48 47 47 46 47 47 47 46 46 46 47 47 47 46 45 44 44 43 42 43 44 45 45 45 45 44 44 44 43 42 41 40 40 40 39 38 38 38 38 37 36 35
46 46 46 46 47 46 46 46 46 46 47 47 47 46 45 45 46 45 44 44 45 46 47 46 46 45 44 43 43 42 41 39 39 39 39 38 39 39 39 38 37 36
44 45 45 46 46 46 46 47 46 46 47 47 47 47 47 47 47 47 46 45 46 47 47 47 47 47 45 44 43 42 41 39 38 38 37 38 39 40 39 39 38 38
43 43 44 45 46 47 47 47 47 46 47 47 48 48 48 47 48 48 47 46 46 47 48 48 48 48 47 45 43 43 42 39 38 38 39 40 41 41 41 40 39 38
43 43 43 44 46 46 47 47 46 46 46 46 46 47 47 47 48 48 48 48 47 44 45 49 49 48 49 48 45 44 43 40 39 40 41 42 43 42 43 41 38 37
44 44 44 44 45 45 46 45 44 44 44 44 45 46 47 48 48 48 48 48 47 44 45 49 49 48 49 49 47 46 45 43 42 41 41 43 44 44 44 43 42 40
42 42 41 41 42 42 42 42 42 43 44 44 45 45 47 47 47 47 47 47 48 47 47 48 47 46 47 49 49 48 46 45 44 42 42 44 45 45 45 43 42 42
38 38 38 40 40 40 41 42 41 42 42 43 44 44 45 46 46 47 47 47 47 47 46 46 45 44 46 48 49 48 46 46 45 43 44 45 45 47 46 39 36 38
35 36 38 39 39 39 40 40 40 42 42 42 43 43 43 44 45 45 45 45 45 43 43 45 46 45 45 47 49 48 46 46 45 44 45 46 46 48 47 38 31 32

ECMWFNIL_850_spd_051.txt.gz
Wind_Speed
39 39 39 38 37 36 35 35 34 33 32 30 29 28 27 27 26 23 23 23 21 19 20 20 19 19 18 17 17 15 15 16 14 14 15 15 13 12 14 15 14 14
41 40 40 39 38 38 37 36 36 35 34 33 30 28 28 28 27 26 26 26 24 20 20 21 20 20 20 19 19 17 17 18 17 16 17 16 15 14 15 16 16 16
42 42 42 41 40 39 38 37 37 36 36 35 33 31 29 28 28 28 27 27 27 24 22 21 20 20 20 21 20 18 18 18 19 18 18 18 17 16 16 16 17 17
43 43 43 42 41 40 39 39 38 38 37 36 35 33 31 30 29 29 29 28 29 28 26 24 22 21 20 21 21 20 18 18 19 20 20 20 19 17 17 17 18 18
44 43 43 43 42 41 41 40 40 40 39 38 36 35 34 32 31 30 30 30 30 29 28 27 26 25 23 22 22 22 20 19 19 21 22 22 21 19 18 19 20 20
45 45 44 43 43 43 43 43 42 41 40 39 37 36 35 34 34 33 32 31 31 30 29 28 28 28 26 25 24 23 23 21 20 21 23 24 22 20 19 20 22 22
47 46 45 44 44 44 45 44 43 42 41 39 37 36 35 35 35 34 33 33 32 31 31 31 31 31 29 28 27 26 25 23 22 23 24 24 24 22 21 21 23 24
49 48 46 46 45 45 46 46 44 43 42 40 38 37 36 36 36 35 34 33 32 32 32 31 32 32 31 31 30 29 27 26 25 25 24 24 24 23 23 23 24 25
50 50 49 48 47 47 47 46 46 45 43 41 40 39 37 37 37 35 35 33 32 32 32 31 31 32 32 32 32 32 30 28 27 27 26 26 25 24 24 25 26 26
51 51 50 49 49 48 48 47 46 44 43 43 41 39 38 38 38 37 36 36 34 32 32 31 31 32 33 33 33 34 33 30 29 28 29 29 28 26 26 27 27 28
50 51 51 51 50 49 48 48 46 42 41 43 43 41 39 39 39 39 39 38 37 35 33 33 33 35 35 34 34 35 34 33 31 30 30 30 30 28 28 28 29 29
50 51 51 51 50 49 48 47 44 40 38 39 42 43 41 39 39 40 40 39 38 37 35 35 35 36 37 36 35 35 36 35 33 32 32 32 31 30 29 30 30 30
49 50 50 50 50 49 48 46 43 41 38 36 37 40 42 40 38 39 41 40 39 38 37 36 36 36 38 38 38 37 37 36 35 34 33 33 33 32 32 32 32 31
48 48 48 48 48 48 48 46 44 41 39 37 36 37 40 41 38 38 40 41 40 39 39 38 38 38 39 40 40 39 38 37 37 36 34 34 33 34 34 33 32 32
47 46 46 46 46 46 46 46 44 43 41 39 38 36 37 39 38 36 37 41 42 41 40 40 40 40 41 41 41 41 40 39 39 38 37 35 32 33 35 35 33 33
47 46 46 45 45 46 45 45 44 44 42 41 39 37 36 37 37 35 34 37 41 42 41 41 42 43 43 42 42 42 42 41 40 39 39 37 34 34 37 37 35 34
48 47 46 46 46 46 46 45 44 44 43 42 41 40 38 37 38 37 35 34 36 40 42 42 43 44 45 44 42 42 42 42 42 41 40 39 38 38 40 39 38 37
48 48 48 47 47 46 46 46 45 45 45 44 44 44 42 41 41 42 41 37 34 35 38 42 43 44 45 45 43 43 43 43 43 42 42 41 40 40 42 42 41 40
47 48 48 47 47 46 45 45 45 45 45 46 46 45 44 44 45 45 45 43 39 36 36 39 42 44 45 45 44 43 43 43 43 43 43 43 41 40 42 44 45 44
45 46 46 46 46 45 44 44 44 44 43 44 44 44 44 45 46 46 45 46 45 41 39 38 40 42 45 45 45 44 43 43 43 44 44 44 43 42 43 45 46 47
45 44 44 44 44 44 44 43 43 42 42 42 43 43 44 45 45 46 46 46 46 44 43 41 41 41 43 45 44 43 43 42 42 44 45 45 45 46 46 46 46 47
44 43 43 43 42 42 42 42 42 42 41 41 42 41 42 43 43 45 45 45 45 45 44 45 43 42 43 45 45 43 41 41 42 43 45 46 46 46 46 47 48 48
43 42 42 42 41 41 41 41 41 41 40 41 41 41 40 41 41 42 42 42 43 44 45 46 44 42 43 44 45 44 42 41 42 43 44 47 47 46 44 44 47 49
40 40 40 41 40 41 40 40 39 39 39 39 40 39 38 37 36 35 37 39 40 40 41 42 41 41 42 43 44 44 43 42 43 43 45 47 49 50 48 45 44 47
37 37 38 39 39 39 39 38 38 38 37 37 37 37 36 34 31 31 32 33 35 35 36 38 38 38 40 42 43 43 43 43 43 45 47 49 50 51 52 51 47 44
34 34 35 36 36 36 36 36 36 35 35 35 35 34 33 31 29 29 29 29 30 30 31 34 35 35 37 39 41 41 42 43 43 45 48 50 51 50 51 53 52 43

ECMWFNIL_850_spd_054.txt.gz
Wind_Speed
37 37 36 35 34 33 32 32 30 29 28 27 27 26 26 25 23 22 21 21 20 19 20 20 18 17 17 17 17 18 17 15 13 13 14 14 12 11 12 11 11 12
38 38 37 37 36 35 34 33 32 31 30 29 27 26 25 25 24 23 22 22 21 20 20 20 19 18 18 18 19 19 19 17 15 15 16 16 15 14 14 14 13 13
40 39 39 38 38 37 36 35 34 33 31 30 28 27 25 24 25 25 24 24 23 22 20 20 20 20 19 20 20 20 21 20 18 17 18 18 18 17 16 16 16 16
41 41 41 40 39 38 37 36 36 35 33 32 31 29 27 26 25 25 25 25 26 25 24 22 21 21 20 20 22 22 22 21 19 19 20 20 20 19 19 18 18 19
42 42 41 41 40 39 38 38 37 37 35 34 32 31 30 28 27 26 25 26 27 27 26 24 23 22 22 21 23 23 23 23 21 21 22 22 22 22 21 21 20 21
43 43 42 42 41 40 40 40 39 38 37 35 34 32 31 30 29 28 27 27 27 28 28 27 25 24 24 24 24 24 24 24 23 23 23 23 23 23 24 23 23 22
44 44 43 43 42 41 41 41 40 39 37 36 34 33 32 31 31 30 29 28 27 28 28 28 27 26 26 26 26 26 26 25 25 25 25 25 25 25 25 25 25 24
45 44 43 43 43 43 43 42 40 39 38 36 35 34 33 33 32 32 31 30 29 28 29 28 28 28 28 28 28 28 28 27 27 27 27 26 26 27 26 26 26 25
46 45 44 44 44 45 44 43 42 40 39 38 36 35 34 34 33 32 32 32 31 31 30 30 29 30 30 30 30 30 30 29 29 29 29 28 28 28 28 27 28 27
47 46 46 45 45 45 44 43 43 42 41 40 38 36 35 34 34 33 33 33 33 33 32 32 32 32 32 32 32 32 32 32 31 31 31 31 30 30 29 29 28 29
48 47 47 47 46 46 45 44 44 43 42 40 40 39 36 35 35 35 34 34 34 34 34 34 33 33 34 34 34 34 33 33 33 33 33 33 32 31 31 30 30 29
49 49 48 48 47 46 45 45 44 43 42 41 40 39 38 36 36 36 36 36 35 35 35 35 35 34 35 35 35 35 34 34 34 34 33 34 33 33 32 32 31 30
49 49 49 48 48 46 45 44 43 43 42 40 40 39 38 37 37 37 37 37 37 36 36 36 36 35 35 35 35 35 35 35 35 34 34 34 34 34 34 33 33 32
48 48 48 48 47 46 45 43 42 42 40 39 37 37 37 36 36 36 37 37 37 37 37 37 37 37 37 36 36 36 36 36 36 36 35 35 35 35 35 35 35 35
46 46 46 46 46 46 46 44 42 41 40 39 38 36 36 35 34 34 35 36 37 37 38 38 38 38 38 38 38 37 37 38 38 38 37 36 36 36 36 37 36 36
43 45 45 45 46 46 45 45 44 42 40 39 39 38 36 35 34 33 33 35 36 37 38 38 39 39 39 39 39 39 39 39 39 39 39 38 37 37 38 38 37 37
42 43 44 44 45 45 45 45 44 43 42 41 40 39 39 38 36 34 34 34 36 38 39 40 40 40 40 40 40 40 40 40 40 40 40 40 40 39 40 39 39 39
43 43 43 43 43 44 45 44 44 44 44 43 42 41 40 40 39 38 37 36 36 37 39 40 41 41 41 40 40 40 40 40 41 41 41 42 42 42 42 41 41 41
43 43 44 44 43 43 44 44 44 44 44 44 43 42 41 42 42 42 41 39 38 38 39 40 40 39 40 40 40 40 40 40 41 42 42 43 43 43 43 43 43 43
43 43 44 44 44 43 43 43 44 44 44 43 43 42 43 44 44 43 43 42 41 41 41 40 40 39 39 39 39 39 39 40 41 43 44 44 45 44 44 44 45 45
42 43 43 44 44 43 42 43 43 43 43 43 43 43 44 44 44 44 44 43 42 42 42 42 41 41 40 40 39 38 38 39 40 43 45 46 46 46 45 45 45 45
42 42 43 43 42 42 42 43 43 43 43 42 42 42 42 43 44 44 43 43 43 42 43 44 44 42 42 43 42 40 39 38 39 41 44 47 47 47 46 46 46 45
42 42 42 42 41 42 42 42 42 42 41 41 41 41 41 42 43 43 43 43 43 44 45 46 46 44 42 42 42 42 40 40 40 40 42 45 48 48 47 46 46 46
41 41 41 41 41 41 41 41 41 40 40 40 39 39 40 39 39 39 41 42 43 44 44 45 45 44 43 43 42 42 42 42 42 41 41 44 46 47 48 47 47 48
39 39 39 40 40 40 39 39 39 38 38 38 38 38 38 37 35 35 36 37 38 39 40 41 41 41 41 42 41 41 42 43 42 42 43 45 45 46 47 48 48 48
37 38 37 37 38 38 38 37 36 36 35 35 35 35 35 34 34 33 33 32 32 32 33 34 36 36 36 37 38 38 40 42 42 43 45 45 45 45 46 48 49 49

ECMWFNIL_850_spd_057.txt.gz
Wind_Speed
38 37 36 34 33 32 32 32 31 31 30 30 28 26 24 22 19 18 18 17 17 17 17 17 17 17 17 16 16 16 16 14 13 12 11 9 9 9 9 10 10 10
40 39 37 36 34 33 33 33 32 31 31 30 29 27 26 24 21 20 19 18 18 17 18 18 18 18 18 18 18 18 17 16 15 14 14 12 11 11 11 11 12 12
41 40 39 38 36 35 34 34 33 32 31 30 29 29 27 26 24 21 20 20 19 18 18 19 19 19 19 19 20 20 19 18 17 16 16 15 13 13 13 13 14 15
42 41 40 39 37 36 35 35 34 33 32 31 30 29 28 27 25 24 22 21 21 20 19 19 19 20 20 20 21 22 21 20 19 18 18 18 16 15 15 15 15 16
44 42 41 40 39 38 37 36 36 34 34 33 31 29 29 28 27 25 24 23 22 21 20 20 19 20 21 21 21 22 23 22 21 21 21 20 19 18 17 18 18 18
46 44 43 42 41 40 38 37 36 35 35 34 32 31 30 29 28 27 25 24 24 23 22 22 21 21 21 22 22 23 23 24 24 23 24 23 22 21 20 20 21 21
47 46 45 44 43 41 40 38 37 36 36 35 34 33 31 30 29 28 27 26 25 25 24 24 23 23 23 23 24 24 24 24 25 25 26 25 25 24 23 22 22 22
47 46 46 45 44 43 42 40 39 38 36 36 35 34 33 32 31 30 29 28 28 27 26 26 25 25 25 25 25 26 26 26 26 26 26 26 26 26 25 24 24 24
48 47 46 46 45 45 43 41 40 38 37 37 36 36 35 34 33 32 31 30 30 29 28 28 27 27 27 27 27 27 28 28 28 28 27 27 28 27 27 26 26 26
49 48 47 47 46 46 44 42 41 40 39 38 37 37 36 35 34 33 32 32 32 31 31 31 30 29 29 29 29 29 29 29 30 30 29 29 29 28 28 28 28 28
50 49 48 48 47 46 44 43 42 41 40 39 38 38 37 36 36 35 33 33 33 33 33 33 33 32 31 30 30 30 30 30 31 31 31 30 30 29 29 29 29 29
50 50 49 48 47 46 45 44 43 42 41 40 39 38 38 37 36 36 35 34 34 34 35 35 34 34 33 33 32 32 32 32 32 33 33 33 32 32 31 31 31 31
51 50 49 49 48 46 45 44 43 42 42 41 40 39 38 38 37 37 36 36 35 35 35 35 35 35 36 35 34 34 34 34 34 34 35 35 35 34 33 33 33 33
51 49 48 48 47 46 45 45 44 43 42 41 40 40 39 39 39 38 38 37 37 36 36 36 37 37 37 37 36 36 36 36 35 35 36 36 37 36 35 35 35 35
50 49 48 48 47 47 46 45 44 44 43 42 42 41 40 40 39 39 39 39 38 38 37 37 38 39 39 39 38 37 37 38 37 37 36 37 37 38 38 38 38 38
48 48 48 48 48 48 46 45 44 44 43 43 43 42 41 40 39 39 39 40 40 39 39 39 40 40 41 40 40 39 38 38 39 39 38 38 38 39 39 40 40 40
47 47 48 48 48 47 47 45 45 44 44 44 43 42 42 41 40 39 39 40 39 39 39 40 40 40 40 41 41 40 39 39 40 40 39 39 39 39 40 40 40 40
46 45 46 47 48 47 47 45 45 45 45 44 44 43 42 41 41 40 40 39 39 39 40 40 40 39 39 39 39 39 39 40 40 41 41 41 40 40 39 39 40 40
45 44 44 45 46 47 46 46 46 46 45 45 45 44 43 42 42 41 40 40 40 40 40 40 39 39 38 38 37 37 38 39 40 41 43 43 42 41 41 40 40 40
44 44 44 44 44 44 46 46 47 46 45 45 45 44 44 44 43 42 41 41 41 41 41 41 40 40 39 38 37 36 36 37 39 40 42 44 45 44 44 43 42 41
45 44 44 43 43 43 44 46 46 46 45 45 45 45 45 44 44 44 43 42 42 42 42 42 42 41 40 40 39 38 37 37 38 39 42 44 45 46 46 46 45 45
46 45 44 43 42 42 43 44 45 46 45 44 45 45 45 45 45 44 44 44 43 43 44 44 44 43 43 42 41 39 37 36 37 38 39 42 44 45 46 47 47 47
45 45 44 43 42 43 43 43 44 44 44 44 44 45 45 45 45 45 45 44 44 44 45 46 45 44 44 43 42 39 37 37 37 37 38 40 41 42 43 45 46 47
42 44 45 44 43 43 43 42 42 42 43 43 44 45 45 45 45 45 45 45 45 46 46 46 46 45 44 43 41 38 35 35 36 37 38 40 40 39 40 42 44 46
39 41 44 44 43 43 42 41 41 41 41 41 43 44 44 44 44 44 45 45 45 45 45 45 45 44 43 43 41 39 36 34 33 35 38 39 39 39 39 41 43 45
37 38 41 42 43 42 40 40 39 39 39 39 40 41 42 42 42 43 43 43 43 43 43 43 43 42 41 40 39 38 38 37 37 38 39 38 38 39 40 42 42 43

ECMWFNIL_850_spd_060.txt.gz
Wind_Speed
42 42 41 39 39 37 35 33 31 30 29 27 26 24 24 22 22 22 21 20 20 20 20 19 19 18 18 17 17 17 17 15 14 12 12 12 12 12 11 11 11 12
43 41 40 39 39 38 36 35 32 30 29 28 26 24 22 22 21 21 21 20 19 19 19 20 19 19 19 18 18 18 18 17 15 14 14 13 13 13 12 11 11 12
44 42 40 39 38 37 36 35 33 31 29 29 28 25 24 23 22 21 21 20 19 18 18 19 19 19 19 19 19 19 19 19 17 16 15 14 14 14 13 12 12 13
45 44 42 40 38 37 36 35 34 32 31 30 29 27 26 25 24 22 22 21 20 19 19 19 19 19 19 19 20 20 20 19 18 17 17 17 16 15 14 15 15 15
47 45 44 42 39 38 37 37 36 34 33 31 30 29 28 27 25 24 23 23 22 21 20 20 20 20 20 20 21 21 21 20 20 19 20 19 18 17 16 17 17 17
48 47 45 44 42 40 39 38 37 36 34 33 32 31 30 28 27 25 24 24 24 23 23 22 22 22 21 22 22 23 23 22 21 21 22 21 20 20 19 19 20 20
48 47 46 45 44 43 42 40 39 37 36 34 33 32 31 30 29 27 26 25 25 25 24 24 24 23 23 23 23 24 24 24 23 23 24 23 22 23 22 22 22 22
48 48 47 46 45 44 44 42 40 39 37 36 35 34 33 32 31 29 28 27 27 26 26 26 25 25 24 24 25 25 25 25 25 25 25 24 24 25 25 25 25 25
48 48 48 47 46 46 45 44 42 40 39 38 37 35 34 33 32 31 30 29 28 28 27 27 27 26 26 27 27 27 27 27 27 27 26 26 26 26 25 26 27 27
48 48 48 48 47 47 46 44 43 42 41 40 39 37 36 35 33 33 32 31 30 29 29 29 28 28 28 28 29 29 28 28 29 29 29 28 28 27 27 27 28 28
46 47 48 48 48 47 47 45 44 43 42 41 40 40 38 37 36 35 34 33 32 31 31 31 30 30 30 30 30 30 30 30 30 30 31 31 30 29 29 29 29 29
45 46 47 47 48 47 46 46 45 44 43 42 41 41 40 39 38 37 36 35 34 33 33 32 32 31 31 31 31 31 31 31 32 32 32 33 33 32 32 31 31 31
45 45 45 45 46 46 46 45 45 45 44 43 41 41 41 40 40 39 38 37 36 35 34 34 34 33 33 33 32 33 33 33 34 34 34 34 34 34 34 34 33 32
45 44 43 44 44 45 45 45 45 45 44 43 42 42 42 41 40 40 39 38 37 37 36 36 36 36 35 34 34 34 34 35 35 36 36 36 35 35 35 36 36 35
44 44 44 44 44 45 45 45 45 45 44 44 43 42 42 41 41 40 40 40 39 39 38 38 38 38 37 36 35 35 35 36 36 36 38 38 37 37 37 37 37 37
44 44 44 45 45 46 46 46 46 46 45 45 44 43 42 41 41 41 41 41 41 40 39 39 40 39 38 37 36 36 36 37 37 37 38 39 39 39 38 38 37 37
44 44 45 45 46 46 46 46 46 46 47 46 45 44 43 42 42 42 42 42 42 41 40 40 41 40 38 38 37 37 38 39 39 39 39 39 40 40 40 39 38 38
44 44 44 45 46 46 46 46 46 47 47 47 47 45 44 44 43 43 43 43 42 42 42 41 41 39 39 38 38 38 38 39 40 40 40 40 40 40 40 40 40 40
41 41 42 43 44 45 46 46 47 47 48 48 47 46 45 45 44 44 44 44 44 44 43 42 41 39 39 39 38 37 37 38 39 39 40 40 40 40 41 41 41 41
40 40 40 40 40 41 43 45 47 47 48 48 47 47 47 46 46 45 44 45 45 45 44 43 42 40 39 38 38 37 36 36 37 38 39 40 40 40 40 40 41 41
39 39 38 38 37 38 40 42 44 46 47 47 47 47 48 47 47 46 45 45 45 45 45 44 42 40 39 38 37 36 35 35 36 37 38 39 40 40 40 40 41 41
40 39 38 37 37 37 39 40 41 43 44 45 46 47 47 47 47 47 46 46 45 45 45 45 43 41 40 38 36 35 35 35 36 37 38 39 39 39 40 40 40 41
40 39 39 38 37 38 39 38 38 39 40 42 44 45 46 47 48 47 47 47 46 46 46 45 43 41 40 39 38 36 36 36 36 37 38 39 39 39 39 40 40 39
40 40 39 39 39 39 39 38 37 37 37 38 40 42 43 44 45 46 46 47 47 47 47 46 45 43 42 41 40 38 37 37 37 38 39 40 40 39 39 40 40 40
39 40 40 39 40 39 39 38 37 36 36 36 37 39 39 40 42 43 45 46 46 47 47 47 46 44 43 42 41 40 39 39 38 39 40 40 40 40 40 40 40 39
39 40 40 40 39 39 38 38 37 36 36 37 37 38 38 39 39 41 42 43 44 45 46 46 46 44 43 42 41 40 39 39 39 40 41 41 40 40 40 39 38 38

ECMWFNIL_850_spd_063.txt.gz
Wind_Speed
42 42 42 41 39 37 35 34 33 31 30 28 27 26 24 24 23 22 21 21 21 21 20 20 19 19 19 18 18 18 18 17 16 15 15 15 14 14 14 13 13 14
43 42 41 41 40 38 36 35 34 33 31 29 27 25 24 24 24 23 22 22 22 21 21 20 20 20 20 19 19 19 18 18 17 16 16 16 15 15 15 14 13 14
43 43 42 41 40 38 36 35 35 34 33 31 28 26 23 23 24 23 23 24 23 22 21 21 21 21 21 20 20 20 20 19 18 17 17 17 16 16 16 15 14 14
43 43 43 42 40 38 37 36 36 35 35 33 30 27 24 23 23 23 24 24 23 22 22 22 22 22 22 22 22 21 21 20 19 18 18 18 17 17 16 16 16 16
42 42 42 42 41 40 39 38 37 36 35 34 32 29 26 24 23 23 23 23 22 21 21 22 22 23 23 23 23 22 22 22 21 20 20 19 19 18 17 17 18 18
42 41 41 40 40 41 40 38 37 36 35 34 33 31 28 26 25 25 24 23 22 21 21 22 22 22 23 23 23 23 22 22 22 21 22 21 20 19 19 19 20 20
41 41 41 40 40 40 40 39 37 36 35 34 34 33 30 28 27 27 26 25 24 23 22 23 23 23 23 23 24 24 23 23 22 23 23 23 22 21 21 21 22 22
41 40 40 41 41 40 40 39 38 36 35 35 35 34 32 30 29 28 28 27 26 25 24 24 25 24 24 24 25 25 24 24 24 24 24 24 24 23 22 23 23 23
42 41 41 41 41 41 41 40 39 37 36 36 35 34 33 32 31 30 29 29 28 27 26 26 26 26 26 26 27 26 26 26 25 25 25 24 24 24 23 23 24 25
43 42 41 42 42 42 41 40 39 38 38 37 36 35 34 33 32 32 32 31 30 29 29 28 28 28 28 28 28 28 28 27 27 27 26 26 25 24 24 24 25 25
43 42 42 42 42 42 42 41 40 39 39 38 37 37 36 35 34 34 34 33 32 32 31 30 30 30 29 29 29 29 29 29 29 29 29 29 28 28 27 26 27 26
43 43 42 41 41 41 41 40 41 40 40 39 38 37 37 37 36 36 35 35 34 33 32 32 32 31 31 31 30 30 30 30 30 30 30 31 31 31 31 30 30 30
43 42 41 40 39 39 39 40 40 40 40 39 38 38 38 38 38 37 36 36 35 35 34 34 33 33 33 32 32 31 31 31 31 31 32 32 32 32 32 32 32 32
43 41 40 39 39 39 39 39 40 40 39 38 38 38 38 38 38 38 37 37 36 36 36 35 35 35 35 34 34 33 33 33 33 33 33 33 33 33 33 33 33 33
43 42 41 40 39 39 39 40 40 39 39 39 39 39 38 38 38 38 38 38 37 37 37 37 37 37 37 36 35 35 35 34 34 34 34 34 34 34 34 34 34 34
43 42 41 40 40 39 39 39 39 39 40 40 39 39 38 38 38 39 39 39 39 38 38 38 39 38 37 37 36 36 36 35 35 35 35 35 35 35 35 35 34 34
44 43 42 41 41 39 39 39 39 39 39 39 40 40 39 38 39 39 40 40 39 39 39 40 40 39 38 37 37 37 36 36 36 36 36 36 36 36 36 35 35 35
43 43 43 42 41 40 39 38 38 38 39 39 40 40 39 39 40 40 40 40 40 40 40 41 40 39 38 37 37 37 36 36 37 37 38 38 37 37 37 36 36 36
43 43 43 42 41 40 39 38 38 39 39 39 39 39 39 40 40 40 40 40 40 41 41 41 41 39 38 38 37 37 36 37 37 38 39 39 38 38 38 37 37 37
42 42 42 41 40 39 38 38 39 38 38 38 38 38 39 40 40 40 40 40 41 41 41 41 41 40 39 38 38 37 37 38 38 38 39 39 39 39 39 38 38 37
41 41 40 39 38 38 38 38 38 37 37 37 37 38 39 39 40 40 40 41 41 41 42 42 41 40 40 39 39 38 38 39 39 38 39 39 39 39 39 39 38 38
39 39 38 38 37 37 37 37 36 35 35 35 35 36 37 38 39 39 40 41 41 41 42 42 40 39 40 40 39 38 39 39 39 38 38 38 38 38 38 38 38 39
38 37 37 36 36 36 36 35 34 33 32 32 33 34 35 36 36 37 38 39 40 41 42 42 41 39 39 39 38 39 39 39 39 38 38 38 38 37 37 37 38 38
36 36 35 34 35 35 34 32 31 31 30 30 31 31 31 32 32 33 34 35 37 39 40 41 40 38 38 38 38 38 39 38 38 38 38 38 37 36 36 37 37 37
35 35 34 34 34 34 32 31 30 29 28 29 30 30 29 29 29 31 32 32 34 36 37 38 38 37 37 37 36 37 37 37 37 37 38 38 37 36 36 36 36 36
35 35 34 34 33 32 31 30 29 28 29 30 30 30 30 30 31 31 32 32 32 33 34 35 36 35 34 35 34 35 35 35 35 37 38 37 36 36 36 36 35 35

ECMWFNIL_850_spd_066.txt.gz
Wind_Speed
39 39 38 37 37 36 35 34 32 30 28 27 25 23 21 19 19 19 19 19 19 19 19 18 18 18 17 16 16 17 17 17 16 15 15 14 13 12 12 12 12 13
37 38 38 38 37 36 36 34 32 31 29 27 26 23 21 20 20 20 21 20 20 19 20 20 19 19 18 17 17 17 18 18 17 16 15 15 14 13 12 12 12 13
35 36 37 37 36 36 35 35 33 32 30 28 27 25 23 22 21 21 22 22 21 20 20 20 20 20 20 19 18 18 18 18 18 17 17 16 15 14 13 13 13 13
35 35 36 36 35 34 34 35 34 33 31 30 28 27 25 23 22 21 22 23 22 21 21 21 21 20 20 20 20 19 19 19 19 18 18 17 16 15 15 14 14 15
35 35 35 35 35 34 34 34 34 33 32 31 29 28 27 25 23 22 22 22 23 22 23 23 22 21 21 21 21 21 21 21 20 20 20 19 18 17 16 16 16 16
37 35 34 34 35 35 34 34 33 33 32 31 30 29 29 27 25 24 22 22 22 23 24 25 24 23 22 22 22 22 22 22 21 21 21 20 19 18 17 17 18 18
38 36 35 34 34 34 35 35 34 33 32 31 31 31 30 29 27 25 23 22 22 23 24 25 25 24 24 24 24 23 23 23 22 22 22 21 20 19 19 19 19 19
38 36 35 34 33 33 34 34 35 34 33 32 32 31 30 30 28 26 25 24 23 23 24 24 24 23 23 24 24 24 24 23 23 22 22 21 20 20 19 19 20 20
39 37 36 35 34 34 33 33 33 33 33 33 32 31 30 30 29 27 26 26 25 25 25 25 25 24 23 24 25 25 24 24 23 23 22 21 21 21 20 20 21 21
41 39 38 37 36 34 33 32 32 32 32 32 32 31 30 30 29 28 28 27 27 27 27 27 27 25 24 25 25 26 25 25 24 24 23 23 22 21 21 21 22 21
43 41 40 39 37 35 33 32 31 31 31 31 32 32 31 30 30 30 29 29 29 29 29 29 28 27 26 25 26 26 27 26 26 25 25 24 24 23 23 23 23 23
44 43 42 40 38 36 34 33 32 31 31 32 32 32 32 32 31 31 31 30 30 30 30 30 29 28 28 27 27 27 28 28 27 27 27 27 26 26 25 25 25 25
44 43 41 40 38 35 34 33 32 31 32 32 32 32 33 33 33 33 32 31 31 31 31 31 30 30 30 29 28 28 29 29 29 29 29 29 29 29 28 28 28 28
43 41 40 38 37 35 34 33 32 31 31 31 32 33 33 34 34 33 33 32 32 32 32 32 32 32 31 31 30 30 30 30 30 30 30 30 31 31 30 30 30 31
43 42 41 40 39 38 36 34 32 31 31 31 32 33 34 34 34 34 34 34 34 34 34 33 33 33 33 32 31 31 31 31 31 31 31 31 31 31 31 31 32 32
43 43 42 41 41 40 37 35 33 32 31 31 32 33 34 34 35 35 35 36 35 35 35 35 35 35 34 33 32 32 32 32 32 32 32 32 32 32 32 32 32 33
44 43 42 41 41 39 37 35 34 33 32 31 32 33 33 34 35 35 36 36 36 36 36 37 37 36 35 34 33 33 33 33 33 32 32 33 33 33 33 33 33 33
43 43 42 41 40 39 37 36 35 34 33 33 32 32 32 33 35 35 36 36 36 37 37 37 37 36 35 35 34 34 33 33 33 33 33 34 33 34 34 34 33 32
43 42 42 41 39 38 37 36 36 36 35 34 33 31 31 33 34 35 35 35 36 36 37 37 37 36 35 34 34 34 34 33 34 34 34 34 34 34 34 33 33 32
42 42 42 40 39 38 37 37 37 36 35 34 32 32 32 33 33 33 34 35 35 36 36 36 36 36 35 34 34 34 34 33 34 34 34 34 34 34 33 33 32 32
42 42 41 40 39 38 38 38 38 36 35 34 33 33 33 32 32 32 33 34 34 35 35 36 36 35 34 34 34 33 33 33 34 34 34 34 33 33 32 32 32 32
41 41 40 39 38 38 39 38 38 36 35 34 34 34 33 32 32 33 33 33 33 33 35 36 35 34 34 34 33 33 33 34 34 34 34 33 33 32 31 31 31 31
39 38 38 37 37 38 38 37 36 35 33 33 34 34 34 33 33 33 32 32 32 33 33 35 35 34 33 33 33 33 33 33 33 33 33 33 31 30 30 30 29 30
35 36 35 35 36 36 35 33 32 32 31 31 33 33 32 31 31 31 31 31 32 32 32 33 33 32 32 32 31 31 31 31 31 32 32 32 30 29 28 28 28 28
33 33 33 34 34 33 31 30 29 29 28 29 30 30 29 28 28 29 30 29 29 30 29 30 30 30 29 30 29 29 29 29 29 30 31 31 29 28 27 27 27 26
32 33 33 33 32 30 28 27 27 27 28 29 30 29 27 27 28 29 29 28 27 27 27 27 27 26 26 26 25 25 26 26 27 29 29 28 27 26 26 26 25 24

ECMWFNIL_850_spd_069.txt.gz
Wind_Speed
33 33 33 33 32 32 32 31 30 29 28 27 26 24 23 21 19 18 18 17 17 17 17 16 15 14 13 12 12 12 12 12 12 12 12 12 11 10 9 9 9 9
33 33 33 33 33 32 32 31 30 29 28 27 25 24 22 21 20 19 19 18 17 17 17 17 16 16 15 14 13 13 13 13 13 13 13 13 12 11 11 10 10 10
33 33 33 34 33 33 32 31 31 30 28 27 26 24 23 21 21 20 19 19 18 18 18 18 18 17 17 16 15 15 15 14 14 14 14 14 13 13 12 11 11 11
32 32 32 33 33 33 32 32 31 30 29 28 27 25 24 23 22 20 20 19 19 19 19 19 19 19 18 18 17 17 16 16 15 15 15 15 15 14 13 13 13 12
33 32 31 31 32 32 32 32 31 30 29 28 27 26 25 24 23 22 21 20 19 19 20 20 20 20 19 19 19 18 18 17 17 16 17 16 16 15 14 14 14 13
33 32 31 30 30 30 30 30 30 30 29 28 27 27 26 25 25 24 23 21 20 19 19 20 21 21 21 20 20 20 19 19 18 18 18 17 17 17 16 15 15 15
34 33 32 31 30 29 29 29 29 29 28 27 27 27 26 26 26 25 24 23 21 21 20 20 21 22 23 22 22 22 21 20 19 19 19 18 18 18 17 17 17 16
34 33 32 32 31 30 28 28 29 28 28 27 27 26 26 26 26 26 25 24 23 22 21 20 21 22 24 24 24 23 22 22 21 20 20 19 19 19 18 18 17 17
34 33 33 32 32 30 29 28 29 29 28 28 27 26 27 26 26 26 26 26 25 24 23 22 21 22 24 25 25 25 24 23 22 21 21 20 20 19 19 18 18 18
35 34 34 33 32 31 30 29 29 29 29 29 28 28 28 27 27 27 27 27 26 26 25 24 23 23 24 25 25 25 24 23 23 22 22 21 21 20 20 20 19 19
37 36 35 34 33 32 31 30 29 29 28 28 29 29 29 28 28 29 29 28 28 27 26 26 25 25 25 25 25 24 24 23 23 23 23 22 22 21 21 20 20 20
39 37 36 34 33 33 32 31 30 29 28 27 27 28 29 29 30 30 30 29 28 27 27 27 27 27 26 26 26 26 25 24 24 24 24 24 23 22 22 21 21 21
40 38 36 35 34 33 32 31 31 30 28 27 26 27 27 28 29 30 30 29 28 27 27 28 28 28 28 28 28 27 26 25 24 24 25 25 25 24 24 23 23 23
39 37 36 35 34 33 32 31 31 30 28 27 27 27 27 28 29 29 30 29 29 28 28 28 28 29 30 30 29 28 27 26 26 26 26 26 26 26 26 26 26 26
39 38 36 35 34 33 32 32 32 31 29 29 28 28 28 28 29 29 30 30 30 30 29 29 29 30 31 31 30 29 29 28 28 27 27 28 28 28 28 28 28 28
39 38 37 37 36 34 34 33 33 32 31 30 30 29 29 30 30 31 31 31 31 32 31 31 31 31 31 31 30 30 29 29 29 29 28 28 29 29 29 29 29 29
40 40 39 38 37 36 35 35 34 33 33 32 31 31 31 31 32 32 32 32 33 33 33 33 33 32 31 31 30 30 30 29 30 30 29 29 30 30 30 30 30 29
41 40 40 39 38 37 36 34 34 34 33 33 33 32 32 32 33 33 33 33 34 34 34 34 34 33 32 31 31 31 30 30 30 30 30 30 30 31 31 30 30 30
40 39 39 38 37 36 34 34 34 34 35 34 33 33 33 33 33 32 33 33 34 35 36 36 35 34 33 32 31 31 31 31 31 31 31 32 31 31 31 31 30 30
39 38 38 37 35 35 34 34 35 35 35 34 33 33 33 33 32 32 32 33 33 35 36 36 36 35 34 33 32 32 32 31 32 32 32 32 32 32 32 31 31 30
39 38 37 36 35 34 35 35 35 35 35 34 33 33 33 33 32 32 32 32 32 33 35 36 36 36 35 34 33 32 32 32 32 32 32 33 33 33 32 32 31 30
39 37 36 35 34 34 35 35 35 35 34 33 33 34 34 33 33 32 32 32 31 32 33 35 36 35 35 34 33 32 32 32 32 32 32 33 33 33 32 31 30 29
38 37 36 35 35 35 36 36 35 34 34 34 34 35 35 35 33 32 32 32 31 32 32 33 34 34 33 33 32 31 31 32 32 32 32 33 33 32 31 30 29 28
37 36 35 34 34 35 35 34 33 33 32 33 34 34 34 34 33 32 32 32 32 32 32 32 32 32 32 31 31 31 31 31 31 31 32 32 32 31 31 30 29 28
34 33 32 32 32 32 32 31 30 30 30 31 31 32 32 32 31 32 32 31 31 31 30 31 31 31 31 31 30 30 30 30 30 30 31 31 31 30 30 29 28 27
31 30 30 30 29 28 28 27 27 27 28 29 30 30 30 30 30 30 30 30 29 29 29 30 30 30 30 30 29 29 29 29 28 29 30 30 29 28 27 27 26 25

ECMWFNIL_850_spd_072.txt.gz
Wind_Speed
25 27 29 30 30 31 30 29 29 27 27 27 26 25 23 23 22 20 18 16 15 15 14 14 13 12 12 11 10 9 9 9 9 8 6 5 4 4 4 4 4 5
25 26 27 26 28 31 30 29 28 27 26 26 26 25 24 22 22 21 19 17 16 16 15 15 14 13 13 12 11 10 9 10 10 9 8 7 6 6 6 5 5 6
26 26 25 25 28 30 29 29 29 27 26 26 26 25 24 22 21 21 20 18 18 17 16 16 15 14 14 13 12 11 10 11 11 10 9 9 8 7 7 7 7 7
29 28 27 27 28 29 30 30 29 28 27 26 26 25 24 23 22 21 20 19 19 18 18 17 16 15 15 14 13 13 12 12 12 12 11 10 9 8 8 8 8 8
31 30 29 28 27 27 29 30 30 29 28 26 26 25 25 24 23 22 21 20 19 19 19 18 17 16 16 15 15 14 14 13 13 14 12 10 10 9 9 9 9 9
33 32 30 29 27 26 28 31 30 29 28 27 26 26 25 25 24 23 22 21 20 20 19 19 19 18 17 17 17 16 16 15 14 14 12 10 10 10 10 11 10 9
36 35 32 29 29 29 30 31 30 29 29 28 27 27 26 26 25 25 24 23 22 21 20 20 20 19 19 19 19 18 18 17 16 16 14 11 10 11 12 12 11 11
37 36 34 31 30 30 31 31 30 29 29 28 28 28 27 26 26 26 25 25 24 23 22 21 21 20 19 20 20 20 20 19 19 18 17 14 12 12 13 12 12 12
38 37 35 33 31 31 31 30 30 29 28 28 28 28 28 27 27 27 27 27 26 25 24 23 22 21 20 20 21 22 22 21 20 20 19 18 16 15 14 13 14 13
38 37 36 34 33 32 32 30 29 28 28 28 28 28 28 28 27 27 28 28 27 27 26 24 23 22 21 21 22 23 23 22 22 22 21 20 19 17 15 15 15 14
38 37 36 36 34 33 33 31 29 29 29 29 28 28 28 28 28 28 28 29 29 28 27 26 25 24 23 22 22 23 23 23 23 23 22 21 20 19 17 16 16 16
39 38 38 37 36 34 33 32 30 29 29 30 29 29 29 29 29 29 29 30 29 28 28 27 26 25 25 24 24 23 24 24 23 23 22 21 20 19 19 18 18 17
40 40 39 37 37 35 34 32 31 30 30 30 30 29 29 30 30 30 30 30 29 29 28 28 27 27 26 26 26 25 25 24 24 23 22 21 20 20 20 19 19 18
42 41 40 38 37 36 35 33 32 32 31 31 30 30 30 31 31 30 30 30 30 29 29 28 28 28 27 28 27 27 26 26 25 24 24 23 22 22 21 20 20 20
43 42 40 39 38 37 36 36 35 34 33 32 31 30 30 30 30 30 30 31 31 30 30 30 29 29 29 29 29 28 28 27 27 26 26 25 24 23 22 21 21 21
43 42 41 40 40 38 37 37 36 35 34 33 31 30 30 30 30 29 30 30 31 31 30 30 30 30 29 29 29 29 29 28 29 28 27 27 26 25 24 23 23 22
43 42 42 41 41 40 38 37 37 36 35 33 32 31 31 31 30 31 30 29 30 30 30 30 30 30 30 29 28 29 29 29 29 29 29 28 27 27 26 25 25 24
42 42 42 42 42 41 39 38 37 36 36 35 34 33 33 32 32 32 32 30 30 30 31 31 31 31 31 30 29 29 29 29 29 29 30 30 29 28 27 26 26 26
42 42 42 43 43 42 40 39 38 37 37 36 35 34 34 34 34 33 33 33 32 32 32 31 32 32 32 30 30 30 29 29 29 30 30 30 30 29 28 28 28 27
41 42 42 43 43 43 42 41 39 39 38 36 35 35 35 35 35 34 34 34 33 33 33 32 32 33 33 31 30 30 30 30 30 30 31 31 31 30 30 29 29 29
41 41 42 42 43 43 42 41 40 39 38 36 35 35 35 35 35 34 34 34 33 33 33 34 34 35 35 33 31 31 31 31 31 32 32 32 33 32 31 31 30 30
40 40 41 41 41 41 41 41 40 39 38 37 36 36 36 35 34 34 33 33 32 32 33 33 34 35 36 35 34 33 32 32 32 33 33 33 34 33 33 32 32 31
39 39 40 40 41 41 41 41 40 39 38 37 36 36 35 35 34 33 33 32 32 33 33 34 34 35 36 35 34 34 33 33 33 33 33 34 34 34 34 33 33 32
37 37 38 39 40 41 40 40 39 38 37 36 35 34 34 35 34 33 33 33 33 33 33 33 33 33 34 34 34 33 33 32 32 33 33 34 34 34 34 33 33 33
36 36 36 37 38 39 39 39 38 37 36 35 35 34 34 34 34 34 34 34 33 34 33 33 32 32 33 33 33 32 32 31 32 32 33 34 34 33 33 33 32 32
36 36 35 36 36 37 37 37 37 36 36 35 35 34 34 33 33 33 34 33 33 33 32 32 32 31 33 33 32 32 32 31 32 33 33 33 33 33 32 32 32 31

ECMWFNIL_850_spd_075.txt.gz
Wind_Speed
33 31 29 25 25 27 27 28 29 27 25 22 20 20 20 20 19 18 17 17 16 15 14 13 12 12 11 11 10 9 8 7 7 7 6 6 6 5 5 5 4 5
33 31 29 26 26 28 28 28 28 28 27 25 21 18 18 19 20 19 19 19 17 15 15 14 14 13 12 12 11 10 9 8 8 8 7 6 7 6 6 6 6 5
34 31 30 29 28 29 29 28 29 28 27 26 24 20 18 19 20 20 20 20 19 17 16 16 15 14 14 13 12 11 11 10 9 8 8 8 7 8 7 7 7 7
36 33 31 30 28 29 29 28 29 29 26 25 24 23 20 20 19 20 20 20 20 19 17 17 17 15 15 14 13 12 11 11 10 10 10 9 9 9 8 8 8 8
36 34 32 30 29 29 29 29 28 28 27 24 23 23 23 22 20 20 21 21 21 21 19 18 18 17 16 15 14 14 13 12 12 12 11 11 11 10 10 10 10 10
37 34 33 32 31 30 30 29 28 27 26 25 23 23 24 25 24 21 21 22 22 21 20 19 19 18 17 17 16 15 15 14 13 13 12 12 12 12 11 11 11 11
39 36 34 33 32 31 31 30 29 28 27 25 24 24 23 25 26 24 22 22 22 21 20 19 19 19 18 18 17 16 16 15 14 14 13 12 12 12 12 12 11 11
41 38 36 34 32 31 32 30 29 30 28 26 25 25 25 24 25 26 25 24 22 21 20 20 20 21 20 19 18 17 17 16 16 16 16 14 14 13 13 13 13 12
42 39 37 36 34 32 32 30 30 31 30 29 27 26 26 26 25 25 26 26 24 22 23 22 22 23 22 20 20 19 18 18 17 18 18 17 17 16 14 14 13 13
42 40 38 37 35 34 32 30 30 30 30 31 29 26 26 28 27 26 26 27 27 26 26 25 24 24 23 21 22 22 20 19 19 19 19 18 18 17 15 14 14 13
43 41 38 38 36 34 33 31 29 28 29 31 31 28 25 27 28 28 27 29 29 28 28 28 27 26 24 22 22 23 23 22 21 21 21 20 19 17 16 16 15 15
45 42 39 39 38 35 32 32 30 28 28 30 31 30 27 26 28 30 30 30 30 30 30 29 28 27 26 24 22 22 23 22 22 22 22 22 21 20 19 18 18 18
46 45 42 40 39 37 32 31 30 29 28 28 30 30 29 27 27 29 31 32 31 30 30 30 29 28 27 26 24 23 23 22 22 22 22 22 21 21 19 18 18 19
47 45 43 40 39 38 34 30 30 30 29 28 29 30 30 28 27 27 30 32 32 31 31 30 30 29 29 28 26 25 24 24 23 22 22 22 22 21 20 19 18 18
46 45 44 41 38 38 36 33 31 31 30 29 29 30 30 29 27 26 27 30 32 32 31 31 31 31 30 29 28 27 26 25 25 24 23 23 22 22 21 20 20 19
45 45 44 41 39 39 38 36 33 31 31 31 30 30 30 29 29 27 26 27 30 32 32 32 32 32 31 30 28 28 27 26 27 27 25 24 24 23 22 21 21 20
45 45 44 43 41 40 41 38 35 33 33 32 31 31 31 31 30 29 27 26 27 29 31 32 33 33 32 30 28 27 26 26 27 28 27 26 26 26 25 23 22 21
44 45 45 45 44 42 42 41 38 36 34 34 33 33 33 33 32 31 30 28 25 26 28 30 32 33 33 30 28 27 26 26 27 27 28 28 27 27 27 27 25 23
44 45 44 45 45 44 43 42 41 39 38 36 35 35 35 34 33 32 32 30 28 25 26 27 27 30 33 32 29 27 26 26 26 27 27 27 28 28 28 28 28 26
41 44 45 44 45 45 44 42 42 42 41 39 37 36 36 36 34 32 32 33 31 28 26 26 25 27 31 31 29 28 27 26 27 26 25 25 25 27 28 29 29 28
33 38 44 45 45 45 45 43 43 43 42 41 38 36 37 38 36 34 34 35 35 31 28 27 26 27 29 30 30 28 28 28 28 29 28 27 27 28 29 30 30 30
31 32 40 45 45 45 46 45 43 43 43 42 39 35 35 37 37 36 35 36 36 34 32 29 28 28 30 32 31 29 29 29 31 32 33 32 32 32 32 32 32 32
35 34 38 43 44 45 46 46 45 44 43 43 42 37 33 34 36 36 36 36 36 35 34 32 31 31 33 34 34 32 31 30 32 33 34 35 35 35 35 35 35 35
40 39 41 42 43 44 45 46 45 45 44 43 43 40 34 31 31 33 34 35 35 36 35 34 32 32 34 35 35 34 32 31 32 33 34 35 36 36 37 37 37 37
40 41 41 40 41 43 44 45 45 44 43 43 42 42 37 31 28 29 30 31 33 34 34 34 33 32 34 35 35 34 33 31 31 32 33 34 35 36 37 38 38 39
38 39 40 39 39 41 42 42 43 42 42 42 41 40 38 33 29 28 27 28 29 29 30 32 33 33 34 35 35 34 32 30 30 31 32 33 33 35 36 37 38 39

ECMWFNIL_850_spd_078.txt.gz
Wind_Speed
37 36 35 34 32 30 28 27 26 25 24 23 22 21 19 18 16 16 16 15 15 15 14 13 12 12 11 10 10 11 9 7 6 6 6 6 6 6 5 4 5 8
37 36 36 34 33 32 30 28 26 26 25 24 23 21 19 18 18 18 18 17 15 15 15 15 14 13 13 12 11 11 10 8 7 7 6 6 7 6 6 6 5 7
37 36 36 35 34 33 31 29 27 26 25 25 24 21 19 18 18 19 20 19 17 15 15 16 15 15 14 13 13 12 11 10 8 8 8 8 8 8 7 7 6 5
38 37 36 35 34 33 32 30 29 28 26 26 25 23 20 19 19 19 20 20 19 17 16 16 16 16 15 14 14 13 12 11 10 9 9 9 8 8 8 8 8 7
38 37 36 36 34 33 32 31 30 30 28 26 26 25 23 21 20 20 21 21 20 19 18 17 17 17 16 16 15 15 14 13 12 11 10 9 9 9 8 8 10 11
39 38 37 36 35 33 32 31 31 31 29 28 27 26 25 23 23 22 22 21 20 21 21 20 19 18 17 17 16 16 16 14 13 13 12 11 10 10 9 9 11 12
40 39 38 37 35 33 32 32 31 31 30 29 27 27 26 26 26 25 23 22 21 22 22 22 22 21 19 18 17 17 17 16 15 15 14 12 12 11 10 11 13 13
40 39 39 38 36 35 33 32 32 31 30 29 28 27 27 27 28 28 25 23 22 22 22 22 22 21 20 20 18 17 17 17 17 17 15 14 13 13 12 13 14 14
41 40 40 39 38 36 35 34 33 32 31 30 29 28 28 28 29 28 27 26 24 23 23 23 23 22 21 21 20 18 18 18 18 18 17 15 14 14 13 13 14 14
42 41 40 40 39 37 36 35 34 33 32 31 30 29 29 29 29 29 29 28 26 25 24 24 24 23 23 22 21 20 19 19 18 18 18 17 16 15 15 14 15 15
43 42 41 41 40 38 37 35 34 33 33 32 31 30 29 30 30 29 29 30 29 27 26 25 25 26 25 24 22 21 21 20 20 19 19 18 18 17 16 16 16 16
44 44 43 42 41 39 37 35 33 32 32 33 33 31 30 30 31 31 31 31 31 29 29 27 27 27 27 26 24 23 22 22 21 21 21 20 19 18 18 18 17 17
45 45 44 43 41 39 37 35 34 32 31 33 33 32 31 30 31 32 32 32 31 31 30 30 29 29 29 28 26 25 24 24 23 23 23 22 21 20 19 20 19 19
46 45 44 43 41 39 37 35 34 33 33 33 33 33 33 31 30 31 32 32 32 32 31 31 31 31 30 29 28 27 26 26 25 24 23 22 22 21 20 20 20 20
45 44 43 42 41 40 38 36 35 34 34 33 33 33 34 33 31 30 31 32 32 32 32 32 32 32 32 31 29 28 28 28 27 25 24 23 22 22 21 20 20 20
44 44 43 42 41 41 40 38 36 36 35 34 34 34 34 34 33 31 31 31 32 32 32 32 33 33 33 31 30 29 28 28 28 27 26 25 25 24 22 22 21 20
43 43 43 42 42 41 41 40 39 37 36 35 34 34 33 34 34 33 32 31 31 32 32 33 34 34 33 32 30 29 28 28 29 29 28 26 26 25 24 23 23 22
42 43 43 43 43 43 42 42 41 39 37 37 36 34 34 34 35 35 33 31 31 31 31 32 33 34 34 32 30 29 28 28 28 29 29 28 27 26 26 25 23 23
42 43 44 44 44 44 43 42 42 41 39 39 38 36 35 34 35 36 35 33 31 31 30 30 30 32 33 32 30 28 27 27 28 28 29 30 28 27 27 26 25 24
41 43 44 44 44 44 43 43 43 42 41 40 39 37 36 35 35 36 36 35 33 31 30 29 28 29 31 31 30 28 27 26 27 28 29 29 28 27 26 26 26 25
42 43 44 44 44 44 43 43 44 43 42 41 40 39 37 36 35 35 36 37 35 32 30 29 29 28 28 29 28 27 27 27 28 29 29 28 27 26 26 26 26 26
43 43 43 44 44 44 44 44 44 44 43 41 40 38 36 36 36 35 35 36 37 35 31 29 28 28 28 28 28 27 27 27 28 29 31 29 26 26 26 26 27 27
43 43 43 43 44 44 45 45 44 44 43 42 40 37 35 35 37 36 34 34 35 36 35 31 29 29 29 29 29 29 27 27 27 28 31 32 31 30 29 28 29 29
43 41 41 42 43 44 46 45 44 44 43 43 42 38 34 34 35 35 34 33 33 34 35 34 32 31 31 31 31 31 30 29 28 28 29 32 34 35 34 33 33 33
41 39 39 40 42 43 44 44 44 44 43 43 42 40 35 32 32 33 32 32 32 32 33 34 34 33 33 34 33 33 33 32 31 30 30 31 32 35 36 37 37 37
40 39 38 39 39 40 41 41 42 43 44 43 43 42 38 33 31 31 30 30 31 31 31 32 33 34 34 35 34 34 34 33 33 33 32 32 31 32 34 36 38 39

ECMWFNIL_850_spd_081.txt.gz
Wind_Speed
38 37 37 37 36 34 32 31 29 27 26 25 23 21 19 16 15 13 13 13 15 15 14 13 12 12 13 14 15 15 12 9 10 10 9 9 9 10 12 12 10 9
40 39 38 37 36 35 34 32 30 28 27 26 24 22 20 18 17 16 14 13 14 16 16 15 14 13 14 13 14 16 14 10 10 11 11 10 10 10 11 13 12 11
41 41 40 39 38 37 35 34 32 30 29 27 25 23 22 21 20 19 18 15 14 15 17 17 16 16 15 14 14 15 14 12 11 11 11 12 11 10 10 12 13 13
43 42 41 40 39 38 36 35 34 32 30 29 27 25 23 22 22 21 21 20 17 16 16 17 17 17 16 16 15 16 15 14 13 12 12 12 12 11 10 11 13 13
44 42 42 40 39 38 38 37 36 34 33 31 28 26 25 24 23 23 23 23 21 18 17 17 17 17 17 17 16 16 16 15 15 15 13 12 12 12 12 11 12 12
45 44 43 41 40 39 39 38 37 36 34 32 30 28 26 25 25 24 24 25 23 21 19 19 19 18 18 18 17 17 16 17 16 16 15 14 13 13 13 13 12 12
47 45 43 42 41 40 40 39 38 37 35 33 32 30 28 27 27 25 25 25 24 23 22 21 21 21 19 18 18 18 17 17 17 17 17 16 15 14 15 15 13 13
48 46 44 43 42 41 40 39 38 37 36 34 33 32 30 29 29 28 26 26 25 25 24 23 23 23 22 20 19 19 18 18 18 18 18 17 16 16 15 16 15 15
48 47 46 45 44 43 41 40 39 37 36 36 34 33 32 31 31 29 28 27 27 26 25 24 23 23 24 23 21 20 20 19 19 19 19 18 17 16 16 16 16 16
48 48 47 46 45 44 42 41 40 38 37 36 35 34 33 33 32 32 30 29 29 28 26 25 24 24 24 24 23 22 21 20 20 20 19 18 17 16 16 16 16 16
49 48 48 47 46 45 43 41 40 39 38 37 36 35 34 34 34 34 33 32 31 30 28 26 25 24 24 23 23 23 22 21 20 20 19 19 18 17 17 17 17 17
49 49 49 48 47 45 44 42 41 40 39 38 37 36 35 35 34 35 35 34 33 31 30 28 26 25 25 24 23 23 23 23 22 21 20 19 18 18 17 17 17 17
50 50 49 48 47 46 44 43 42 40 39 38 37 37 37 36 35 35 36 35 34 33 31 29 28 27 26 25 24 24 23 23 23 22 22 21 20 19 17 17 17 17
50 50 49 48 47 46 45 44 43 41 40 38 38 38 38 38 36 36 36 35 35 34 32 31 30 29 28 27 27 25 24 24 23 23 23 22 22 21 19 19 18 17
49 49 49 48 48 47 46 45 43 41 40 38 38 38 39 39 38 36 36 36 35 34 33 32 31 31 31 29 28 27 25 25 24 24 23 23 22 22 21 20 19 18
48 49 48 48 49 48 47 46 44 42 41 39 38 38 38 39 39 38 37 36 36 35 35 34 33 32 32 31 29 28 26 25 25 24 24 23 23 22 22 21 20 20
46 47 48 48 49 48 47 46 45 43 41 40 39 37 37 39 40 40 38 37 36 36 36 36 35 33 32 32 30 29 28 27 26 25 24 24 23 23 22 22 21 21
45 46 47 48 48 48 47 46 45 44 42 41 40 39 37 38 40 41 39 38 37 36 36 36 35 33 32 32 30 29 29 29 28 27 26 25 25 24 23 22 22 21
45 45 46 48 48 48 47 46 46 45 44 43 42 41 39 38 39 40 40 38 37 36 36 35 34 33 33 32 31 30 29 29 29 29 28 27 27 26 25 24 24 23
45 45 46 47 48 48 47 47 47 46 45 44 43 43 42 39 38 39 40 39 38 37 36 35 33 32 32 31 31 30 29 29 29 29 30 30 29 28 27 26 25 24
47 46 46 46 47 48 48 47 47 47 46 45 44 44 44 42 39 39 40 41 39 38 37 36 34 32 30 29 28 28 29 30 30 30 30 31 30 29 28 27 26 26
48 47 46 46 47 48 49 48 48 48 48 46 45 45 44 43 41 39 40 41 41 40 38 37 36 33 30 28 26 25 26 28 29 30 30 30 31 30 30 29 27 27
48 48 47 47 47 48 49 49 48 48 48 47 47 46 45 44 43 41 40 40 42 42 41 39 37 35 32 30 27 25 24 24 26 27 28 29 30 30 30 30 30 29
49 48 47 47 48 49 49 50 49 48 48 48 48 47 46 44 44 43 41 40 41 43 43 41 38 36 34 31 29 27 26 25 24 24 26 27 28 29 31 32 32 31
48 48 48 48 48 49 50 50 49 48 48 48 48 47 46 44 43 43 43 42 41 42 43 43 41 38 36 33 31 29 28 27 26 26 26 26 27 27 29 31 33 33
48 48 49 49 49 49 49 49 49 48 48 48 49 48 46 44 43 43 43 43 42 42 43 44 43 41 38 35 33 32 31 29 29 29 29 28 28 27 27 28 31 32

ECMWFNIL_850_spd_084.txt.gz
Wind_Speed
41 39 38 36 35 33 32 30 28 27 25 23 22 19 17 14 13 13 13 15 16 16 15 15 15 15 14 14 14 13 12 11 12 12 13 13 13 13 16 17 16 15
44 43 41 39 38 36 34 32 30 29 27 25 23 20 18 17 16 15 14 14 17 17 17 16 16 16 17 16 15 13 13 13 13 13 13 13 13 15 19 19 16 15
45 44 44 43 42 40 37 35 33 31 29 27 25 23 21 20 19 18 16 16 16 18 19 18 17 17 17 18 16 15 14 14 14 14 14 14 14 15 19 20 17 16
46 45 45 44 44 43 40 38 36 35 33 31 29 26 24 22 21 20 19 18 18 18 20 20 19 18 18 18 18 16 15 14 14 14 15 15 15 14 16 18 18 18
47 46 46 44 44 44 43 41 39 37 36 34 32 30 27 25 24 23 22 21 20 19 20 21 20 20 20 19 19 19 18 16 16 16 16 16 16 15 15 15 17 19
47 48 47 46 44 44 43 42 40 38 38 36 35 33 31 28 26 25 24 23 23 22 22 22 21 22 22 21 21 21 20 19 18 18 18 18 17 16 16 15 16 18
47 48 48 48 47 46 45 43 41 40 39 37 36 35 33 32 29 28 27 26 25 24 24 23 23 22 23 23 23 22 22 21 20 20 20 19 18 18 18 17 17 18
46 47 48 49 49 48 47 45 44 42 40 39 38 37 35 34 32 30 29 28 28 27 26 25 25 24 24 24 24 23 23 22 22 22 22 21 20 20 19 19 18 18
46 47 48 49 49 50 49 47 46 44 42 41 39 38 37 35 34 32 31 30 30 29 28 27 27 26 26 25 25 24 23 23 23 23 23 22 22 21 20 20 20 20
46 46 48 49 50 50 50 49 47 46 44 43 41 39 38 37 35 34 32 32 33 32 30 29 29 29 28 28 27 25 24 23 23 23 23 23 23 21 21 21 21 21
45 45 47 49 50 50 51 49 48 48 46 45 43 42 40 38 36 35 34 34 34 33 32 30 30 30 30 30 29 28 26 24 23 23 23 23 23 22 21 21 22 21
46 45 45 47 48 49 50 50 49 48 47 46 45 43 42 40 38 36 35 34 34 33 33 32 30 30 30 30 30 29 28 27 25 24 23 23 22 22 22 22 22 21
47 46 44 44 46 47 48 49 49 49 48 47 46 44 43 41 40 38 36 35 34 34 33 32 31 31 30 30 31 30 29 28 28 26 24 23 23 22 21 22 22 22
47 46 44 43 44 45 47 48 48 48 48 47 46 45 44 42 41 39 37 36 35 35 34 33 32 32 31 30 31 31 31 29 28 28 27 25 24 22 21 21 21 21
46 46 45 44 44 45 46 47 48 48 47 47 46 45 44 43 41 39 39 38 37 36 35 35 34 34 32 31 30 31 31 30 28 28 28 27 26 24 22 21 21 20
45 45 45 45 45 45 46 47 48 48 47 47 47 46 44 43 42 41 40 39 39 38 38 37 36 35 33 31 30 31 31 31 29 28 28 27 27 26 24 23 22 21
45 45 45 45 45 45 46 46 47 48 48 48 47 46 45 43 42 42 41 40 40 39 39 39 38 35 33 32 31 31 31 31 30 29 28 28 27 27 26 24 22 22
44 44 44 45 45 45 45 46 46 47 48 48 48 47 45 44 43 42 42 41 40 40 40 40 38 36 33 32 32 31 31 31 30 30 29 28 28 27 27 26 24 23
43 43 43 44 44 44 44 45 46 48 48 48 48 47 46 45 44 42 42 41 42 42 41 40 38 36 34 34 33 32 31 31 31 30 29 28 28 27 27 26 25 24
43 42 42 42 42 43 43 45 46 47 48 48 48 47 47 46 45 43 42 42 42 42 42 41 39 36 34 34 33 32 32 32 32 32 31 30 28 28 27 26 25 25
43 42 41 41 40 41 43 44 46 47 47 48 48 48 48 47 46 44 43 42 42 42 42 41 39 36 35 34 33 32 32 32 33 33 33 32 31 30 29 28 27 26
43 42 42 41 40 41 42 44 45 47 47 48 48 48 48 47 46 45 44 42 41 42 43 42 39 37 35 34 32 30 30 32 33 34 35 35 34 32 31 30 29 28
44 43 43 42 41 41 43 43 44 45 47 47 48 48 48 48 47 46 45 43 42 42 42 42 40 38 36 35 32 30 29 30 31 33 35 35 35 34 32 31 31 30
44 44 44 43 43 43 43 43 43 44 45 46 48 49 48 48 47 46 45 44 43 42 42 42 41 39 37 36 34 32 30 29 29 30 32 34 34 34 34 33 32 31
44 46 45 45 45 44 44 43 43 43 44 45 47 48 48 48 47 46 46 46 45 43 42 41 41 40 39 37 36 34 32 30 29 29 30 30 31 32 33 33 32 31
45 47 48 46 45 45 44 44 43 43 43 44 46 47 47 47 47 47 47 46 46 45 44 42 41 41 40 39 37 36 35 33 31 31 30 29 29 29 30 30 30 30

ECMWFNIL_850_spd_087.txt.gz
Wind_Speed
36 36 36 35 34 32 30 28 27 25 24 23 21 20 18 15 14 14 14 14 14 13 13 13 13 12 12 13 14 13 11 10 9 9 10 12 12 13 13 13 12 12
38 38 38 37 36 34 32 31 29 27 26 24 22 21 20 17 16 15 14 13 14 14 14 14 13 14 13 13 14 14 13 12 11 11 11 11 11 12 13 12 12 12
41 40 39 39 38 37 35 33 31 29 27 25 23 22 21 19 17 15 14 13 13 15 16 16 15 15 15 14 15 14 13 13 12 12 12 11 11 11 12 14 14 14
42 42 41 40 39 38 37 35 34 31 29 27 25 23 22 20 18 17 16 15 14 14 16 18 18 17 16 16 16 15 13 13 12 13 12 12 11 11 12 15 17 16
43 43 43 42 41 40 39 38 36 34 32 29 27 26 25 23 21 20 18 17 16 15 15 17 19 19 18 17 17 16 14 13 13 13 13 12 12 12 12 16 19 18
42 43 43 43 43 42 41 40 38 36 34 32 30 29 28 27 25 24 22 20 19 18 17 17 18 20 20 19 18 17 16 15 14 15 15 14 13 13 13 15 18 19
41 42 43 44 44 44 43 42 40 38 37 35 33 32 30 30 28 27 25 24 22 21 21 19 19 19 20 21 21 20 18 17 17 16 16 15 15 15 15 15 17 18
41 41 42 43 44 46 46 45 43 41 40 39 38 36 34 33 31 30 28 27 26 24 23 22 21 21 21 21 22 21 20 19 19 18 18 17 17 17 17 16 17 17
41 41 41 42 43 45 46 47 46 44 43 43 41 39 38 36 35 33 32 30 29 28 26 25 24 23 23 23 22 22 22 21 21 21 20 19 18 18 18 17 18 18
43 42 41 41 42 44 45 46 47 46 45 45 44 43 42 40 38 37 36 34 32 31 29 27 26 25 25 25 24 23 23 22 22 23 22 21 20 20 19 19 19 19
43 42 42 41 41 42 43 45 46 46 46 46 45 45 44 42 41 40 39 37 35 33 32 30 28 27 27 26 26 25 24 24 23 23 23 23 22 21 21 20 21 21
44 43 42 41 40 40 41 43 44 45 46 46 45 45 44 43 42 42 40 39 37 35 33 32 30 29 28 27 26 26 26 26 25 25 24 24 23 22 22 21 21 21
45 44 42 40 38 38 38 40 42 43 44 45 45 44 44 43 43 42 41 39 38 37 35 33 32 30 29 28 28 27 27 27 27 27 26 25 24 23 22 22 22 22
45 44 42 40 38 37 37 39 40 41 42 42 43 43 43 43 42 41 40 39 38 37 35 34 33 32 31 29 29 28 27 27 28 28 28 27 25 24 23 22 22 22
46 44 43 42 40 39 38 38 39 40 40 40 41 42 42 42 41 41 40 40 39 37 36 35 34 33 32 30 29 28 27 27 27 28 29 29 28 26 25 24 23 22
46 45 44 43 42 41 39 39 38 38 39 39 40 40 40 40 40 41 41 40 39 38 37 35 34 33 32 30 30 29 28 27 27 27 28 29 29 28 27 25 24 23
47 46 45 44 43 42 41 39 39 38 38 38 38 38 39 39 40 40 40 40 39 39 37 36 35 33 31 31 30 30 29 29 28 27 27 28 29 29 28 26 25 24
47 46 45 45 43 42 41 40 39 39 39 38 38 37 37 38 39 39 40 39 39 39 38 37 35 33 31 31 31 31 30 30 29 29 28 28 29 29 28 27 26 26
46 46 46 45 43 41 40 40 40 40 40 39 38 37 37 37 38 38 39 39 39 38 38 37 35 33 31 31 31 31 31 31 31 30 30 29 29 29 29 29 28 27
45 46 45 44 43 41 40 40 40 40 40 39 38 38 38 38 37 38 38 38 38 38 38 37 36 33 32 31 31 31 30 31 31 31 31 30 30 30 30 30 29 28
45 45 44 43 42 40 40 40 40 39 38 38 38 38 39 38 38 38 38 38 38 38 38 38 36 33 32 32 31 31 31 31 31 32 32 31 31 31 31 30 29 29
43 44 43 42 41 41 41 40 39 39 37 36 37 37 38 38 38 38 38 38 38 38 38 38 36 34 33 32 32 31 32 32 32 32 32 32 31 31 31 30 30 29
40 43 43 42 41 41 41 40 39 37 36 35 35 36 36 37 37 38 38 38 38 38 38 38 36 34 33 33 32 32 33 33 33 32 32 32 31 31 31 31 30 30
36 40 43 43 42 42 42 41 39 37 35 34 34 34 33 34 34 35 37 38 38 39 38 38 37 35 34 33 32 32 33 34 33 33 32 31 30 30 30 31 31 31
33 36 41 43 43 42 41 41 39 37 35 34 34 33 32 31 32 33 35 37 38 39 39 39 38 36 35 34 33 33 34 34 34 34 33 32 31 30 30 30 31 31
30 33 37 41 42 41 41 42 40 39 37 36 35 34 33 32 32 33 34 35 36 38 39 40 39 38 36 35 34 34 34 34 35 35 34 33 32 31 30 30 30 30

ECMWFNIL_850_spd_090.txt.gz
Wind_Speed
33 31 29 28 27 26 25 23 23 23 22 20 19 17 15 13 12 13 13 12 11 11 10 9 9 9 9 9 10 10 9 8 7 6 6 6 6 7 7 7 7 8
34 33 31 30 29 28 26 25 24 23 22 21 19 17 15 14 14 13 13 13 13 12 11 10 10 10 10 10 10 10 10 10 9 8 7 6 6 6 6 7 8 8
34 34 33 32 31 29 28 26 26 25 23 21 20 18 17 16 16 15 14 13 12 12 12 12 11 11 11 10 11 10 10 11 10 9 8 7 6 6 6 7 7 8
33 34 34 33 32 31 30 29 28 27 25 23 21 19 19 18 18 17 16 13 12 11 11 11 12 13 13 12 11 11 10 11 10 10 10 8 7 7 7 7 7 8
32 33 34 34 33 32 32 31 30 28 27 25 22 21 19 19 19 18 17 15 13 11 10 10 11 13 14 14 13 12 11 11 11 11 10 9 8 8 8 8 8 10
32 32 33 34 34 34 34 33 32 31 29 27 25 23 21 20 20 19 18 16 14 13 12 11 11 11 13 14 15 15 14 12 11 11 11 10 9 9 9 9 9 11
32 32 32 33 33 35 35 35 34 33 31 30 28 27 25 23 22 21 20 18 17 16 14 13 12 11 12 13 15 16 16 15 13 12 12 11 10 10 10 10 10 11
33 32 32 32 33 34 35 35 36 35 33 32 32 30 29 27 25 23 22 21 20 19 18 17 15 14 13 14 15 15 16 16 16 15 14 13 13 13 12 12 12 12
36 34 33 33 33 34 34 35 35 35 35 35 34 33 32 31 29 26 25 24 23 22 22 21 20 18 16 16 16 16 16 17 18 18 17 15 14 14 13 14 14 14
39 38 36 36 35 34 34 33 34 35 36 36 36 36 35 34 32 30 28 27 26 26 25 24 23 22 21 19 18 17 18 18 18 19 19 18 17 16 15 15 15 15
42 40 40 38 37 36 34 33 33 34 35 36 36 37 37 36 35 33 32 31 29 28 27 26 26 25 24 23 21 20 19 19 19 20 20 20 20 18 17 16 16 16
43 42 41 40 38 37 35 34 33 33 33 34 36 37 37 37 37 36 36 34 32 31 30 29 28 27 27 26 24 23 22 21 21 21 21 22 21 20 20 19 18 18
44 43 42 40 39 37 36 35 34 33 32 32 33 35 36 37 38 39 38 38 36 34 33 31 30 29 29 28 26 25 24 23 23 23 23 23 23 22 21 20 20 19
43 43 42 41 39 38 37 36 35 34 33 32 32 33 35 36 38 39 39 39 39 38 36 34 33 32 31 29 28 27 26 25 24 24 24 24 24 24 24 23 21 20
43 42 42 41 40 40 38 37 36 35 34 33 32 32 32 34 36 37 38 39 39 39 38 37 36 34 32 30 29 27 26 26 25 25 25 25 25 25 26 25 24 23
43 42 42 42 41 40 39 38 37 36 35 33 32 31 31 32 33 35 36 37 38 38 37 37 36 35 32 30 29 27 26 26 26 26 26 26 26 26 26 26 26 25
43 42 42 42 41 40 39 38 37 36 35 34 33 31 30 30 31 33 34 35 36 36 36 36 36 34 32 30 29 27 26 26 27 27 27 27 27 27 26 26 26 26
43 43 42 42 41 41 40 39 38 37 36 36 34 33 31 31 31 32 33 33 34 35 35 36 35 33 31 30 28 27 27 27 27 27 28 28 28 28 27 26 26 26
42 42 42 42 41 40 40 39 39 39 38 37 36 34 33 33 32 32 32 32 33 34 34 34 34 32 30 29 28 27 27 27 27 28 28 29 29 29 28 27 27 27
40 40 40 40 39 39 39 40 39 39 39 38 37 36 36 35 34 33 33 32 32 33 33 34 33 32 30 30 29 28 27 27 28 28 28 29 29 29 28 28 28 28
38 38 38 37 36 36 36 38 39 39 39 38 38 37 37 36 35 34 33 33 33 33 33 34 33 32 31 30 29 28 28 28 28 28 29 29 29 29 29 28 28 28
36 36 37 36 36 35 35 34 34 34 36 38 39 39 39 37 37 36 34 33 33 33 34 35 34 32 32 31 30 29 28 28 28 29 29 30 30 29 29 28 28 29
35 35 35 35 36 38 37 32 25 23 26 30 35 40 42 41 38 36 34 33 33 33 34 35 35 33 32 31 30 29 29 29 29 29 30 30 30 29 29 29 29 29
35 36 35 35 35 36 38 36 28 21 18 19 24 31 38 43 42 39 35 33 32 32 33 35 35 34 33 32 31 30 30 30 30 30 30 30 30 29 29 29 29 30
33 35 36 36 35 34 35 38 36 28 20 17 18 21 26 33 38 41 38 35 32 32 32 33 34 34 33 33 32 31 31 31 30 31 31 30 30 30 30 30 30 30
30 32 33 35 36 35 33 34 35 33 28 22 20 20 21 26 32 38 39 36 33 32 31 31 32 33 33 33 32 32 32 32 31 32 32 31 30 30 30 31 31 31

ECMWFNIL_850_spd_093.txt.gz
Wind_Speed
28 27 26 25 23 22 21 21 20 20 19 19 18 16 14 12 11 11 11 10 10 9 9 9 9 8 8 8 8 8 8 7 7 6 6 6 6 7 7 8 7 7
28 27 27 27 25 24 22 21 21 20 19 19 19 17 15 13 12 11 11 10 10 10 10 9 9 9 9 9 8 9 9 9 8 7 7 6 5 6 6 7 8 8
27 27 27 27 27 25 23 22 21 21 20 20 20 19 17 15 13 12 11 10 9 10 10 10 10 10 10 9 9 9 9 9 9 9 8 7 7 6 6 6 7 7
25 26 26 27 28 27 25 23 22 21 21 21 20 20 18 17 15 13 12 11 11 10 10 10 11 11 11 10 10 9 9 10 10 10 10 9 8 7 6 6 7 7
24 24 25 26 28 28 26 25 24 23 22 21 21 21 20 18 17 16 14 13 13 12 10 10 10 11 11 11 11 11 10 10 10 10 11 11 10 8 7 7 7 7
25 24 24 25 26 28 27 27 25 24 24 23 22 22 21 20 19 18 17 15 15 14 12 11 10 9 10 10 11 11 11 11 11 11 11 11 11 10 9 8 8 7
28 25 24 24 25 27 28 28 27 26 25 24 24 24 22 21 20 18 18 17 17 16 15 13 11 10 9 9 10 10 10 11 12 12 12 12 12 12 11 10 9 8
30 28 26 25 25 26 27 28 28 28 27 26 26 25 24 23 21 20 19 18 18 18 17 15 14 12 11 11 11 10 10 11 11 12 13 13 13 13 13 12 11 10
31 30 29 27 27 26 26 27 28 28 28 28 27 27 26 25 23 22 21 20 20 20 19 19 18 16 15 14 13 12 12 12 11 12 13 14 14 14 14 14 13 13
33 32 31 30 29 28 26 26 27 27 28 28 28 28 27 26 25 25 24 23 23 23 22 22 21 20 19 17 16 15 14 14 13 13 14 14 15 15 15 15 15 15
34 34 33 32 31 29 28 26 26 27 27 27 28 29 28 27 27 27 26 26 25 25 25 24 23 22 21 20 19 18 18 17 16 15 15 15 16 16 16 17 17 16
35 35 35 33 32 30 29 28 27 27 27 27 27 28 29 28 28 28 28 27 27 26 26 26 26 25 24 23 22 21 21 20 19 18 17 17 17 17 18 18 18 18
35 35 34 34 33 31 31 30 29 29 28 27 27 27 28 29 29 29 29 28 28 27 28 28 27 27 26 25 24 24 23 22 21 20 20 19 19 19 19 19 20 19
35 35 34 34 33 32 31 31 30 30 29 28 28 28 28 28 29 30 30 30 30 30 29 29 29 30 29 28 27 26 25 24 23 23 22 22 21 20 21 21 22 22
36 36 35 34 34 33 32 32 32 31 30 30 30 29 29 29 29 29 30 30 31 31 31 31 32 32 31 30 29 28 27 26 26 25 24 24 23 23 23 23 23 24
38 37 36 35 34 34 33 32 32 32 31 31 30 30 30 30 29 29 29 30 30 31 32 33 34 34 32 31 30 29 29 28 28 26 25 25 25 25 25 25 25 25
38 38 37 36 34 33 33 33 33 32 32 31 31 30 30 30 30 30 30 30 30 31 31 33 34 34 32 31 31 30 30 29 28 27 26 27 27 27 27 26 26 26
38 38 38 37 35 34 33 33 33 33 33 32 32 31 30 30 30 30 30 29 29 30 31 32 34 34 33 32 31 31 30 30 29 28 28 28 28 28 28 27 27 27
37 37 38 37 36 35 33 33 33 33 32 32 32 31 31 31 31 30 30 29 30 30 30 31 33 34 34 33 32 32 31 31 30 30 29 29 29 29 29 28 28 28
36 36 37 36 36 35 35 34 34 32 31 30 31 31 32 31 31 31 31 30 30 30 30 30 31 32 33 33 33 33 32 32 31 31 30 30 30 30 29 29 29 29
37 36 35 35 35 35 36 35 34 33 32 31 31 31 30 29 29 30 30 30 29 29 30 30 31 31 31 31 32 32 32 31 31 31 31 31 31 31 30 30 30 30
36 35 35 35 35 35 36 35 34 33 32 32 33 33 31 30 30 30 30 30 29 30 30 31 31 31 31 31 30 30 30 30 30 31 31 31 32 31 31 31 31 31
36 36 35 34 35 35 35 34 33 32 32 32 33 34 34 34 33 32 32 32 31 31 32 32 33 32 31 31 30 29 29 30 31 31 31 32 32 32 32 32 32 32
34 36 36 35 36 36 35 34 33 33 32 32 32 33 34 34 33 33 33 33 34 34 34 34 33 33 32 31 31 30 30 30 31 31 32 32 32 32 33 33 33 33
31 33 35 36 37 36 35 35 34 33 32 32 32 33 34 34 34 34 33 32 33 35 35 35 33 32 32 31 31 30 30 31 31 32 33 33 33 33 33 33 33 33
30 30 32 34 36 37 37 37 36 34 34 34 33 33 34 34 35 35 34 32 31 32 35 35 34 32 31 30 29 29 30 31 32 33 34 35 35 35 34 34 34 34

ECMWFNIL_850_spd_096.txt.gz
Wind_Speed
24 22 21 20 19 19 19 19 19 18 17 16 14 13 13 13 11 10 9 9 9 9 9 8 8 8 7 7 6 6 6 5 5 5 5 6 6 6 7 7 7 7
25 24 23 22 21 21 20 19 19 19 18 18 16 15 15 14 12 11 10 9 9 9 9 9 9 9 9 8 7 6 6 6 6 6 4 5 6 6 6 7 7 8
25 26 25 23 22 22 21 20 20 20 20 19 19 18 17 14 13 12 11 10 10 10 10 10 9 9 9 8 7 7 7 6 6 7 6 5 5 5 5 6 7 7
24 25 25 24 24 23 22 22 21 21 21 20 20 20 18 17 16 14 12 11 11 10 10 10 10 10 10 9 9 8 7 7 7 8 8 6 6 6 6 6 7 7
24 24 24 25 25 25 24 24 23 22 22 21 20 20 20 20 19 16 15 14 12 11 10 10 10 11 11 10 10 9 8 8 8 8 8 8 7 7 7 7 7 7
24 23 23 24 25 27 26 25 24 23 22 22 21 21 21 21 20 19 18 16 14 13 12 11 11 11 11 11 11 10 9 9 9 9 8 8 8 8 8 9 8 8
25 23 22 23 24 26 27 26 25 25 24 24 23 23 22 22 22 21 20 18 16 15 14 14 13 13 12 11 11 10 10 10 10 10 9 9 10 10 10 10 9 9
26 25 24 23 23 25 26 26 26 26 26 25 25 24 24 24 23 22 22 20 19 18 17 17 16 15 14 13 12 11 10 9 10 10 10 10 11 11 11 11 11 10
27 26 26 25 24 24 24 25 26 27 27 27 26 26 25 25 25 24 23 22 21 21 20 20 19 18 16 16 14 12 11 10 11 10 10 10 11 11 12 12 13 12
28 28 27 27 26 25 24 24 25 26 27 28 27 27 27 27 26 26 26 24 22 22 22 22 22 20 19 18 17 15 13 12 12 12 11 11 11 12 13 13 14 14
29 29 29 29 28 27 26 24 24 25 26 28 28 28 28 28 28 28 28 27 25 24 23 23 23 22 21 20 19 18 17 15 15 14 14 13 13 13 14 14 15 16
30 30 31 30 30 29 28 26 25 25 25 27 28 29 29 29 29 29 29 29 27 26 25 25 25 24 24 23 22 21 20 19 18 17 16 16 15 15 15 15 16 17
30 30 31 31 31 30 29 28 27 26 26 26 26 28 29 30 30 30 30 29 28 27 27 27 26 26 26 25 24 23 23 22 20 20 19 19 18 17 17 16 17 17
28 28 30 31 31 31 30 29 29 28 28 27 27 27 27 28 29 29 29 30 29 28 28 28 28 27 27 27 26 25 25 25 23 22 21 21 21 20 19 18 18 18
28 28 29 31 31 32 31 31 31 30 30 30 29 28 27 27 28 28 28 29 30 30 30 30 30 29 29 28 28 27 27 27 26 25 24 24 24 23 21 21 20 19
29 30 30 31 32 31 30 30 31 32 32 32 31 30 29 28 28 28 28 28 29 30 31 31 32 33 32 30 29 29 28 28 28 28 27 26 26 26 25 24 22 22
30 30 31 32 32 31 30 30 30 32 33 32 32 31 31 30 30 30 29 29 29 30 30 31 32 34 34 33 31 30 29 29 29 29 29 29 28 28 28 27 25 24
30 30 30 31 32 32 31 31 31 32 33 33 32 32 31 31 30 30 30 30 30 30 30 30 31 33 35 34 33 32 31 31 31 31 31 31 30 30 30 29 28 27
29 30 30 30 30 31 31 32 33 32 32 32 32 32 32 32 31 30 30 30 31 31 31 31 31 33 35 35 34 33 33 33 33 33 32 31 31 31 31 31 30 30
26 28 29 29 29 30 30 32 32 32 31 31 31 33 34 33 31 31 31 31 31 32 33 33 33 34 35 35 34 34 34 34 34 34 34 33 33 33 33 33 32 32
23 25 28 28 28 29 29 30 30 30 30 31 31 32 33 33 32 32 32 32 32 32 33 34 34 35 35 35 34 33 33 33 33 34 35 35 35 35 35 35 35 34
21 23 25 27 28 29 29 28 28 28 28 29 30 31 31 32 32 33 33 33 33 33 34 35 35 35 35 34 33 32 30 30 32 33 35 36 36 37 37 37 36 36
18 21 23 25 27 29 30 29 27 27 27 28 30 30 30 30 31 32 33 33 34 34 35 35 35 35 35 34 33 31 30 29 30 32 34 36 37 38 38 39 39 38
19 19 21 23 24 25 28 29 29 28 28 28 30 30 30 29 29 29 30 31 33 34 34 35 35 35 35 35 34 32 31 30 30 31 33 35 37 38 39 39 40 40
22 21 20 22 23 24 25 26 27 29 29 29 29 30 30 29 28 28 28 29 30 31 32 33 34 34 35 35 35 33 32 31 31 31 33 35 36 38 39 40 41 41
21 24 23 20 20 23 25 24 23 25 26 27 28 28 28 28 28 28 28 28 29 28 29 30 32 33 35 36 36 34 33 33 33 34 35 36 37 38 39 40 41 42

ECMWFNIL_850_spd_099.txt.gz
Wind_Speed
21 20 20 19 17 16 15 14 14 14 14 13 12 11 11 11 11 11 10 9 9 8 8 7 7 6 5 5 5 5 6 7 6 5 5 6 5 5 5 5 5 5
22 21 21 20 19 18 17 15 15 15 15 14 12 12 11 12 12 12 12 11 10 9 9 8 7 7 6 6 5 5 5 6 6 5 5 5 5 5 5 5 6 6
23 23 22 22 21 20 18 17 16 16 15 15 14 13 12 12 13 13 12 11 10 10 9 9 8 8 8 7 6 6 5 6 6 5 5 5 5 5 5 5 6 7
23 23 23 22 21 20 19 18 18 17 16 15 16 15 14 13 13 13 12 12 11 10 10 10 10 9 9 8 8 7 6 6 6 6 6 5 5 5 5 5 6 6
23 23 24 23 22 20 20 20 19 18 17 17 16 16 16 16 14 14 14 13 12 12 11 11 11 10 10 10 9 8 7 7 6 6 6 6 6 5 5 6 7 7
23 23 23 24 23 22 21 21 21 19 18 18 18 17 17 18 17 16 15 14 14 13 12 12 11 11 11 11 11 10 9 8 8 7 7 6 7 6 6 7 7 8
24 23 23 23 23 24 23 22 22 22 20 19 19 19 18 19 20 19 18 16 15 14 14 13 13 13 12 12 12 11 11 10 10 10 9 8 8 8 8 9 9 8
25 23 23 23 23 23 24 24 23 24 23 21 20 20 20 20 20 21 20 19 17 16 16 15 15 15 14 13 13 12 12 11 11 12 11 9 9 9 9 10 10 9
26 24 24 24 23 23 24 24 24 25 25 25 22 21 22 22 21 20 21 22 20 19 18 17 17 18 16 15 14 14 13 12 11 11 11 11 11 11 10 11 11 11
26 25 24 24 24 23 23 24 24 24 25 26 25 23 22 23 23 22 21 23 24 22 21 20 20 20 18 17 17 16 15 14 13 13 13 12 12 12 12 12 12 13
27 26 25 25 25 24 24 24 24 23 24 26 26 25 23 23 24 25 24 24 26 25 24 23 22 22 21 20 18 18 17 15 15 15 14 14 13 13 13 13 14 14
27 26 26 26 26 25 24 24 24 24 24 24 26 26 25 24 24 25 26 27 28 27 26 25 24 23 24 23 21 19 18 18 16 16 15 15 15 14 14 14 14 14
26 27 27 26 26 26 25 24 24 25 24 24 24 25 26 26 25 25 26 28 30 29 28 27 26 25 25 26 25 22 20 19 19 18 17 17 16 16 15 15 15 15
24 25 26 26 26 27 26 25 25 25 25 25 24 25 25 26 26 25 25 26 29 30 30 29 28 28 28 28 28 27 24 22 21 20 19 18 18 18 17 17 17 17
21 22 23 24 25 26 28 28 27 26 26 26 26 25 25 26 26 26 26 26 27 29 31 31 30 30 31 31 30 30 29 26 25 24 23 22 21 20 19 19 19 19
20 21 22 23 24 25 28 30 29 28 28 28 28 27 27 26 26 26 26 26 26 27 29 30 30 30 32 34 33 33 32 30 28 27 26 26 25 24 23 22 21 21
19 21 23 24 23 24 27 29 30 29 29 30 30 29 29 28 27 27 28 27 27 27 28 29 30 30 32 35 34 33 33 32 31 30 29 29 29 28 28 26 24 24
19 21 24 25 24 25 27 28 29 29 29 30 31 31 31 31 30 30 30 29 28 27 28 28 29 30 32 35 36 35 34 33 33 31 29 29 31 31 32 31 29 27
20 22 25 25 24 25 27 27 29 30 30 30 30 30 30 31 32 32 32 32 31 30 29 29 29 30 32 35 36 36 35 34 35 33 30 28 28 30 32 33 33 32
22 24 26 25 23 23 25 27 28 30 30 30 29 29 30 31 32 33 33 34 34 33 33 32 30 30 32 34 36 37 36 35 36 37 36 33 30 29 29 31 33 35
24 24 25 24 23 24 25 26 28 29 29 29 28 27 29 31 31 32 33 34 35 35 35 34 34 33 33 35 37 37 36 34 35 36 38 38 36 34 32 31 31 33
23 24 23 22 22 25 26 26 26 27 27 27 27 26 26 28 29 30 31 32 33 35 35 35 35 34 35 37 39 39 37 34 34 35 37 39 40 39 38 37 36 35
22 24 24 21 20 22 26 27 25 26 26 24 24 25 24 25 26 27 28 30 30 32 34 35 35 35 36 38 39 40 39 37 35 35 36 38 40 41 41 41 42 41
16 21 23 23 19 14 17 24 26 24 24 24 23 23 23 23 25 25 25 26 27 28 31 33 34 35 36 38 39 39 39 39 37 36 37 38 39 40 41 42 43 43
13 14 18 22 22 14 11 18 25 24 22 22 22 22 23 23 24 24 24 24 25 27 28 30 31 32 34 37 38 39 39 39 38 38 38 39 39 40 41 42 43 43
16 14 15 15 18 19 14 12 19 23 21 20 21 22 24 26 26 26 28 28 26 26 27 28 29 31 32 34 36 38 39 38 38 38 39 40 40 40 41 41 42 43

ECMWFNIL_850_spd_102.txt.gz
Wind_Speed
20 20 18 17 17 16 16 15 16 15 13 13 13 14 14 13 12 11 10 11 10 10 10 9 9 9 9 9 9 8 8 8 8 7 8 8 8 7 6 7 6 8
22 21 20 19 18 17 17 16 16 16 15 14 13 14 15 15 15 13 12 12 12 11 11 10 10 10 10 9 8 8 9 8 8 8 8 8 8 7 6 6 6 8
23 23 22 21 20 18 18 17 17 17 16 16 15 15 15 15 16 16 14 14 13 12 12 11 11 10 11 10 9 9 9 9 9 9 9 8 8 8 7 6 6 6
24 24 24 23 22 20 19 18 17 17 17 16 16 15 14 14 15 16 16 14 13 13 13 12 12 11 12 11 10 10 9 9 9 9 9 9 8 8 7 7 8 6
24 24 24 24 23 21 20 19 19 18 17 17 17 16 15 14 15 16 16 15 14 14 13 13 13 12 12 13 12 11 11 10 9 9 9 9 8 9 7 7 9 9
26 25 25 25 24 22 22 21 20 19 18 18 18 18 18 18 18 17 17 16 15 14 13 13 13 13 12 13 13 12 11 11 10 9 9 10 9 9 7 6 8 10
28 27 26 25 25 25 24 23 22 21 20 19 19 19 19 21 20 18 17 17 16 15 14 13 13 13 13 13 13 13 13 12 11 10 10 10 10 10 9 9 9 9
26 27 27 27 26 26 26 24 24 24 22 21 21 20 20 20 20 19 18 18 17 16 15 15 15 14 13 14 14 13 14 13 12 12 12 11 11 11 11 11 10 10
26 25 26 27 26 26 27 25 25 25 25 24 22 22 22 22 21 20 21 20 19 17 16 16 17 16 15 15 14 14 14 14 12 12 13 12 12 11 11 11 12 12
26 25 25 26 26 26 26 26 25 25 26 26 24 23 23 24 23 21 22 23 22 20 19 19 19 18 17 16 16 15 15 15 14 14 14 13 13 13 12 12 13 13
26 26 25 25 25 25 25 26 25 25 26 27 27 25 23 24 25 24 23 24 24 23 22 22 21 20 19 17 17 17 17 16 16 16 16 15 14 14 13 13 14 14
27 26 25 25 25 25 24 25 25 25 25 26 27 27 25 24 25 26 25 24 25 25 25 25 23 22 22 20 18 19 19 18 17 17 17 17 16 16 15 15 15 15
28 26 25 24 24 24 25 25 25 25 25 26 27 27 27 25 24 26 27 26 26 26 26 26 26 25 24 23 21 20 20 20 19 19 18 18 18 17 16 16 16 16
27 27 26 24 22 23 25 26 25 25 26 26 26 26 27 27 26 25 25 27 27 28 27 27 27 27 26 25 24 23 22 22 21 21 20 20 19 19 18 18 17 17
26 25 26 27 25 22 24 27 27 26 26 27 27 26 26 26 26 26 25 26 27 28 28 28 28 28 28 27 26 25 25 25 25 24 23 22 21 21 20 19 19 19
26 24 25 28 28 25 25 26 28 29 27 26 27 27 26 25 26 26 25 25 26 27 27 27 28 29 29 29 28 27 27 27 27 27 26 25 24 24 23 22 21 21
20 19 20 22 23 26 27 26 29 31 29 27 28 28 27 26 25 26 27 26 25 26 27 27 28 28 29 30 30 29 29 28 28 29 29 29 28 27 27 26 25 24
18 18 19 19 19 23 25 25 27 30 31 30 27 27 28 28 26 26 27 27 26 25 26 27 27 27 28 29 30 30 30 29 29 30 31 31 31 31 30 29 29 28
14 18 21 21 21 22 23 23 23 26 30 30 25 23 25 28 28 27 27 28 29 28 26 27 27 27 28 28 29 30 30 30 30 30 31 32 32 32 32 32 31 31
10 15 18 19 20 22 23 23 24 25 27 27 25 23 23 24 27 29 29 29 30 31 30 29 27 27 28 28 29 29 30 30 30 30 31 31 31 30 30 30 30 30
10 13 14 14 17 20 21 22 23 24 24 25 24 24 25 26 27 29 29 31 33 33 33 33 31 29 28 29 28 28 28 28 29 30 30 30 31 31 30 30 29 29
9 12 13 13 14 16 18 18 19 21 23 23 23 24 25 27 29 29 29 30 32 33 33 34 34 33 32 31 30 29 28 28 28 29 30 30 30 31 32 32 32 32
12 11 12 15 15 17 18 17 17 19 21 22 22 22 22 23 25 27 29 29 29 30 31 32 33 32 33 34 34 32 31 30 30 30 30 31 31 31 31 32 33 34
15 14 10 13 17 18 20 18 15 16 19 22 22 21 21 21 22 25 28 29 29 29 29 30 31 30 29 30 33 34 34 33 33 33 33 33 34 33 33 32 32 33
13 13 9 7 11 14 17 18 16 15 17 20 22 22 23 23 23 24 27 29 30 30 29 28 29 29 28 27 28 30 32 34 34 34 35 35 36 36 36 35 34 34
7 9 9 7 7 9 11 14 16 17 17 18 20 22 24 25 24 24 26 28 29 30 29 28 28 27 28 29 27 26 27 29 31 33 34 35 36 36 36 36 35 34

ECMWFNIL_850_spd_105.txt.gz
Wind_Speed
19 19 18 16 16 15 15 15 14 13 12 11 10 10 10 8 8 9 10 10 9 9 10 10 10 11 11 11 12 10 9 10 10 10 9 9 9 9 11 12 11 11
19 18 18 16 15 15 14 14 14 13 12 12 11 11 11 9 8 8 7 8 9 9 10 10 10 11 11 12 12 10 9 9 9 10 9 8 9 10 10 11 11 11
19 19 18 17 16 15 14 13 14 13 12 11 11 12 12 11 11 11 10 10 11 11 11 11 11 11 11 11 11 10 10 10 9 9 9 8 9 9 9 10 9 10
20 20 19 18 17 16 15 14 14 14 13 13 12 12 13 14 14 13 12 11 11 12 11 11 10 11 11 10 10 10 10 10 9 9 10 9 9 9 8 9 8 7
20 20 20 19 18 17 16 16 15 15 15 14 14 14 13 14 15 15 14 13 11 12 12 11 11 11 11 11 10 10 10 10 10 9 9 9 9 9 8 8 9 8
20 20 20 20 19 19 18 17 16 15 16 15 15 14 13 13 14 15 15 14 13 12 13 12 12 11 11 12 11 11 10 10 10 10 9 9 9 10 9 8 8 10
21 20 20 20 20 20 20 18 17 16 16 15 15 15 14 13 14 14 14 14 14 13 13 12 12 12 12 13 12 12 11 11 11 10 10 10 9 10 10 9 8 9
21 20 20 20 20 20 21 20 19 18 17 16 15 16 15 14 15 16 15 15 15 15 14 13 13 12 12 13 13 13 13 12 12 12 11 11 11 11 11 11 10 10
22 20 20 21 21 21 22 21 20 19 18 17 16 16 16 15 16 18 17 16 16 16 16 15 14 13 13 14 14 14 14 14 14 13 12 12 12 12 12 12 12 12
22 21 20 21 21 22 23 23 22 21 20 20 18 17 17 17 16 17 18 17 17 17 17 17 16 15 14 15 15 14 15 14 14 14 14 13 13 13 12 12 13 13
23 22 21 21 21 21 22 22 23 23 22 22 21 20 19 19 18 18 18 18 18 18 18 17 18 17 16 16 16 15 15 15 15 15 15 15 14 14 14 14 14 14
24 23 22 21 21 21 20 20 21 22 23 23 23 22 22 22 21 20 20 20 20 20 20 19 19 19 19 18 17 17 16 16 15 16 16 16 15 15 15 16 16 15
22 22 22 20 20 21 20 20 20 20 22 24 24 23 23 24 24 23 22 21 21 21 21 21 21 22 22 21 20 19 19 18 18 17 17 17 17 16 16 16 16 16
18 20 22 21 21 22 21 22 21 18 19 24 25 25 23 23 24 25 25 23 22 22 22 22 23 24 25 24 24 22 21 21 21 20 19 19 20 19 18 18 18 17
15 18 20 22 24 23 22 23 24 22 19 20 24 27 27 24 22 23 26 26 24 23 22 22 23 23 24 26 26 25 25 23 23 23 23 22 22 22 21 21 21 20
15 17 19 21 23 24 24 24 25 27 25 21 22 25 28 28 26 23 24 26 26 26 25 24 24 23 23 23 25 26 27 27 26 26 26 26 26 25 24 24 23 22
13 16 18 21 22 23 24 25 25 27 28 25 23 23 25 28 30 28 25 25 26 27 27 27 26 25 24 22 22 23 25 27 28 28 28 29 29 29 28 27 26 25
10 13 16 19 21 21 22 25 26 28 29 27 25 25 25 24 26 28 28 27 26 27 28 29 28 27 26 24 23 23 23 24 26 27 29 31 31 32 32 31 30 29
7 10 13 16 19 19 19 21 24 26 29 29 27 28 27 25 24 26 27 28 27 27 28 29 29 28 26 26 25 25 23 23 23 24 26 28 30 32 33 33 33 33
4 6 9 11 14 16 17 18 20 21 24 27 29 30 30 29 27 27 28 28 28 27 28 29 30 29 26 25 26 27 26 24 24 24 25 26 27 29 31 32 33 34
3 5 7 8 10 12 14 17 19 20 21 24 26 28 29 30 30 30 31 30 29 28 28 29 30 30 27 24 23 25 27 28 27 27 27 27 27 27 28 28 30 31
3 5 7 9 11 13 13 15 18 19 20 22 24 25 27 28 30 31 32 32 31 30 30 29 30 31 30 27 23 22 23 27 31 32 31 31 31 30 29 28 28 29
5 4 4 6 9 12 13 15 18 20 19 20 22 24 26 27 28 30 31 31 30 31 33 33 31 29 31 32 32 29 26 26 28 32 34 35 35 34 33 32 31 30
6 6 4 3 4 7 10 13 18 21 20 19 20 22 24 26 27 28 29 29 27 28 33 35 34 32 33 35 37 37 36 34 32 33 35 36 37 37 36 36 35 34
4 4 4 4 4 4 5 7 13 18 19 20 20 20 21 23 25 26 27 27 26 26 28 32 35 37 39 40 37 35 37 39 39 38 38 37 37 37 38 38 38 37
4 3 5 6 5 5 5 5 6 10 13 16 16 16 16 19 21 23 24 24 24 24 25 28 34 38 39 39 37 33 33 35 37 39 39 38 38 37 37 38 39 39

ECMWFNIL_850_spd_108.txt.gz
Wind_Speed
22 21 20 18 18 17 16 15 14 14 13 12 11 11 12 12 11 11 10 10 10 10 10 11 12 12 11 11 11 11 9 10 10 10 11 11 11 11 11 13 13 11
23 22 21 19 18 18 17 16 14 13 13 12 11 11 12 13 12 11 11 11 10 10 10 11 11 11 11 11 10 9 9 9 9 10 11 11 11 11 12 14 14 13
24 24 23 21 19 19 18 17 15 14 13 12 12 12 12 13 12 12 13 12 10 9 10 11 11 11 11 11 10 10 10 9 9 10 11 10 11 11 11 13 14 14
25 25 24 22 20 19 18 18 17 16 14 13 12 12 12 12 12 13 13 12 10 9 10 11 11 11 11 11 11 12 11 11 10 10 11 11 11 11 10 11 13 14
25 25 25 23 21 19 18 18 18 17 16 15 14 13 13 12 12 12 12 12 11 11 11 11 11 11 11 11 11 12 12 11 11 11 11 11 11 10 10 10 10 11
25 25 25 24 23 21 19 18 17 17 17 16 15 14 14 13 13 12 12 11 11 11 12 12 12 12 11 12 12 12 12 11 11 12 12 11 10 10 10 10 10 11
26 25 25 24 24 22 21 19 17 17 17 16 16 16 15 14 14 13 13 12 12 12 12 12 13 13 12 12 12 12 12 12 12 12 12 10 10 10 11 11 11 12
25 25 24 24 24 24 23 21 19 18 17 16 17 17 17 16 15 15 14 14 13 13 12 12 13 13 13 13 13 13 13 13 13 13 13 12 12 12 11 11 12 13
26 25 24 23 23 24 23 23 21 19 18 17 17 16 17 18 17 16 16 16 15 14 13 14 14 13 13 14 14 14 14 14 14 14 14 13 13 13 12 12 12 13
26 25 24 23 23 22 22 22 22 21 19 19 18 17 17 17 17 16 16 17 16 15 15 15 16 15 14 15 15 14 14 14 15 15 15 15 14 13 13 13 13 14
26 25 24 24 22 22 21 21 21 22 21 20 19 18 17 17 17 17 17 17 17 16 15 16 17 17 17 16 16 15 15 14 15 16 16 16 15 14 14 14 14 15
26 26 25 23 22 21 20 20 21 22 22 22 21 20 19 18 18 18 18 18 17 16 16 16 17 18 18 17 16 15 15 15 15 16 17 17 17 16 15 15 15 16
26 27 27 24 22 20 20 20 21 23 23 23 23 22 21 20 20 20 20 20 19 17 17 16 16 17 18 18 17 16 16 16 15 16 17 17 17 17 16 16 16 15
27 28 28 25 23 22 22 21 22 23 24 24 23 24 24 22 21 20 21 22 22 21 19 17 17 17 17 18 19 19 18 18 18 17 17 18 18 18 18 18 17 16
25 25 25 25 25 24 23 23 24 24 24 24 24 24 25 25 24 23 22 22 23 23 22 20 20 19 18 17 18 19 19 20 20 20 20 20 20 20 20 20 20 19
21 21 21 23 25 25 25 24 25 24 24 25 25 25 25 26 26 27 27 26 24 24 24 24 23 21 19 18 17 17 17 18 19 21 21 22 22 22 22 21 21 21
18 18 18 19 21 23 24 24 25 25 26 26 26 26 25 25 25 26 29 29 28 27 27 27 26 25 23 21 19 18 18 18 18 19 20 22 23 25 25 24 23 22
14 14 15 16 18 20 22 23 24 25 26 27 28 27 26 25 23 23 25 28 30 30 29 29 28 27 27 25 24 22 21 21 21 20 19 20 21 22 24 26 26 26
9 10 12 14 16 18 19 21 22 23 25 27 28 28 28 26 24 22 22 25 28 31 32 31 30 29 28 27 27 26 24 23 23 23 23 22 21 20 20 21 23 24
8 8 9 11 13 15 16 17 19 20 21 24 26 27 28 28 26 24 23 24 26 29 32 33 33 32 30 28 28 27 26 25 24 24 26 26 25 24 22 20 20 20
6 6 7 8 10 11 13 15 16 18 18 20 22 25 27 28 28 27 26 26 26 27 29 32 33 34 33 32 30 28 27 27 27 26 26 27 27 27 26 25 23 22
5 4 6 8 9 10 11 12 14 16 17 17 19 20 23 25 27 27 27 28 29 29 29 30 32 33 34 34 32 30 28 28 28 28 27 27 28 28 28 27 27 26
3 2 2 4 6 8 9 11 12 13 15 17 18 19 20 22 24 25 26 28 29 30 31 32 32 33 33 33 32 30 29 29 29 29 29 30 31 30 30 30 30 30
3 5 5 3 0 2 4 6 9 11 14 16 18 18 19 20 21 23 24 26 27 29 31 33 34 33 34 34 33 31 29 29 29 30 32 33 34 34 34 34 34 34
5 6 7 6 4 3 3 2 3 5 7 11 15 17 18 18 19 20 21 22 24 26 28 29 31 32 32 34 35 35 33 32 31 33 34 36 37 38 38 38 39 39
5 6 6 5 4 4 4 5 5 6 6 5 6 10 13 15 15 15 16 17 19 22 25 26 27 28 29 30 32 33 33 33 34 35 36 38 39 39 40 41 42 42

ECMWFNIL_850_spd_111.txt.gz
Wind_Speed
19 19 18 17 15 14 13 12 12 12 11 10 10 10 10 9 10 10 9 10 11 11 11 11 12 12 12 11 11 11 11 10 10 10 10 10 10 10 10 10 9 9
21 20 19 18 17 16 15 13 12 12 12 11 10 10 10 11 11 10 9 10 10 10 10 11 11 11 11 11 10 10 10 10 10 9 9 10 9 10 10 10 10 11
22 21 20 20 18 17 16 14 13 13 12 11 11 11 11 12 12 11 11 11 10 10 10 10 10 10 10 11 11 10 10 10 9 9 9 9 9 10 10 10 11 12
23 23 21 20 19 17 17 16 15 14 13 13 12 12 11 12 13 12 12 12 11 11 11 10 10 10 10 10 10 9 10 9 8 9 9 8 8 9 9 10 10 11
23 23 22 21 20 19 17 17 17 16 15 14 13 12 12 12 13 13 13 13 13 13 12 11 10 10 10 10 9 9 9 9 8 9 9 8 8 8 8 9 10 10
23 23 23 22 21 20 18 17 16 16 16 15 14 14 13 13 14 14 13 14 14 14 13 12 11 11 11 10 9 9 8 8 8 9 9 8 8 7 7 8 9 9
25 24 23 23 22 21 20 18 17 16 16 16 16 15 15 14 15 14 14 14 14 14 13 13 12 12 12 11 10 9 9 9 9 9 9 8 7 8 8 8 9 9
24 24 24 24 24 23 22 20 18 17 17 17 17 17 17 16 15 14 14 14 14 13 13 12 12 12 13 12 11 10 10 10 10 9 9 8 8 8 8 9 9 9
24 24 25 25 25 24 23 22 21 19 18 18 18 18 18 18 18 16 15 15 15 15 15 14 13 13 13 13 13 12 11 11 11 11 10 10 10 9 8 9 10 10
24 24 24 25 25 25 25 24 23 22 21 20 19 19 19 19 19 18 18 17 18 17 17 16 15 14 14 14 14 13 13 12 12 12 12 11 11 10 9 10 10 11
24 24 24 25 26 26 26 25 24 24 23 23 22 21 20 19 19 19 19 19 19 19 18 17 16 15 14 14 14 14 14 14 14 14 13 13 12 11 11 11 12 12
23 24 25 26 26 26 26 25 25 25 24 24 24 23 21 19 18 19 19 19 19 19 18 18 17 16 16 15 15 15 15 15 16 16 15 14 14 13 13 13 13 13
24 24 26 26 26 26 25 25 24 24 24 24 24 24 23 21 20 19 19 19 19 19 19 18 17 16 16 16 16 16 17 17 16 16 16 16 15 15 15 14 14 14
27 25 25 25 24 25 25 25 24 23 23 23 24 24 24 23 22 21 20 20 20 20 19 19 18 17 16 16 16 16 16 17 17 17 16 16 16 16 16 16 15 15
29 27 25 24 24 25 25 25 25 24 23 23 25 26 27 26 24 22 21 21 20 19 20 20 20 19 18 16 16 16 16 16 16 16 17 16 16 16 17 17 17 17
31 29 26 25 25 26 26 26 26 25 25 25 26 28 28 27 26 25 24 23 22 21 21 22 22 21 19 18 17 16 16 16 16 16 16 15 16 16 16 17 18 19
25 25 24 23 23 25 26 27 27 26 26 27 28 29 29 28 27 25 25 24 23 23 22 23 23 22 20 19 18 18 18 18 18 17 17 17 17 16 16 15 16 17
16 17 17 18 19 21 23 25 27 28 28 29 30 30 29 28 27 25 25 24 24 24 24 24 24 23 22 21 21 20 20 21 21 21 21 22 21 20 19 18 17 17
11 12 13 15 16 17 19 20 23 28 30 32 34 33 30 29 28 26 25 25 25 26 25 25 24 23 23 24 24 23 23 23 24 24 25 25 25 24 23 22 21 20
9 8 9 11 13 15 16 17 20 24 28 31 33 33 31 29 29 28 28 27 26 25 25 25 24 23 23 24 26 26 26 26 26 25 26 26 26 26 25 24 22 21
6 6 7 9 10 12 14 17 20 23 26 29 29 29 29 28 28 28 29 29 28 26 25 24 23 23 23 24 26 27 27 28 28 28 27 27 27 27 27 25 24 23
3 3 5 7 8 9 10 13 16 19 20 22 24 25 26 25 25 25 26 27 28 27 27 26 24 24 24 25 26 27 27 28 29 29 29 29 29 28 28 27 26 25
2 2 2 3 4 6 6 7 11 14 14 15 17 20 21 21 20 19 20 21 23 25 26 26 26 26 26 27 28 28 28 29 29 29 29 30 31 30 30 29 28 28
3 2 1 1 1 1 2 3 5 8 11 13 14 16 17 17 17 15 15 16 18 20 22 24 25 26 27 28 29 29 30 30 29 29 30 30 30 30 29 29 29 29
3 2 1 2 2 2 1 1 0 2 5 7 8 9 11 13 14 13 14 14 15 15 16 17 20 24 26 27 28 29 30 30 30 31 31 31 30 30 29 29 29 29
4 2 1 1 1 1 0 0 0 1 1 2 2 3 3 5 8 9 10 11 12 12 12 13 15 19 21 23 24 25 27 28 28 29 30 30 30 30 30 30 30 31

ECMWFNIL_850_spd_114.txt.gz
Wind_Speed
16 15 14 12 10 9 10 10 9 9 8 8 8 7 5 6 7 6 7 7 7 7 8 8 9 10 10 10 9 9 9 9 10 10 10 10 10 10 10 11 11 10
18 17 15 14 12 11 11 11 10 9 8 7 7 7 7 7 7 7 7 7 7 7 7 8 9 9 9 9 9 9 9 9 10 10 10 10 10 10 10 11 11 11
19 18 16 15 14 13 12 11 10 10 9 8 8 8 8 8 8 8 7 7 7 7 7 8 9 9 8 9 9 9 8 8 9 10 10 10 11 10 10 10 11 11
19 18 17 15 14 13 13 12 11 10 9 9 9 9 9 9 9 9 8 9 8 8 8 8 8 8 8 9 9 9 8 8 9 10 11 10 11 10 10 11 11 11
18 18 18 17 15 15 14 13 13 12 10 10 10 10 10 10 10 11 10 10 10 10 10 9 9 8 9 9 10 9 9 9 9 10 11 10 10 10 10 10 10 10
18 18 18 18 17 16 15 15 13 13 12 11 11 11 11 11 11 11 12 12 11 12 11 11 10 9 9 10 10 10 10 9 9 10 10 9 9 9 9 10 10 9
18 19 19 19 18 17 16 15 14 13 12 12 12 12 12 12 12 12 13 13 12 12 12 12 11 11 10 11 11 11 10 10 10 10 9 8 8 8 8 9 9 9
19 20 20 20 19 19 18 17 16 14 13 12 12 12 12 12 12 12 13 13 13 13 13 13 12 12 11 12 12 12 11 11 10 10 10 9 8 8 7 8 8 8
20 21 21 21 21 20 19 18 17 15 14 14 13 12 12 12 13 13 13 13 13 13 13 13 13 12 12 12 13 13 12 12 12 12 11 10 10 9 8 8 8 8
21 22 22 22 22 21 20 19 18 17 16 16 14 14 13 13 13 14 14 14 14 13 13 13 13 12 12 13 13 13 13 13 13 13 13 12 12 11 10 10 10 9
19 21 23 23 22 22 21 20 19 18 17 17 16 16 15 15 14 14 15 15 15 14 13 13 13 13 13 13 13 13 13 13 14 14 14 14 14 13 12 12 11 11
19 19 21 22 22 22 22 22 21 20 20 19 18 18 17 17 16 16 15 15 15 14 14 13 13 13 13 13 13 13 13 13 14 15 15 15 15 14 14 13 13 12
22 20 19 20 21 21 21 22 23 22 22 21 20 20 20 19 19 18 17 16 15 14 13 13 12 12 13 13 13 13 13 14 14 15 15 15 16 16 15 14 14 13
25 24 22 20 20 21 22 22 23 23 23 23 22 21 21 21 20 20 19 18 16 15 14 13 13 14 14 13 13 13 13 14 13 13 14 14 15 15 15 15 15 14
27 26 24 22 21 21 22 22 22 23 23 23 23 22 21 21 21 20 19 19 18 16 15 15 15 15 15 15 15 14 14 14 13 13 13 13 13 13 13 14 14 14
27 25 24 23 23 22 22 21 22 22 23 23 22 22 22 22 22 21 21 20 19 18 18 17 17 17 16 16 16 16 16 16 15 15 14 14 14 14 13 13 12 13
26 25 25 24 24 24 23 21 22 23 24 23 23 22 22 22 23 23 23 22 21 20 20 20 19 18 17 17 17 18 18 18 18 17 17 17 17 16 16 15 15 14
21 20 22 24 25 25 25 23 23 24 24 25 24 23 23 23 23 23 23 23 22 21 20 20 20 20 20 20 20 20 21 21 21 21 21 20 20 19 19 18 18 18
13 10 12 16 19 21 23 23 22 22 24 27 27 26 24 24 24 23 22 22 22 22 20 19 20 21 21 23 23 22 22 23 23 24 24 23 23 22 21 21 21 21
10 9 8 8 10 13 15 17 17 18 21 25 26 25 25 25 24 24 22 22 22 23 22 21 21 21 22 24 26 26 25 24 25 25 25 25 25 24 23 22 22 21
5 5 5 5 6 7 8 11 13 14 17 19 20 21 22 23 23 23 22 22 23 24 24 24 24 24 23 23 25 27 27 26 26 26 26 26 26 25 25 24 23 22
6 4 2 1 3 4 6 8 9 9 10 12 13 15 17 18 20 20 20 22 23 24 25 26 26 28 28 27 27 28 27 27 26 26 26 26 26 26 26 25 25 24
8 7 7 5 3 1 2 3 4 4 5 5 7 8 10 12 14 15 16 18 18 20 23 24 24 25 28 30 31 31 29 28 28 27 27 27 27 27 27 27 26 25
7 7 6 6 6 6 5 4 3 2 3 4 5 7 8 10 11 12 13 13 12 12 13 14 15 19 24 28 31 32 31 30 29 29 29 29 29 30 30 29 28 28
7 6 5 5 6 6 7 7 7 6 5 5 5 6 7 8 10 10 10 10 10 8 7 11 15 18 21 24 27 29 30 30 30 30 30 31 31 31 31 30 30 30
5 5 5 4 4 5 5 6 6 6 6 6 7 7 7 7 8 8 9 10 11 12 10 11 15 17 19 20 21 23 25 28 28 29 29 30 30 30 30 29 29 28

ECMWFNIL_850_spd_117.txt.gz
Wind_Speed
15 15 13 10 10 8 7 6 6 7 7 7 6 5 5 6 6 6 6 7 7 7 7 8 8 8 8 8 7 7 6 6 6 7 7 7 7 8 9 9 10 10
15 14 13 11 10 9 7 7 7 7 7 6 5 5 6 6 6 6 6 7 7 7 8 7 7 7 8 8 7 7 6 6 6 7 7 7 8 8 8 9 10 10
14 14 13 12 11 10 8 7 7 7 7 6 6 6 6 6 6 6 6 7 7 7 8 7 7 7 7 7 7 7 6 6 6 7 7 8 8 8 9 9 9 9
14 14 14 12 11 10 9 8 7 7 7 7 6 6 7 7 7 7 7 7 7 7 7 7 7 7 7 7 7 7 7 6 6 7 7 7 8 8 9 9 9 9
14 14 14 13 12 12 11 9 8 7 7 7 6 6 7 8 8 7 7 7 7 7 7 7 6 6 6 6 7 7 7 6 7 7 7 7 8 9 9 9 9 9
15 15 15 14 13 13 12 10 9 8 7 8 7 7 7 7 7 7 7 7 7 7 7 7 7 7 6 6 7 7 6 6 7 7 7 8 8 9 9 9 9 9
15 15 15 15 15 14 13 12 10 9 8 8 9 8 8 7 7 7 7 7 8 8 8 9 9 8 7 7 7 7 7 7 7 7 7 7 8 8 8 8 9 9
14 15 15 15 15 15 15 13 12 11 10 9 10 10 9 9 8 7 8 8 9 9 9 9 9 9 8 8 8 8 8 7 7 7 7 7 7 7 7 8 9 9
15 14 15 15 15 16 15 15 14 13 12 11 10 10 10 10 9 9 9 9 9 10 10 10 10 10 9 9 9 8 8 8 8 8 8 8 8 8 7 8 9 9
13 14 14 15 16 16 16 16 16 15 13 12 11 11 11 10 10 10 10 10 10 10 10 10 10 10 10 10 9 9 9 9 9 9 9 9 9 9 9 9 10 10
13 13 13 14 16 17 17 17 17 17 16 15 14 13 12 11 11 11 10 11 11 10 10 10 10 10 10 10 10 10 10 9 9 9 9 9 10 10 10 11 11 11
15 14 14 14 15 17 18 18 18 18 18 17 16 15 14 13 13 12 12 12 12 12 12 11 10 10 10 9 9 10 10 10 10 10 10 10 10 11 11 11 12 12
18 17 17 16 15 16 17 18 19 19 19 19 18 17 17 16 15 15 15 14 14 13 13 12 11 11 10 9 9 9 9 9 9 9 10 10 10 10 10 10 11 12
20 19 18 18 16 16 17 18 19 19 20 20 20 19 19 18 18 17 17 16 16 16 15 14 13 12 11 10 10 9 9 9 9 9 9 9 8 8 8 9 10 11
22 21 20 19 18 17 17 17 18 19 20 20 20 21 21 20 19 19 18 18 18 17 17 16 15 14 13 12 11 11 10 10 10 10 10 10 9 9 9 8 9 9
22 21 19 19 20 20 19 18 18 18 19 19 20 21 21 21 20 20 20 20 19 19 19 19 18 17 16 14 13 12 12 12 12 12 12 12 11 11 10 10 10 10
23 22 21 20 20 21 21 21 20 19 18 18 19 20 21 21 21 21 20 20 20 20 20 19 19 19 18 17 16 15 14 14 14 14 14 14 14 14 13 12 12 13
23 22 23 23 21 21 22 23 22 20 19 19 19 20 20 21 22 22 21 20 20 20 20 20 20 20 20 19 18 18 17 16 15 15 15 16 16 16 15 15 15 15
22 23 24 25 24 23 23 23 23 21 20 20 20 21 22 22 23 22 21 20 19 20 20 20 21 21 20 20 19 19 18 17 16 16 16 16 17 17 17 17 17 17
17 20 21 22 22 22 21 22 22 21 21 21 21 22 23 24 24 23 22 20 20 21 20 21 21 21 20 20 20 19 19 18 17 17 17 17 17 18 19 19 19 19
11 13 14 13 13 13 14 16 17 18 18 19 19 20 21 22 22 22 22 22 22 22 21 22 23 22 21 21 21 20 19 19 19 19 19 19 19 19 20 20 21 21
8 7 7 7 7 7 8 9 9 10 11 12 13 13 13 13 14 16 18 21 22 22 23 25 25 24 23 23 22 22 21 21 21 21 21 21 21 21 21 21 22 22
9 8 7 5 5 5 5 6 6 6 6 6 7 6 6 6 7 10 14 16 17 18 21 23 24 24 24 24 23 23 22 22 22 23 23 24 23 23 23 23 23 23
9 9 9 8 8 8 7 5 4 4 5 5 5 4 4 3 2 5 8 11 13 16 18 19 20 21 21 21 20 20 20 20 20 20 22 23 24 24 25 25 26 26
9 9 10 9 9 10 10 8 7 7 6 5 3 2 1 1 2 4 7 9 11 12 12 13 14 15 15 15 16 17 17 17 17 17 19 21 22 23 23 25 26 26
9 9 9 9 9 9 9 8 7 8 8 7 6 5 4 2 2 5 7 7 8 8 8 9 11 12 12 13 14 15 15 15 15 15 16 18 19 20 20 21 21 20